[[{"header":{"parameterUnit":"m.s-1","parameterCategory":1,"la1":31.0,"la2":29.5877,"lo1":-88.7671,"lo2":-86.6584,"dy":0.0162,"dx":0.0185,"nx":115,"ny":88,"refTime":"2023-09-29T06:00:00:Z","depth":0,"parameterNumber":2,"parameterNumberName":"U-component_of_WINDS"},"data":[0.0,0.0,0.0,0.0,0.0,0.0,0.0,0.0,0.0,0.0,0.0,0.0,0.0,0.0,0.0,0.0,0.0,0.0,0.0,0.0,0.0,0.0,0.0,0.0,0.0,0.0,0.0,0.0,0.0,0.0,0.0,0.0,0.0,0.0,0.0,0.0,0.0,0.0,0.0,0.0,0.0,0.0,0.0,0.0,0.0,0.0,0.0,0.0,0.0,0.0,0.0,0.0,0.0,0.0,0.0,0.0,0.0,0.0,0.0,0.0,0.0,0.0,0.0,0.0,0.0,0.0,0.0,0.0,0.0,0.0,0.0,0.0,0.0,0.0,0.0,0.0,0.0,0.0,0.0,0.0,0.0,0.0,0.0,0.0,0.0,0.0,0.0,0.0,0.0,0.0,0.0,0.0,0.0,0.0,0.0,0.0,0.0,0.0,0.0,0.0,0.0,0.0,0.0,0.0,0.0,0.0,0.0,0.0,0.0,0.0,0.0,0.0,0.0,0.0,0.0,0.0,0.0,0.0,0.0,0.0,0.0,0.0,0.0,0.0,0.0,0.0,0.0,0.0,0.0,0.0,0.0,0.0,0.0,0.0,0.0,0.0,0.0,0.0,0.0,0.0,0.0,0.0,0.0,0.0,0.0,0.0,0.0,0.0,0.0,0.0,0.0,0.0,0.0,0.0,0.0,0.0,0.0,0.0,0.0,0.0,0.0,0.0,0.0,0.0,0.0,0.0,0.0,0.0,0.0,0.0,0.0,0.0,0.0,0.0,0.0,0.0,0.0,0.0,0.0,0.0,0.0,0.0,0.0,0.0,0.0,0.0,0.0,0.0,0.0,0.0,0.0,0.0,0.0,0.0,0.0,0.0,0.0,0.0,0.0,0.0,0.0,0.0,0.0,0.0,0.0,0.0,0.0,0.0,0.0,0.0,0.0,0.0,0.0,0.0,0.0,0.0,0.0,0.0,0.0,0.0,0.0,0.0,0.0,0.0,0.0,0.0,0.0,0.0,0.0,0.0,0.0,0.0,0.0,0.0,0.0,0.0,0.0,0.0,0.0,0.0,0.0,0.0,0.0,0.0,0.0,0.0,0.0,0.0,0.0,0.0,0.0,0.0,0.0,0.0,0.0,0.0,0.0,0.0,0.0,0.0,0.0,0.0,0.0,0.0,0.0,0.0,0.0,0.0,0.0,0.0,0.0,0.0,0.0,0.0,0.0,0.0,0.0,0.0,0.0,0.0,0.0,0.0,0.0,0.0,0.0,0.0,0.0,0.0,0.0,0.0,0.0,0.0,0.0,0.0,0.0,0.0,0.0,0.0,0.0,0.0,0.0,0.0,0.0,0.0,0.0,0.0,0.0,0.0,0.0,0.0,0.0,0.0,0.0,0.0,0.0,0.0,0.0,0.0,0.0,0.0,0.0,0.0,0.0,0.0,0.0,0.0,0.0,0.0,0.0,0.0,0.0,0.0,0.0,0.0,0.0,0.0,0.0,0.0,0.0,0.0,0.0,0.0,0.0,0.0,0.0,0.0,0.0,0.0,0.0,0.0,0.0,0.0,0.0,0.0,0.0,0.0,0.0,0.0,0.0,0.0,0.0,0.0,0.0,0.0,0.0,0.0,0.0,0.0,0.0,0.0,0.0,0.0,0.0,0.0,0.0,0.0,0.0,0.0,0.0,0.0,0.0,0.0,0.0,0.0,0.0,0.0,0.0,0.0,0.0,0.0,0.0,0.0,0.0,0.0,0.0,0.0,0.0,0.0,0.0,0.0,0.0,0.0,0.0,0.0,0.0,0.0,0.0,0.0,0.0,0.0,0.0,0.0,0.0,0.0,0.0,0.0,0.0,0.0,0.0,0.0,0.0,0.0,0.0,0.0,0.0,0.0,0.0,0.0,0.0,0.0,0.0,0.0,0.0,0.0,0.0,0.0,0.0,0.0,0.0,0.0,0.0,0.0,0.0,0.0,0.0,0.0,0.0,0.0,0.0,0.0,0.0,0.0,0.0,0.0,0.0,0.0,0.0,0.0,0.0,0.0,0.0,0.0,0.0,0.0,0.0,0.0,0.0,0.0,0.0,0.0,0.0,0.0,0.0,0.0,0.0,0.0,0.0,0.0,0.0,0.0,0.0,0.0,0.0,0.0,0.0,0.0,0.0,0.0,0.0,0.0,0.0,0.0,0.0,0.0,0.0,0.0,0.0,0.0,0.0,0.0,0.0,0.0,0.0,0.0,0.0,0.0,0.0,0.0,0.0,0.0,0.0,0.0,0.0,0.0,0.0,0.0,0.0,0.0,0.0,0.0,0.0,0.0,0.0,0.0,0.0,0.0,0.0,0.0,0.0,0.0,0.0,0.0,0.0,0.0,0.0,0.0,0.0,0.0,0.0,0.0,0.0,0.0,0.0,0.0,0.0,0.0,0.0,0.0,0.0,0.0,0.0,0.0,0.0,0.0,0.0,0.0,0.0,0.0,0.0,0.0,0.0,0.0,0.0,0.0,0.0,0.0,0.0,0.0,0.0,0.0,0.0,0.0,0.0,0.0,0.0,0.0,0.0,0.0,0.0,0.0,0.0,0.0,0.0,0.0,0.0,0.0,0.0,0.0,0.0,0.0,0.0,0.0,0.0,0.0,0.0,0.0,0.0,0.0,0.0,0.0,0.0,0.0,0.0,0.0,0.0,0.0,0.0,0.0,0.0,0.0,0.0,0.0,0.0,0.0,0.0,0.0,0.0,0.0,0.0,0.0,0.0,0.0,0.0,0.0,0.0,0.0,0.0,0.0,0.0,0.0,0.0,0.0,0.0,0.0,0.0,0.0,0.0,0.0,0.0,0.0,0.0,0.0,0.0,0.0,0.0,0.0,0.0,0.0,0.0,0.0,0.0,0.0,0.0,0.0,0.0,0.0,0.0,0.0,0.0,0.0,0.0,0.0,0.0,0.0,0.0,0.0,0.0,0.0,0.0,0.0,0.0,0.0,0.0,0.0,0.0,0.0,0.0,0.0,0.0,0.0,0.0,0.0,0.0,0.0,0.0,0.0,0.0,0.0,0.0,0.0,0.0,0.0,0.0,0.0,0.0,0.0,0.0,0.0,0.0,0.0,0.0,0.0,0.0,0.0,0.0,0.0,0.0,0.0,0.0,0.0,0.0,0.0,0.0,0.0,0.0,0.0,0.0,0.0,0.0,0.0,0.0,0.0,0.0,0.0,0.0,0.0,0.0,0.0,0.0,0.0,0.0,0.0,0.0,0.0,0.0,0.0,0.0,0.0,0.0,0.0,0.0,0.0,0.0,0.0,0.0,0.0,0.0,0.0,0.0,0.0,0.0,0.0,0.0,0.0,0.0,0.0,0.0,0.0,0.0,0.0,0.0,0.0,0.0,0.0,0.0,0.0,0.0,0.0,0.0,0.0,0.0,0.0,0.0,0.0,0.0,0.0,0.0,0.0,0.0,0.0,0.0,0.0,0.0,0.0,0.0,0.0,0.0,0.0,0.0,0.0,0.0,0.0,0.0,0.0,0.0,0.0,0.0,0.0,0.0,0.0,0.0,0.0,0.0,0.0,0.0,0.0,0.0,0.0,0.0,0.0,0.0,0.0,0.0,0.0,0.0,0.0,0.0,0.0,0.0,0.0,0.0,0.0,0.0,0.0,0.0,0.0,0.0,0.0,0.0,0.0,0.0,0.0,0.0,0.0,0.0,0.0,0.0,0.0,0.0,0.0,0.0,0.0,0.0,0.0,0.0,0.0,0.0,0.0,0.0,0.0,0.0,0.0,0.0,0.0,0.0,0.0,0.0,0.0,0.0,0.0,0.0,0.0,0.0,0.0,0.0,0.0,0.0,0.0,0.0,0.0,0.0,0.0,0.0,0.0,0.0,0.0,0.0,0.0,0.0,0.0,0.0,0.0,0.0,0.0,0.0,0.0,0.0,0.0,0.0,0.0,0.0,0.0,0.0,0.0,0.0,0.0,0.0,0.0,0.0,0.0,0.0,0.0,0.0,0.0,0.0,0.0,0.0,0.0,0.0,0.0,0.0,0.0,0.0,0.0,0.0,0.0,0.0,0.0,0.0,0.0,0.0,0.0,0.0,0.0,0.0,0.0,0.0,0.0,0.0,0.0,0.0,0.0,0.0,0.0,0.0,0.0,0.0,0.0,0.0,0.0,0.0,0.0,0.0,0.0,0.0,0.0,0.0,0.0,0.0,0.0,0.0,0.0,0.0,0.0,0.0,0.0,0.0,0.0,0.0,0.0,0.0,0.0,0.0,0.0,0.0,0.0,0.5631,0.0,0.0,0.0,0.0,0.0,0.0,0.0,0.0,0.0,0.0,0.0,0.0,0.0,0.0,0.0,0.0,0.0,0.0,0.0,0.0,0.0,0.0,0.0,0.0,0.0,0.0,0.0,0.0,0.0,0.0,0.0,0.0,0.0,0.0,0.0,0.0,0.0,0.0,0.0,0.0,0.0,0.0,0.0,0.0,0.0,0.0,0.0,0.0,0.0,0.0,0.0,0.0,0.0,0.0,0.0,0.0,0.0,0.0,0.0,0.0,0.0,0.0,0.0,0.0,0.0,0.0,0.0,0.0,0.0,0.0,0.0,0.0,0.0,0.0,0.0,0.0,0.0,0.0,0.0,0.0,0.0,0.0,0.0,0.0,0.0,0.0,0.0,0.0,0.0,0.0,0.0,0.0,0.0,0.0,0.0,0.0,0.0,0.0,0.0,0.0,0.0,0.0,0.0,0.0,0.0,0.0,0.0,0.0,0.0,0.0,0.5707,0.5707,0.5707,0.5707,0.5707,0.0,0.0,0.0,0.0,0.0,0.0,0.0,0.0,0.0,0.0,0.0,0.0,0.0,0.0,0.0,0.0,0.0,0.0,0.0,0.0,0.0,0.0,0.0,0.0,0.0,0.0,0.0,0.0,0.0,0.0,0.0,0.0,0.0,0.0,0.0,0.0,0.0,0.0,0.0,0.0,0.0,0.0,0.0,0.0,0.0,0.0,0.0,0.0,0.0,0.0,0.0,0.0,0.0,0.0,0.0,0.0,0.0,0.0,0.0,0.0,0.0,0.0,0.0,0.0,0.0,0.0,0.0,0.0,0.0,0.0,0.0,0.0,0.0,0.0,0.0,0.0,0.0,0.0,0.0,0.0,0.0,0.0,0.0,0.0,0.0,0.0,0.0,0.0,0.0,0.0,0.0,0.0,0.0,0.0,0.0,0.0,0.0,0.0,0.0,0.0,0.0,0.0,0.0,0.0,0.0,0.0,0.0,0.0,0.0,0.0,0.0,0.0,0.5836,0.5847,0.5869,0.0,0.0,0.0,0.0,0.0,0.0,0.0,0.0,0.0,0.0,0.0,0.0,0.0,0.0,0.0,0.0,0.0,0.0,0.0,0.0,0.0,0.0,0.0,0.0,0.0,0.0,0.0,0.0,0.0,0.0,0.0,0.0,0.0,0.0,0.0,0.0,0.0,0.0,0.0,0.0,0.0,0.0,0.0,0.0,0.0,0.0,0.0,0.0,0.0,0.0,0.0,0.0,0.0,0.0,0.0,0.0,0.0,0.0,0.0,0.0,0.0,0.0,0.0,0.0,0.0,0.0,0.0,0.0,0.0,0.0,0.0,0.0,0.0,0.0,0.0,0.0,0.0,0.0,0.0,0.0,0.0,0.0,0.0,0.0,0.0,0.0,0.0,0.0,0.0,0.0,0.0,0.0,0.0,0.0,0.0,0.0,0.0,0.0,0.0,0.0,0.0,0.0,0.0,0.0,0.0,0.0,0.0,0.0,0.0,0.0,0.5964,0.5974,0.6201,0.0,0.6332,0.0,0.0,0.0,0.0,0.0,0.0,0.0,0.0,0.0,0.0,0.0,0.0,0.0,0.0,0.0,0.0,0.0,0.0,0.0,0.0,0.0,0.0,0.0,0.0,0.0,0.0,0.0,0.0,0.0,0.0,0.0,0.0,0.0,0.0,0.0,0.0,0.0,0.0,0.0,0.0,0.0,0.0,0.0,0.0,0.0,0.0,0.0,0.0,0.0,0.0,0.0,0.0,0.0,0.0,0.0,0.0,0.0,0.0,0.0,0.0,0.0,0.0,0.0,0.0,0.0,0.0,0.0,0.0,0.0,0.0,0.0,0.0,0.0,0.0,0.0,0.0,0.0,0.0,0.0,0.0,0.0,0.0,0.0,0.0,0.0,0.0,0.0,0.0,0.0,0.0,0.0,0.0,0.0,0.0,0.0,0.0,0.0,0.0,0.0,0.0,0.0,0.0,0.0,0.0,0.0,0.0,0.0,0.0,0.0,0.0,0.6233,0.6233,0.6342,0.6408,0.0,0.0,0.0,0.0,0.0,0.0,0.0,0.0,0.0,0.0,0.0,0.0,0.0,0.0,0.0,0.0,0.0,0.0,0.0,0.0,0.0,0.0,0.0,0.0,0.0,0.0,0.0,0.0,0.0,0.0,0.0,0.0,0.0,0.0,0.0,0.0,0.0,0.0,0.0,0.0,0.0,0.0,0.0,0.0,0.0,0.0,0.0,0.0,0.0,0.0,0.0,0.0,0.0,0.0,0.0,0.0,0.0,0.0,0.0,0.0,0.0,0.0,0.0,0.0,0.0,0.0,0.0,0.0,0.0,0.0,0.0,0.0,0.0,0.0,0.0,0.0,0.0,0.0,0.0,0.0,0.0,0.0,0.0,0.0,0.0,0.0,0.0,0.0,0.0,0.0,0.0,0.0,0.0,0.0,0.0,0.0,0.0,0.0,0.0,0.0,0.0,0.0,0.0,0.0,0.0,0.0,0.0,0.0,0.0,0.0,0.6363,0.6514,0.6591,0.6602,0.6602,0.6591,0.0,0.0,0.0,0.0,0.0,0.0,0.0,0.0,0.0,0.0,0.0,0.0,0.0,0.0,0.0,0.0,0.0,0.0,0.0,0.0,0.0,0.0,0.0,0.0,0.0,0.0,0.0,0.0,0.0,0.0,0.0,0.0,0.0,0.0,0.0,0.0,0.0,0.0,0.0,0.0,0.0,0.0,0.0,0.0,0.0,0.0,0.0,0.0,0.0,0.0,0.0,0.0,0.0,0.0,0.0,0.0,0.0,0.0,0.0,0.0,0.0,0.0,0.0,0.0,0.0,0.0,0.0,0.0,0.0,0.0,0.0,0.0,0.0,0.0,0.0,0.0,0.0,0.0,0.0,0.0,0.0,0.0,0.0,0.0,0.0,0.0,0.0,0.0,0.0,0.0,0.0,0.0,0.0,0.0,0.0,0.0,0.0,0.0,0.0,0.0,0.0,0.0,0.0,0.0,0.0,0.0,0.0,0.0,0.6374,0.6586,0.68,0.7044,0.7052,0.7066,0.0,0.0,0.0,0.0,0.0,0.0,0.0,0.0,0.0,0.0,0.0,0.0,0.0,0.0,0.0,0.0,0.0,0.0,0.0,0.0,0.0,0.0,0.0,0.0,0.0,0.0,0.0,0.0,0.0,0.0,0.0,0.0,0.0,0.0,0.0,0.0,0.0,0.0,0.0,0.0,0.0,0.0,0.0,0.0,0.0,0.0,0.0,0.0,0.0,0.0,0.0,0.0,0.0,0.0,0.0,0.0,0.0,0.0,0.0,0.0,0.0,0.0,0.0,0.0,0.0,0.0,0.0,0.0,0.0,0.0,0.0,0.0,0.0,0.0,0.0,0.0,0.0,0.0,0.0,0.0,0.0,0.0,0.0,0.0,0.0,0.0,0.0,0.0,0.0,0.0,0.0,0.0,0.0,0.0,0.0,0.0,0.0,0.0,0.0,0.0,0.0,0.0,0.0,0.0,0.0,0.0,0.0,0.0,0.0,0.6609,0.6972,0.7133,0.7109,0.7222,0.7246,0.0,0.0,0.0,0.0,0.0,0.0,0.0,0.0,0.0,0.0,0.0,0.0,0.0,0.0,0.0,0.0,0.0,0.0,0.0,0.0,0.0,0.0,0.0,0.0,0.0,0.0,0.0,0.0,0.0,0.0,0.0,0.0,0.0,0.0,0.0,0.0,0.0,0.0,0.0,0.0,0.0,0.0,0.0,0.0,0.0,0.0,0.0,0.0,0.0,0.0,0.0,0.0,0.0,0.0,0.0,0.0,0.0,0.0,0.0,0.0,0.0,0.0,0.0,0.0,0.0,0.0,0.0,0.0,0.0,0.0,0.0,0.0,0.0,0.0,0.0,0.0,0.0,0.0,0.0,0.0,0.0,0.0,0.0,0.0,0.0,0.0,0.0,0.0,0.0,0.0,0.0,0.0,0.0,0.0,0.0,0.0,0.0,0.0,0.0,0.0,0.0,0.0,0.0,0.0,0.0,0.0,0.0,0.0,0.0,0.6937,0.0,0.7455,0.7346,0.7444,0.7422,0.0,0.0,0.0,0.0,0.0,0.0,0.0,0.0,0.0,0.0,0.0,0.0,0.0,0.0,0.0,0.0,0.0,0.0,0.0,0.0,0.0,0.0,0.0,0.0,0.0,0.0,0.0,0.0,0.0,0.0,0.0,0.0,0.0,0.0,0.0,0.0,0.0,0.0,0.0,0.0,0.0,0.0,0.0,0.0,0.0,0.0,0.0,0.0,0.0,0.0,0.0,0.0,0.0,0.0,0.0,0.0,0.0,0.0,0.0,0.0,0.0,0.0,0.0,0.0,0.0,0.0,0.0,0.0,0.0,0.0,0.0,0.0,0.0,0.0,0.0,0.0,0.0,0.0,0.0,0.0,0.0,0.0,0.0,0.0,0.0,0.0,0.0,0.0,0.0,0.0,0.0,0.0,0.0,0.0,0.0,0.0,0.0,0.0,0.0,0.0,0.0,0.0,0.0,0.0,0.0,0.0,0.0,0.0,0.6983,0.7398,0.7684,0.7813,0.7806,0.7817,0.7684,0.0,0.0,0.0,0.0,0.0,0.0,0.0,0.0,0.0,0.0,0.0,0.0,0.0,0.0,0.0,0.0,0.0,0.0,0.0,0.0,0.0,0.0,0.0,0.0,0.0,0.0,0.0,0.0,0.0,0.0,0.0,0.0,0.0,0.0,0.0,0.0,0.0,0.0,0.0,0.0,0.0,0.0,0.0,0.0,0.0,0.0,0.0,0.0,0.0,0.0,0.0,0.0,0.0,0.0,0.0,0.0,0.0,0.0,0.0,0.0,0.0,0.0,0.0,0.0,0.0,0.0,0.0,0.0,0.0,0.0,0.0,0.0,0.0,0.0,0.0,0.0,0.0,0.0,0.0,0.0,0.0,0.0,0.0,0.0,0.0,0.0,0.0,0.0,0.0,0.0,0.0,0.0,0.0,0.0,0.0,0.0,0.0,0.0,0.0,0.0,0.0,0.0,0.0,0.0,0.0,0.0,0.0,0.0,0.0,0.7961,0.8355,0.8452,0.8301,0.8275,0.8199,0.0,0.0,0.0,0.0,0.0,0.0,0.0,0.0,0.0,0.0,0.0,0.0,0.0,0.0,0.0,0.0,0.0,0.0,0.0,0.0,0.0,0.0,0.0,0.0,0.0,0.0,0.0,0.0,0.0,0.0,0.0,0.0,0.0,0.0,0.0,0.0,0.0,0.0,0.0,0.0,0.0,0.0,0.0,0.0,0.0,0.0,0.0,0.0,0.0,0.0,0.0,0.0,0.0,0.0,0.0,0.0,0.0,0.0,0.0,0.0,0.0,0.0,0.0,0.0,0.0,0.0,0.0,0.0,0.0,0.0,0.0,0.0,0.0,0.0,0.0,0.0,0.0,0.0,0.0,0.0,0.0,0.0,0.0,0.0,0.0,0.0,0.0,0.0,0.0,0.0,0.0,0.0,0.0,0.0,0.0,0.0,0.0,0.0,0.0,0.0,0.0,0.0,0.0,0.0,0.0,0.0,0.0,0.0,0.0,0.9253,0.943,0.9446,0.9285,0.9179,0.8986,0.8692,0.0,0.0,0.0,0.0,0.0,0.0,0.0,0.0,0.0,0.0,0.0,0.0,0.0,0.0,0.0,0.0,0.0,0.0,0.0,0.0,0.0,0.0,0.0,0.0,0.0,0.0,0.0,0.0,0.0,0.0,0.0,0.0,0.0,0.0,0.0,0.0,0.0,0.0,0.0,0.0,0.0,0.0,0.0,0.0,0.0,0.0,0.0,0.0,0.0,0.0,0.0,0.0,0.0,0.0,0.0,0.0,0.0,0.0,0.0,0.0,0.0,0.0,0.0,0.0,0.0,0.0,0.0,0.0,0.0,0.0,0.0,0.0,0.0,0.0,0.0,0.0,0.0,0.0,0.0,0.0,0.0,0.0,0.0,0.0,0.0,0.0,0.0,0.0,0.0,0.0,0.0,0.0,0.0,0.0,0.0,0.0,0.0,0.0,0.0,0.0,0.0,0.0,0.0,0.0,0.0,0.0,0.0,0.0,1.1078,1.0873,1.0735,1.0609,1.0368,1.0041,0.0,0.0,0.0,0.0,0.0,0.0,0.0,0.0,0.0,0.0,0.0,0.0,0.0,0.0,0.0,0.0,0.0,0.0,0.0,0.0,0.0,0.0,0.0,0.0,0.0,0.0,0.0,0.0,0.0,0.0,0.0,0.0,0.0,0.0,0.0,0.0,0.0,0.0,0.0,0.0,0.0,0.0,0.0,0.0,0.0,0.0,0.0,0.0,0.0,0.0,0.0,0.0,0.0,0.0,0.0,0.0,0.0,0.0,0.0,0.0,0.0,0.0,0.0,0.0,0.0,0.0,0.0,0.0,0.0,0.0,0.0,0.0,0.0,0.0,0.0,0.0,0.0,0.0,0.0,0.0,0.0,0.0,0.0,0.0,0.0,0.0,0.0,0.0,0.0,0.0,0.0,0.0,0.0,0.0,0.0,0.0,0.0,0.0,0.0,0.0,0.0,0.0,0.0,0.0,0.0,0.0,0.0,0.0,0.0,1.2019,1.2497,1.2223,1.1172,1.0916,1.0647,0.0,0.0,0.0,0.0,0.0,0.0,0.0,0.0,0.0,0.0,0.0,0.0,0.0,0.0,0.0,0.0,0.0,0.0,0.0,0.0,0.0,0.0,0.0,0.0,0.0,0.0,0.0,0.0,0.0,0.0,0.0,0.0,0.0,0.0,0.0,0.0,0.0,0.0,0.0,0.0,0.0,0.0,0.0,0.0,0.0,0.0,0.0,0.0,0.0,0.0,0.0,0.0,0.0,0.0,0.0,0.0,0.0,0.0,0.0,0.0,0.0,0.0,0.0,0.0,0.0,0.0,0.0,0.0,0.0,0.0,0.0,0.0,0.0,0.0,0.0,0.0,0.0,0.0,0.0,0.0,0.0,0.0,0.0,0.0,0.0,0.0,0.0,0.0,0.0,0.0,0.0,0.0,0.0,0.0,0.0,0.0,0.0,0.0,0.0,0.0,0.0,0.0,0.0,0.0,0.0,0.0,0.0,0.0,1.2263,1.284,1.3261,1.3084,1.2242,1.1899,1.1543,0.0,0.0,0.0,0.0,0.0,0.0,0.0,0.0,0.0,0.0,0.0,0.0,0.0,0.0,0.0,0.0,0.0,0.0,0.0,0.0,0.0,0.0,0.0,0.0,0.0,0.0,0.0,0.0,0.0,0.0,0.0,0.0,0.0,0.0,0.0,0.0,0.0,0.0,0.0,0.0,0.0,0.0,0.0,0.0,0.0,0.0,0.0,0.0,0.0,0.0,0.0,0.0,0.0,0.0,0.0,0.0,0.0,0.0,0.0,0.0,0.0,0.0,0.0,0.0,0.0,0.0,0.0,0.0,0.0,0.0,0.0,0.0,0.0,0.0,0.0,0.0,0.0,0.0,0.0,0.0,0.0,0.0,0.0,0.0,0.0,0.0,0.0,0.0,0.0,0.0,0.0,0.0,0.0,0.0,0.0,0.0,0.0,0.0,0.0,0.0,0.0,0.0,0.0,0.0,0.0,0.0,0.0,0.0,1.2822,1.3557,1.3652,1.3664,1.3628,1.3085,1.2521,0.0,0.0,0.0,0.0,0.0,0.0,0.0,0.0,0.0,0.0,0.0,0.0,0.0,0.0,0.0,0.0,0.0,0.0,0.0,0.0,0.0,0.0,0.0,0.0,0.0,0.0,0.0,0.0,0.0,0.0,0.0,0.0,0.0,0.0,0.0,0.0,0.0,0.0,0.0,0.0,0.0,0.0,0.0,0.0,0.0,0.0,0.0,0.0,0.0,0.0,0.0,0.0,0.0,0.0,0.0,0.0,0.0,0.0,0.0,0.0,0.0,0.0,0.0,0.0,0.0,0.0,0.0,0.0,0.0,0.0,0.0,0.0,0.0,0.0,0.0,0.0,0.0,0.0,0.0,0.0,0.0,0.0,0.0,0.0,0.0,0.0,0.0,0.0,0.0,0.0,0.0,0.0,0.0,0.0,0.0,0.0,0.0,0.0,0.0,0.0,0.0,0.0,0.0,0.0,0.0,0.0,0.0,0.0,1.3749,1.4123,1.4521,1.4666,1.4437,1.3714,1.3063,0.0,0.0,0.0,0.0,0.0,0.0,0.0,0.0,0.0,0.0,0.0,0.0,0.0,0.0,0.0,0.0,0.0,0.0,0.0,0.0,0.0,0.0,0.0,0.0,0.0,0.0,0.0,0.0,0.0,0.0,0.0,0.0,0.0,0.0,0.0,0.0,0.0,0.0,0.0,0.0,0.0,0.0,0.0,0.0,0.0,0.0,0.0,0.0,1.4345,0.0,0.0,0.0,0.0,0.0,0.0,0.0,0.0,0.0,0.0,0.0,0.0,0.0,0.0,0.0,0.0,0.0,0.0,0.0,0.0,0.0,0.0,0.0,0.0,0.0,0.0,0.0,0.0,0.0,0.0,0.0,0.0,0.0,0.0,0.0,0.0,0.0,0.0,0.0,0.0,0.0,0.0,0.0,0.0,0.0,0.0,0.0,0.0,0.0,0.0,0.0,0.0,0.0,0.0,0.0,0.0,0.0,0.0,0.0,1.428,1.4666,1.4956,1.504,1.4896,1.434,1.3713,0.0,0.0,0.0,0.0,0.0,0.0,0.0,0.0,0.0,0.0,0.0,0.0,0.0,0.0,0.0,0.0,0.0,0.0,0.0,0.0,0.0,0.0,0.0,0.0,0.0,0.0,0.0,0.0,0.0,0.0,0.0,0.0,0.0,0.0,0.0,0.0,0.0,0.0,0.0,0.0,0.0,0.0,0.0,0.0,0.0,0.0,0.0,0.0,0.0,0.0,0.0,0.0,0.0,0.0,0.0,0.0,0.0,0.0,0.0,0.0,0.0,0.0,0.0,0.0,0.0,0.0,0.0,0.0,0.0,0.0,0.0,0.0,0.0,0.0,0.0,0.0,0.0,0.0,0.0,0.0,0.0,0.0,0.0,0.0,0.0,0.0,0.0,0.0,0.0,0.0,0.0,0.0,0.0,0.0,0.0,0.0,0.0,0.0,0.0,0.0,0.0,0.0,0.0,0.0,0.0,0.0,0.0,1.4015,1.4727,1.5197,1.5221,1.5221,1.5196,1.4955,1.4316,1.3256,0.0,0.0,0.0,0.0,0.0,0.0,0.0,0.0,0.0,0.0,0.0,0.0,0.0,0.0,0.0,0.0,0.0,0.0,0.0,0.0,0.0,0.0,0.0,0.0,0.0,0.0,0.0,0.0,0.0,0.0,0.0,0.0,0.0,0.0,0.0,0.0,0.0,0.0,1.3306,1.4663,0.0,0.0,0.0,0.0,0.0,0.0,0.0,0.0,1.6075,0.0,0.0,0.0,0.0,0.0,0.0,0.0,0.0,0.0,0.0,0.0,0.0,0.0,0.0,0.0,0.0,0.0,0.0,0.0,0.0,0.0,0.0,0.0,0.0,0.0,0.0,0.0,0.0,0.0,0.0,0.0,0.0,0.0,0.0,0.0,0.0,0.0,0.0,0.0,0.0,0.0,0.0,0.0,0.0,0.0,0.0,0.0,0.0,0.0,0.0,0.0,0.0,0.0,0.0,0.0,0.0,1.3424,1.4666,1.5451,1.5753,1.5765,1.5765,1.5753,1.5511,1.4871,1.3809,0.0,0.0,0.0,0.0,0.0,0.0,0.0,0.0,0.0,0.0,0.0,0.0,0.0,0.0,0.0,0.0,0.0,0.0,0.0,0.0,0.0,0.0,0.0,0.0,0.0,0.0,0.0,0.0,0.0,0.0,0.0,0.0,0.0,0.0,0.0,0.0,0.0,0.0,0.0,1.6651,1.7467,0.0,0.0,0.0,0.0,0.0,0.0,0.0,0.0,1.7472,0.0,0.0,0.0,0.0,0.0,0.0,0.0,0.0,0.0,0.0,0.0,0.0,0.0,0.0,0.0,0.0,0.0,0.0,0.0,0.0,0.0,0.0,0.0,0.0,0.0,0.0,0.0,0.0,0.0,0.0,0.0,0.0,0.0,0.0,0.0,0.0,0.0,0.0,0.0,0.0,0.0,0.0,0.0,0.0,0.0,0.0,0.0,0.0,0.0,0.0,0.0,0.0,0.0,0.0,0.0,1.4111,1.5173,1.5837,1.6103,1.6247,1.6235,1.6118,1.5837,1.5197,0.0,0.0,0.0,0.0,0.0,0.0,0.0,0.0,0.0,0.0,0.0,0.0,0.0,0.0,0.0,0.0,0.0,0.0,0.0,0.0,0.0,0.0,0.0,0.0,0.0,0.0,0.0,0.0,0.0,0.0,0.0,0.0,0.0,0.0,0.0,0.0,0.0,0.0,0.0,0.0,1.7739,1.8489,1.8837,0.0,0.0,0.0,0.0,0.0,0.0,1.8975,1.8638,0.0,0.0,0.0,0.0,0.0,0.0,0.0,0.0,0.0,0.0,0.0,0.0,0.0,0.0,0.0,0.0,0.0,0.0,0.0,0.0,0.0,0.0,0.0,0.0,0.0,0.0,0.0,0.0,0.0,0.0,0.0,0.0,0.0,0.0,0.0,0.0,0.0,0.0,0.0,0.0,0.0,0.0,0.0,0.0,0.0,0.0,0.0,0.0,0.0,0.0,0.0,0.0,0.0,0.0,0.0,1.4738,1.5572,1.6154,1.6453,1.6622,1.6622,1.6468,1.6166,1.5499,0.0,0.0,0.0,0.0,0.0,0.0,0.0,0.0,0.0,0.0,0.0,0.0,0.0,0.0,0.0,0.0,0.0,0.0,0.0,0.0,0.0,0.0,0.0,0.0,0.0,0.0,0.0,0.0,0.0,0.0,0.0,0.0,0.0,0.0,0.0,0.0,0.0,0.0,0.0,0.0,0.0,1.9265,1.9811,1.9911,0.0,0.0,0.0,0.0,1.9737,1.9913,0.0,0.0,0.0,0.0,0.0,0.0,0.0,0.0,0.0,0.0,0.0,0.0,0.0,0.0,0.0,0.0,0.0,0.0,0.0,0.0,0.0,0.0,0.0,0.0,0.0,0.0,0.0,0.0,0.0,0.0,0.0,0.0,0.0,0.0,0.0,0.0,0.0,0.0,0.0,0.0,0.0,0.0,0.0,0.0,0.0,0.0,0.0,0.0,0.0,0.0,0.0,0.0,0.0,0.0,0.0,0.0,1.504,1.5864,1.6517,1.696,1.6831,1.6819,1.6984,1.6501,1.5876,0.0,0.0,0.0,0.0,0.0,0.0,0.0,0.0,0.0,0.0,0.0,0.0,0.0,0.0,0.0,0.0,0.0,0.0,0.0,0.0,0.0,0.0,0.0,0.0,0.0,0.0,0.0,0.0,0.0,0.0,0.0,0.0,0.0,0.0,0.0,0.0,0.0,0.0,0.0,0.0,0.0,1.9872,2.0791,2.0945,2.1057,0.0,0.0,2.1364,2.1042,2.1013,0.0,0.0,0.0,0.0,0.0,0.0,0.0,0.0,0.0,0.0,0.0,0.0,0.0,0.0,0.0,0.0,0.0,0.0,0.0,0.0,0.0,0.0,0.0,0.0,0.0,0.0,0.0,0.0,0.0,0.0,0.0,0.0,0.0,0.0,0.0,0.0,0.0,0.0,0.0,0.0,0.0,0.0,0.0,0.0,0.0,0.0,0.0,0.0,0.0,0.0,0.0,0.0,0.0,0.0,0.0,1.4485,1.5547,1.6505,1.708,1.731,1.7503,1.7515,1.731,1.708,1.638,0.0,0.0,0.0,0.0,0.0,0.0,0.0,0.0,0.0,0.0,0.0,0.0,0.0,0.0,0.0,0.0,0.0,0.0,0.0,0.0,0.0,0.0,0.0,0.0,0.0,0.0,0.0,0.0,0.0,0.0,0.0,0.0,0.0,0.0,0.0,0.0,0.0,0.0,0.0,0.0,0.0,0.0,2.1201,2.1401,0.0,0.0,0.0,2.195,2.1789,0.0,0.0,0.0,0.0,0.0,0.0,0.0,0.0,0.0,0.0,0.0,0.0,0.0,0.0,0.0,0.0,0.0,0.0,0.0,0.0,0.0,0.0,0.0,0.0,0.0,0.0,0.0,0.0,0.0,0.0,0.0,0.0,0.0,0.0,0.0,0.0,0.0,0.0,0.0,0.0,0.0,0.0,0.0,0.0,0.0,0.0,0.0,0.0,0.0,0.0,0.0,0.0,0.0,0.0,0.0,0.0,0.0,1.6079,1.7008,1.7587,1.7793,1.8179,1.8203,1.7805,1.766,0.0,0.0,0.0,0.0,0.0,0.0,0.0,0.0,0.0,0.0,0.0,0.0,0.0,0.0,0.0,0.0,0.0,0.0,0.0,0.0,0.0,0.0,0.0,0.0,0.0,0.0,0.0,1.211,0.0,0.0,0.0,0.0,0.0,0.0,0.0,0.0,0.0,0.0,0.0,0.0,0.0,0.0,1.9866,2.1405,2.1789,2.2049,0.0,0.0,2.2506,2.2432,2.214,2.1686,0.0,0.0,0.0,0.0,0.0,0.0,0.0,0.0,0.0,0.0,0.0,0.0,0.0,0.0,0.0,0.0,0.0,0.0,0.0,0.0,0.0,0.0,0.0,0.0,0.0,0.0,0.0,0.0,0.0,0.0,0.0,0.0,0.0,0.0,0.0,0.0,0.0,0.0,0.0,0.0,0.0,0.0,0.0,0.0,0.0,0.0,0.0,0.0,0.0,0.0,0.0,0.0,0.0,0.0,1.5077,1.6598,1.7201,1.7883,1.8596,1.8669,1.8669,1.8633,1.8149,1.7484,0.0,0.0,0.0,0.0,0.0,0.0,0.0,0.0,0.0,0.0,0.0,0.0,0.0,0.0,0.0,0.0,0.0,0.0,0.0,0.0,0.0,0.0,0.0,0.0,0.0,0.0,0.0,0.0,0.0,0.0,0.0,0.0,0.0,0.0,0.0,0.0,0.0,0.0,0.0,0.0,0.0,1.9878,2.1461,2.218,2.2651,0.0,2.331,2.3398,2.3091,2.2738,2.2212,2.1306,0.0,0.0,0.0,0.0,0.0,0.0,0.0,0.0,0.0,0.0,0.0,0.0,0.0,0.0,0.0,0.0,0.0,0.0,0.0,0.0,0.0,0.0,0.0,0.0,0.0,0.0,0.0,0.0,0.0,0.0,0.0,0.0,0.0,0.0,0.0,0.0,0.0,0.0,0.0,0.0,0.0,0.0,0.0,0.0,0.0,0.0,0.0,0.0,0.0,0.0,0.0,0.0,0.0,1.5936,1.7194,1.8052,1.8645,1.8959,1.9253,1.937,1.9201,1.8838,1.827,0.0,0.0,0.0,0.0,0.0,0.0,0.0,0.0,0.0,0.0,0.0,0.0,0.0,0.0,0.0,0.0,0.0,0.0,0.0,0.0,0.0,0.0,0.0,0.0,0.0,0.0,0.0,0.0,1.561,1.6134,1.6084,0.0,0.0,0.0,0.0,0.0,0.0,0.0,0.0,0.0,0.0,1.9986,2.1711,2.2151,0.0,0.0,2.3138,2.3271,2.3335,2.2952,2.2552,2.2402,2.1482,0.0,0.0,0.0,0.0,0.0,0.0,0.0,0.0,0.0,0.0,0.0,0.0,0.0,0.0,0.0,0.0,0.0,0.0,0.0,0.0,0.0,0.0,0.0,0.0,0.0,0.0,0.0,0.0,0.0,0.0,0.0,0.0,0.0,0.0,0.0,0.0,0.0,0.0,0.0,0.0,0.0,0.0,0.0,0.0,0.0,0.0,0.0,0.0,0.0,0.0,0.0,0.0,1.6622,1.7829,1.8693,1.9225,1.9467,1.9842,1.9938,1.9745,1.9406,1.8886,0.0,0.0,0.0,0.0,0.0,0.0,0.0,0.0,0.0,0.0,0.0,0.0,0.0,0.0,0.0,0.0,0.0,0.0,0.0,0.0,0.0,0.0,0.0,0.0,0.0,0.0,0.0,0.0,1.6437,1.6738,1.6445,0.0,0.0,0.0,0.0,0.0,0.0,0.0,0.0,0.0,0.0,2.0328,2.1763,2.2183,2.2517,2.2934,2.3069,2.3234,2.3464,2.3057,2.28,2.3046,0.0,0.0,0.0,0.0,0.0,0.0,0.0,0.0,0.0,0.0,0.0,0.0,0.0,0.0,0.0,0.0,0.0,0.0,0.0,0.0,0.0,0.0,0.0,0.0,0.0,0.0,0.0,1.1472,0.0,0.0,1.0448,0.0,0.0,0.0,0.0,0.0,0.0,0.0,0.0,0.0,0.0,0.0,0.0,0.0,0.0,0.0,0.0,0.0,0.0,0.0,0.0,0.0,0.0,1.7064,1.8638,1.8963,1.947,2.0219,2.0267,2.0313,2.0255,1.9781,1.9249,1.8705,0.0,0.0,0.0,0.0,0.0,0.0,0.0,0.0,0.0,0.0,0.0,0.0,0.0,0.0,0.0,0.0,0.0,0.0,0.0,0.0,0.0,0.0,0.0,0.0,0.0,0.0,1.7422,1.7345,1.708,0.0,0.0,0.0,0.0,0.0,0.0,0.0,0.0,0.0,1.9627,2.0274,2.0904,2.1538,2.2413,2.2941,2.3002,2.327,2.3504,2.347,2.3205,2.3014,0.0,0.0,0.0,0.0,0.0,0.0,0.0,0.0,0.0,0.0,0.0,0.0,0.0,0.0,0.0,0.0,0.0,0.0,0.0,0.0,0.0,0.0,0.0,0.0,0.0,0.0,0.0,1.3138,1.3043,0.0,0.0,0.0,0.0,0.0,0.0,0.0,0.0,0.0,0.0,0.0,1.5335,1.5415,0.0,0.0,0.0,0.0,0.0,0.0,0.0,0.0,0.0,0.0,0.0,0.0,1.7441,1.8471,1.9054,1.9483,1.9773,2.0391,2.071,2.0698,2.0441,1.9878,1.9007,0.0,0.0,0.0,0.0,0.0,0.0,0.0,0.0,0.0,0.0,0.0,0.0,0.0,0.0,0.0,0.0,0.0,0.0,0.0,0.0,0.0,0.0,0.0,0.0,0.0,1.7181,0.0,0.0,0.0,0.0,0.0,0.0,0.0,0.0,0.0,0.0,0.0,1.9146,1.9598,2.0172,2.0832,2.1579,2.2086,2.2462,0.0,0.0,0.0,0.0,0.0,0.0,0.0,0.0,0.0,0.0,0.0,0.0,0.0,0.0,2.016,1.9662,1.9743,1.9889,1.9916,0.0,0.0,0.0,0.0,0.0,0.0,0.0,0.0,0.0,0.0,0.0,0.0,0.0,0.0,1.4484,0.0,1.3854,0.0,0.0,0.0,0.0,0.0,0.0,0.0,0.0,1.5633,1.5967,1.613,1.613,1.625,0.0,1.6254,1.5596,0.0,0.0,0.0,0.0,0.0,0.0,0.0,0.0,1.8003,1.8776,1.9358,1.97,1.9791,2.0386,2.0693,2.0693,2.0556,2.0153,1.9386,1.8705,1.8004,0.0,0.0,0.0,0.0,0.0,0.0,0.0,0.0,0.0,0.0,0.0,0.0,0.0,0.0,0.0,0.0,0.0,0.0,0.0,0.0,0.0,0.0,0.0,1.7966,0.0,0.0,0.0,0.0,0.0,0.0,0.0,0.0,0.0,1.824,1.9201,1.9998,2.0289,2.0729,2.117,2.1697,0.0,0.0,0.0,0.0,0.0,0.0,0.0,2.2897,2.3285,2.3426,2.3377,2.2953,2.2386,2.2025,2.2216,0.0,0.0,2.0972,2.1003,2.1146,2.1146,2.1607,2.2009,2.2141,2.2398,2.2786,0.0,0.0,0.0,0.0,0.0,0.0,0.0,0.0,1.5507,1.5711,0.0,1.4993,0.0,0.0,0.0,0.0,1.422,1.447,0.0,0.0,1.5521,1.5761,1.6195,1.6205,1.6325,1.6502,1.6536,1.6492,1.6489,1.6419,0.0,0.0,0.0,0.0,0.0,0.0,1.8687,1.94,1.9683,1.9993,2.0256,2.0279,2.0315,2.0318,2.0215,2.006,1.9862,1.9398,1.8867,1.8324,1.731,0.0,0.0,0.0,0.0,0.0,0.0,0.0,0.0,0.0,0.0,0.0,0.0,0.0,0.0,0.0,0.0,0.0,0.0,0.0,0.0,1.8734,0.0,0.0,0.0,0.0,0.0,0.0,0.0,0.0,0.0,0.0,1.9442,2.0441,2.1276,2.1565,0.0,0.0,0.0,0.0,2.145,2.1438,2.1426,2.1486,2.1462,2.1787,2.2148,2.2483,0.0,0.0,2.2669,2.2685,2.2672,2.272,2.2672,2.2599,2.213,2.2013,2.2048,2.2093,2.2376,2.2697,2.3004,2.3359,2.373,1.7283,0.0,0.0,0.0,0.0,1.6738,1.6631,1.6119,1.6409,1.6414,1.6171,1.5555,0.0,0.0,0.0,0.0,0.0,0.0,1.5371,1.5585,1.5761,1.6015,1.6272,1.6272,1.6453,1.6787,1.6797,1.6873,1.7006,1.6988,1.6827,1.6604,0.0,0.0,0.0,0.0,1.8201,1.8555,1.8988,1.9369,1.9773,2.0212,2.0553,2.0817,2.0633,2.0211,1.9611,1.9535,1.9208,1.8467,1.805,0.0,0.0,0.0,0.0,0.0,0.0,0.0,0.0,0.0,0.0,0.0,0.0,0.0,0.0,0.0,0.0,0.0,0.0,0.0,1.886,1.8738,1.8494,0.0,0.0,0.0,0.0,0.0,0.0,0.0,0.0,0.0,1.9297,2.0037,2.0603,0.0,0.0,2.1268,2.1273,2.1793,2.2061,2.1749,2.2132,0.0,2.197,2.2221,2.2469,2.2457,2.2468,2.2534,2.2592,2.2664,2.27,2.27,2.2955,2.3143,2.3034,2.296,2.3036,2.3309,2.3766,2.4212,2.4512,2.5007,2.5494,1.8079,1.7357,1.7324,1.7137,1.6911,1.7314,1.7196,1.672,1.6913,1.6819,1.6453,1.5965,1.5766,1.5766,1.5385,0.0,0.0,0.0,1.5714,1.5804,1.5958,1.6149,1.635,1.6431,1.6632,1.6923,1.7014,1.7123,1.7241,1.7241,1.7108,1.6829,0.0,0.0,1.7216,1.7595,1.7905,1.8194,1.8569,1.902,1.9497,1.9826,2.027,2.0785,2.0515,2.0272,2.0097,1.9899,1.9495,1.8939,1.8624,1.8117,0.0,0.0,0.0,0.0,0.0,0.0,0.0,0.0,0.0,0.0,0.0,1.4676,1.5488,0.0,0.0,0.0,1.8203,1.8954,1.9347,1.9049,0.0,0.0,0.0,0.0,0.0,0.0,0.0,1.7852,1.8349,1.8871,1.9357,1.9862,2.0331,2.0642,2.0841,2.0965,2.0971,0.0,2.1278,2.1082,2.1378,2.1508,2.1293,2.157,2.1811,2.1789,2.185,2.195,2.2015,2.2253,2.245,2.2512,2.2848,2.3225,2.3379,2.3442,2.3538,2.3656,2.4049,2.4501,2.476,2.5203,2.5686,1.8395,1.8116,1.7646,1.7309,1.7066,1.7237,1.7176,1.6917,1.7072,1.6948,1.6532,1.6247,1.589,1.5551,1.5351,0.0,1.5841,1.5821,1.5925,1.6099,1.6099,1.6203,1.6377,1.6559,1.6781,1.6973,1.7147,1.7243,1.7234,1.7234,1.7243,1.7243,1.7187,1.7174,1.7223,1.7486,1.7784,1.8144,1.8385,1.8778,1.9263,1.9302,1.9676,2.0451,1.9992,2.0124,2.0808,2.0275,1.9776,1.9516,1.9061,1.8482,1.7787,0.0,0.0,0.0,0.0,0.0,0.0,0.0,0.0,0.0,0.0,0.0,0.0,0.0,0.0,1.8381,1.9027,0.0,1.9504,1.9453,0.0,0.0,0.0,1.824,1.7876,1.8056,1.8223,1.8263,0.0,0.0,1.9554,1.9884,2.021,2.0611,2.0773,2.0869,2.0848,2.0263,1.9826,2.0098,1.9927,1.9876,2.0303,2.0529,2.0762,2.0926,2.0975,2.1147,2.1215,2.1653,2.2026,2.2049,2.2416,2.2881,2.326,2.3464,2.365,2.3428,2.3745,2.4074,2.4392,2.4723,2.5235,1.8012,1.7947,1.7508,1.7358,1.7414,1.7657,1.7374,1.6749,1.6796,1.6599,1.6223,1.6157,1.6115,1.618,1.5958,1.5968,1.6157,1.6028,1.599,1.6031,1.6031,1.6122,1.6336,1.6386,1.6502,1.6675,1.6767,1.675,1.6792,1.675,1.6824,1.6905,1.691,1.7024,1.727,1.7511,1.765,1.7732,1.7971,1.8454,1.9193,1.9214,1.9483,1.9997,1.9618,1.9572,1.9932,2.0,1.9931,1.9665,1.9795,1.9619,1.9061,1.8346,0.0,0.0,0.0,0.0,0.0,0.0,0.0,0.0,0.0,1.6812,1.7896,0.0,1.8728,0.0,1.9036,1.9065,1.947,1.9111,0.0,0.0,1.8314,1.8289,1.826,1.8346,1.846,1.8777,1.9029,1.9221,1.9343,1.9255,1.9306,1.9557,2.0232,2.0604,2.048,2.0901,2.0998,2.0726,2.0935,2.1329,2.1145,2.109,2.1023,2.112,2.1134,2.1155,2.1187,2.1432,2.161,2.1652,2.1911,2.2264,2.2743,2.2849,2.3011,2.3324,2.4287,2.5136,2.5239,2.5753,2.6245,1.7981,1.7909,1.7748,1.7586,1.7356,1.7569,1.7374,1.698,1.6941,1.6753,1.6358,1.616,1.6182,1.6351,1.6218,1.6286,1.6427,1.6366,1.6363,1.6371,1.6444,1.6568,1.6665,1.6747,1.6836,1.6942,1.7015,1.7055,1.7055,1.7055,1.706,1.7157,1.7157,1.723,1.7407,1.7417,1.7477,1.769,1.7965,1.8326,1.8749,1.874,1.8907,1.926,1.9108,1.9105,1.9411,1.9805,1.9905,1.9676,2.0028,1.987,1.9227,1.8752,1.8056,0.0,0.0,0.0,0.0,0.0,0.0,0.0,0.0,0.0,0.0,0.0,1.9041,1.9703,1.9351,1.9274,1.9614,1.9364,1.8985,1.8499,1.8428,1.8351,1.8215,1.8192,1.8284,1.8504,1.8687,1.88,1.8919,1.8967,1.8999,1.9106,1.954,1.983,1.9759,2.005,2.0242,2.0114,2.0285,2.0572,2.0756,2.0803,2.0744,2.0778,2.0884,2.0955,2.0955,2.1373,2.1675,2.1728,2.2027,2.2404,2.2679,2.2862,2.3014,2.3345,2.4141,2.481,2.5046,2.5504,2.5858,1.7975,1.7837,1.7888,1.7595,1.7067,1.7137,1.7149,1.7228,1.7212,1.7064,1.6709,1.6303,1.6242,1.6438,1.6446,1.6544,1.6722,1.6833,1.6914,1.6922,1.7068,1.7177,1.7141,1.7348,1.7421,1.7429,1.7522,1.7595,1.7595,1.7619,1.7643,1.766,1.7692,1.7708,1.7716,1.7469,1.7468,1.78,1.8119,1.8287,1.8226,1.8191,1.8302,1.8463,1.8528,1.8736,1.9099,1.9494,1.9645,1.9497,1.9776,1.9605,1.8837,1.8748,1.8265,0.0,1.6845,0.0,0.0,0.0,0.0,0.0,0.0,0.0,0.0,1.8731,1.9157,1.9855,1.9594,1.9478,1.9619,1.9625,1.933,1.8603,1.8518,1.8376,1.8039,1.7971,1.7989,1.8032,1.8339,1.8541,1.8602,1.875,1.8905,1.8923,1.8869,1.8914,1.8912,1.8925,1.9016,1.9022,1.8925,1.9374,1.9816,2.0076,2.0198,2.0233,2.04,2.0554,2.0533,2.112,2.1596,2.1635,2.2017,2.2493,2.263,2.287,2.3055,2.3094,2.3484,2.3871,2.4219,2.4583,2.4844,1.7371,1.7286,1.6724,1.6437,1.6309,1.6338,1.6482,1.674,1.6846,1.6951,1.6996,1.6909,1.7006,1.7177,1.7185,1.7274,1.7392,1.7433,1.7449,1.7449,1.7481,1.7497,1.7497,1.753,1.7546,1.7554,1.7578,1.7595,1.7603,1.7749,1.7932,1.807,1.8225,1.8371,1.8461,0.0,0.0,0.0,1.7796,1.7931,1.8256,1.8112,1.8207,1.8496,1.8361,0.0,1.8619,1.8597,1.8661,1.8786,1.8684,0.0,0.0,0.0,0.0,0.0,0.0,0.0,0.0,0.0,0.0,0.0,1.7059,1.7734,1.8904,1.9111,1.9062,1.888,1.848,1.8232,1.8264,1.8273,1.8231,1.8062,1.807,1.81,1.8356,1.8366,1.8471,1.8751,1.8847,1.8891,1.8846,1.8645,1.8522,1.8612,1.8363,1.82,1.8378,1.888,1.9251,1.9332,1.9328,1.9569,1.9818,1.9931,2.0062,2.0156,2.0238,2.0261,2.0281,2.0256,2.0303,2.034,2.0593,2.1048,2.142,2.1675,2.1998,2.2358,2.2515,2.2795,2.3402,2.4152,2.4596,1.7009,1.6887,1.6608,1.6417,0.0,1.6343,1.6431,1.6606,1.6484,1.6491,1.6613,1.6889,1.7071,1.7158,1.7375,1.7514,1.7595,1.7692,1.7827,1.7908,1.7997,1.8087,1.8176,1.8129,1.8176,1.8176,1.8129,1.8129,1.8137,1.8273,1.8363,1.8452,1.8541,1.8639,1.872,1.8728,1.8542,1.8322,1.8178,1.8179,1.8238,1.8139,1.8092,1.8048,1.8042,0.0,0.0,0.0,0.0,0.0,0.0,0.0,0.0,1.8429,0.0,1.7523,1.7176,1.688,1.6564,1.6532,1.6713,1.7115,1.7612,1.8094,1.8529,1.8551,1.8566,1.8542,1.8354,1.826,1.8436,1.8462,1.8375,1.8156,1.8121,1.811,1.8042,1.8085,1.8116,1.8285,1.8403,1.8462,1.8462,1.8363,1.8309,1.8391,1.8185,1.8111,1.8304,1.8625,1.882,1.8968,1.9364,1.9613,1.9699,1.9915,2.0084,2.018,2.0198,2.0198,2.0198,2.0119,2.0057,2.0057,2.0286,2.0571,2.0817,2.1035,2.1225,2.1461,2.1556,2.1726,2.2226,2.3137,2.38,1.6752,1.6601,1.6649,1.6565,1.6401,1.6448,1.6401,1.6426,0.0,0.0,0.0,1.6735,1.6926,1.6972,1.7469,1.7644,1.7706,1.7943,1.8135,1.8282,1.8475,1.8582,1.872,1.8728,1.8728,1.8728,1.8728,1.8728,1.8728,1.8704,1.8769,1.8777,1.8801,1.8818,1.8818,1.8818,1.8818,1.8818,1.8713,1.8582,1.8282,1.8288,1.807,1.77,1.7786,1.7781,1.7783,1.8104,1.8289,1.8289,1.8636,1.8685,1.8361,1.8354,1.8155,1.7633,1.7314,1.7187,1.7242,1.712,1.7188,1.7543,1.8061,1.8235,1.8032,1.7973,1.8096,1.8462,1.84,1.8433,1.8735,1.8725,1.8598,1.8236,1.8191,1.801,1.7726,1.7643,1.7697,1.77,1.7921,1.7981,1.8068,1.8174,1.8241,1.8312,1.8337,1.8361,1.8491,1.8426,1.8433,1.8611,1.9019,1.9336,1.9434,1.9674,1.9971,1.9983,1.9983,2.0014,2.0062,2.0062,2.0062,1.9983,2.0249,2.0465,2.05,2.0623,2.0724,2.0773,2.0746,2.0774,2.109,2.1859,2.2552,1.6606,1.6585,1.6036,1.5787,1.5767,1.5719,1.5719,1.5801,1.6477,1.6857,1.6943,1.7039,1.7086,1.7086,1.7612,1.7851,1.7898,1.836,1.8623,1.8599,1.8671,1.8704,1.8728,1.8728,1.8728,1.8728,1.8728,1.8728,1.8744,1.8883,1.8948,1.8972,1.9102,1.9232,1.9232,1.9232,1.9232,1.9224,1.8883,1.8704,1.8599,1.854,1.8361,1.8111,1.7954,1.782,1.7612,1.7595,1.754,1.7532,1.7428,1.7444,1.7639,1.7827,1.7784,1.7527,1.7611,1.7513,1.7132,1.7077,1.7203,1.7403,1.7624,1.7904,1.8357,1.83,1.829,1.8296,1.7964,1.7764,1.7776,1.7837,1.7854,1.7755,1.7739,1.775,1.7875,1.7854,1.7957,1.8087,1.8166,1.8255,1.8385,1.8442,1.8516,1.8598,1.8606,1.8655,1.8671,1.8671,1.8655,1.868,1.8752,1.8881,1.9101,1.9142,1.9337,1.9404,1.9454,1.9486,1.9478,1.951,1.951,1.9454,1.9797,2.0019,2.0077,2.0325,2.0446,2.0477,2.0381,2.029,2.0408,2.0655,2.1126,1.6452,1.6395,1.6078,1.6001,1.5945,1.5913,1.5879,1.5922,1.6293,1.6397,1.6312,1.6601,1.6739,1.6739,1.7221,1.7606,1.7943,1.8135,1.848,1.8858,1.8866,1.8915,1.9013,1.9013,1.9013,1.9021,1.911,1.9151,1.9167,1.9329,1.9419,1.9427,1.9508,1.9599,1.9599,1.9599,1.9599,1.954,1.9199,1.8964,1.8866,1.8785,1.8655,1.8476,1.8298,1.8119,1.7932,1.777,1.7624,1.7526,1.7445,1.74,1.7549,1.7667,1.7676,1.7549,1.7667,1.7583,1.7396,1.7352,1.7392,1.7518,1.7689,1.7907,1.8332,1.8064,1.7961,1.806,1.7886,1.7835,1.7924,1.8022,1.8079,1.8079,1.8168,1.8218,1.8338,1.8355,1.8387,1.846,1.8476,1.8509,1.859,1.8598,1.8623,1.872,1.8793,1.8866,1.8874,1.8948,1.8972,1.8891,1.8948,1.9037,1.9167,1.9183,1.9224,1.9297,1.9306,1.9314,1.9297,1.924,1.9118,1.9159,1.9355,1.9453,1.9453,1.9674,1.9813,1.9813,1.9771,1.9792,2.0027,2.0319,2.0685,1.6354,1.6354,1.6354,1.6354,1.6347,1.6232,1.6178,1.6185,1.6178,1.6056,1.5894,1.6203,1.6314,1.6362,1.6848,1.7285,1.7672,1.7818,1.8251,1.8898,1.8955,1.9109,1.9362,1.9428,1.9428,1.9444,1.9516,1.9573,1.9597,1.9719,1.9792,1.9792,1.9792,1.9792,1.9792,1.9792,1.9792,1.9776,1.9566,1.9289,1.911,1.9029,1.8915,1.8785,1.8606,1.8491,1.8298,1.8168,1.803,1.7846,1.7843,1.7802,1.7716,1.7757,1.7802,1.7732,1.7797,1.7838,1.7838,1.7838,1.7838,1.7838,1.7967,1.816,1.8257,1.8046,1.7894,1.807,1.8111,1.8168,1.829,1.842,1.8565,1.8573,1.8639,1.8688,1.872,1.8728,1.8728,1.8728,1.8728,1.868,1.8769,1.8785,1.8809,1.8874,1.8964,1.9037,1.9061,1.9224,1.9232,1.9175,1.9216,1.9289,1.9314,1.9306,1.9306,1.9314,1.9314,1.9314,1.9289,1.9134,1.9061,1.9118,1.9061,1.9126,1.9118,1.92,1.933,1.9388,1.9372,1.9429,1.9758,2.0053,2.0444,1.6503,1.6503,1.6503,1.6503,1.6497,1.6476,1.6469,1.6469,1.6476,1.6469,1.6381,1.6207,1.6141,1.6191,1.668,1.697,1.7076,1.7521,1.8057,1.8702,1.8717,1.9062,1.966,1.9735,1.9743,1.9735,1.9752,1.9768,1.9768,1.9792,1.98,1.9792,1.9792,1.9808,1.98,1.98,1.98,1.9792,1.976,1.9654,1.9459,1.9151,1.8972,1.8956,1.8793,1.8648,1.8663,1.8663,1.8639,1.8615,1.8444,1.8345,1.8168,1.8328,1.8345,1.8152,1.8428,1.8575,1.8567,1.8631,1.8551,1.8575,1.8606,1.8583,1.8663,1.8631,1.8623,1.8639,1.8639,1.8623,1.8671,1.8688,1.8704,1.8704,1.8736,1.8728,1.8753,1.8728,1.8728,1.8728,1.8769,1.8737,1.8931,1.8956,1.9021,1.9134,1.9175,1.9199,1.9207,1.9273,1.9306,1.9281,1.9306,1.9306,1.9314,1.9314,1.9314,1.9314,1.9314,1.9314,1.9297,1.9289,1.9281,1.9232,1.9257,1.9257,1.9265,1.9306,1.9306,1.9314,1.9314,1.9314,1.9355,1.9503,1.9758,1.6608,1.6601,1.6608,1.6554,1.6524,1.6517,1.6517,1.6517,1.6517,1.6517,1.651,1.6395,1.6341,1.6341,1.6593,1.6846,1.7149,1.735,1.7791,1.8305,1.8356,1.8698,1.9284,1.9335,1.9487,1.98,1.9898,1.9955,1.9963,2.0044,2.0101,2.0101,2.0101,2.0101,2.0101,2.0101,2.0101,2.0101,2.0003,1.9914,1.98,1.9475,1.9297,1.9281,1.9126,1.898,1.8891,1.8874,1.8834,1.8736,1.8655,1.8582,1.8501,1.8574,1.8582,1.8509,1.8639,1.8728,1.8728,1.8728,1.8728,1.8728,1.8728,1.8769,1.8866,1.8874,1.8915,1.8996,1.885,1.8728,1.8688,1.8809,1.8883,1.8891,1.8972,1.9037,1.9045,1.9037,1.9037,1.9045,1.9045,1.9061,1.9126,1.9192,1.9224,1.9297,1.9314,1.9314,1.9314,1.9314,1.9314,1.9314,1.9314,1.9314,1.9314,1.9314,1.9314,1.9314,1.9314,1.9314,1.9322,1.9314,1.9306,1.9322,1.9322,1.9322,1.9297,1.9314,1.9314,1.9314,1.9314,1.9314,1.9314,1.9314,1.9503,1.6549,1.6549,1.6711,1.6696,1.6646,1.6646,1.6646,1.6646,1.6646,1.6646,1.6646,1.6646,1.6646,1.6639,1.6564,1.6728,1.7035,1.7093,1.742,1.7909,1.7961,1.8297,1.8855,1.9068,1.9324,1.9699,2.0017,2.0125,2.0185,2.0247,2.0268,2.0268,2.0268,2.0268,2.0268,2.0268,2.0268,2.0304,2.019,2.0185,2.0136,1.9825,1.9638,1.9581,1.9419,1.9264,1.9134,1.9086,1.9004,1.8874,1.8826,1.8793,1.8801,1.8793,1.8818,1.8866,1.8874,1.8874,1.8874,1.8874,1.8874,1.8874,1.8866,1.8923,1.9029,1.9061,1.9167,1.9257,1.9021,1.8883,1.8883,1.8988,1.9053,1.9118,1.924,1.9306,1.9297,1.9314,1.9297,1.9314,1.9224,1.9314,1.9306,1.9306,1.9306,1.9306,1.9314,1.9314,1.9314,1.9314,1.9322,1.9371,1.9329,1.9354,1.9322,1.9314,1.9322,1.9379,1.9395,1.9411,1.9436,1.946,1.941,1.9508,1.9452,1.9379,1.9345,1.9337,1.933,1.9314,1.9322,1.933,1.9314,1.9314,1.9314,1.6118,1.6223,1.6755,1.6951,1.701,1.6944,1.6951,1.6931,1.6944,1.6951,1.6937,1.6944,1.6951,1.6924,1.6666,1.653,1.6582,1.6595,1.6978,1.7554,1.7613,1.7951,1.8611,1.9201,1.9454,1.9579,1.9959,2.0236,2.0244,2.0312,2.0268,2.0268,2.0268,2.0268,2.0268,2.0268,2.0268,2.032,2.0244,2.0304,2.0279,2.0125,1.9946,1.9792,1.9597,1.9492,1.9467,1.9329,1.9289,1.9281,1.9061,1.8972,1.8972,1.8972,1.9045,1.924,1.9273,1.9273,1.9265,1.9257,1.9257,1.9265,1.924,1.9273,1.9265,1.9273,1.9281,1.9306,1.9273,1.9199,1.9199,1.924,1.9273,1.9273,1.9297,1.9314,1.9314,1.9314,1.9314,1.9314,1.9314,1.9314,1.9314,1.9314,1.9314,1.9314,1.9314,1.9322,1.9338,1.933,1.9362,1.9459,1.9492,1.9443,1.9313,1.9395,1.9394,1.9451,1.9524,1.954,1.9678,1.9768,1.9752,1.9711,1.9589,1.9508,1.9475,1.9419,1.9403,1.9379,1.9395,1.9395,1.9394,1.9346,1.9338,1.5897,1.6131,1.6341,1.6663,1.6978,1.6978,1.6978,1.6978,1.6978,1.6978,1.6978,1.6978,1.6978,1.6978,1.687,1.6815,1.6815,1.6815,1.6947,1.721,1.721,1.7552,1.8065,1.8334,1.8858,1.9441,1.9702,1.9955,2.0268,2.0268,2.0268,2.0268,2.0268,2.0268,2.0268,2.0268,2.0268,2.0268,2.0268,2.0268,2.0268,2.0255,2.019,2.0117,1.9841,1.9687,1.9687,1.9516,1.9419,1.9419,1.9297,1.9208,1.9208,1.9208,1.9232,1.9297,1.9314,1.9314,1.9314,1.9314,1.9314,1.9314,1.9314,1.9322,1.9314,1.9314,1.9314,1.9314,1.9314,1.9314,1.9314,1.9314,1.9314,1.9314,1.9314,1.9314,1.9314,1.9314,1.9314,1.9314,1.9314,1.9314,1.9314,1.9314,1.9314,1.9322,1.9403,1.941,1.9443,1.9516,1.9605,1.9662,1.9687,1.967,1.9622,1.9605,1.963,1.9662,1.9703,1.9711,1.9792,1.9833,1.9817,1.9833,1.9735,1.9678,1.9646,1.9622,1.9582,1.9599,1.9549,1.9524,1.9597,1.9492,1.9435,1.5556,1.5961,1.616,1.6425,1.6849,1.7014,1.7046,1.7046,1.6998,1.6978,1.6978,1.6978,1.6978,1.6978,1.6978,1.7012,1.7039,1.7005,1.6978,1.6978,1.6978,1.7188,1.7496,1.7706,1.823,1.891,1.9328,1.983,2.0357,2.0409,2.0409,2.0409,2.0409,2.0377,2.0336,2.0268,2.0268,2.0268,2.0268,2.0268,2.0268,2.0268,2.0268,2.0288,2.0085,1.993,1.9882,1.9703,1.9597,1.9581,1.9492,1.9477,1.9427,1.9485,1.9477,1.9427,1.9435,1.9477,1.9427,1.9435,1.9485,1.9435,1.9485,1.9477,1.9485,1.9427,1.9477,1.9468,1.9362,1.9337,1.9329,1.9346,1.9314,1.9314,1.9314,1.9314,1.9314,1.9314,1.9314,1.9314,1.9314,1.9314,1.9322,1.9313,1.9337,1.9337,1.9492,1.9597,1.9622,1.9703,1.9825,1.9865,1.9882,1.9914,1.9938,1.9955,1.9882,1.989,1.9882,1.989,1.9914,1.993,1.993,1.9938,1.9906,1.9857,1.9825,1.98,1.98,1.9808,1.9743,1.9687,1.9703,1.9678,1.963,1.5092,1.562,1.6226,1.6404,1.6533,1.6903,1.7128,1.7088,1.7032,1.6985,1.7005,1.6992,1.6907,1.6953,1.6874,1.6974,1.7002,1.6869,1.6927,1.7026,1.7019,1.7071,1.7124,1.7552,1.786,1.8176,1.9038,1.9909,2.0535,2.0596,2.0596,2.0596,2.0596,2.0523,2.0344,2.0361,2.0336,2.0344,2.0336,2.0268,2.0268,2.0268,2.0268,2.0268,2.0288,2.0206,2.012,1.989,1.9792,1.9792,1.9768,1.9784,1.9743,1.9743,1.9768,1.9743,1.9768,1.9768,1.9768,1.9743,1.9735,1.9735,1.9768,1.9735,1.9719,1.9735,1.9735,1.9703,1.9605,1.9516,1.9492,1.9402,1.9346,1.9314,1.9314,1.9314,1.9314,1.9314,1.9314,1.9322,1.9338,1.9322,1.9354,1.9419,1.9508,1.9549,1.967,1.9792,1.98,1.9841,1.9898,2.0011,2.0068,2.0093,2.0206,2.0304,2.0198,2.0117,2.0085,2.0076,2.015,2.0174,2.0158,2.0158,2.0093,2.0044,1.9979,1.9955,1.993,1.9922,1.9865,1.9873,1.9882,1.9882,1.9817,1.4581,1.5044,1.5254,1.5524,1.5873,1.6363,1.6504,1.6518,1.6834,1.7032,1.7061,1.6703,1.6603,1.6515,1.6267,1.6071,1.6109,1.6065,1.6481,1.7123,1.7223,1.7216,1.7277,1.7437,1.7918,1.8725,1.9471,2.0186,2.0652,2.0775,2.0828,2.0775,2.0775,2.0796,2.0669,2.058,2.0507,2.0499,2.0385,2.0268,2.0268,2.0268,2.0268,2.0268,2.0268,2.0288,2.0239,2.0076,2.0038,1.9979,1.9857,1.9792,1.9792,1.9792,1.9792,1.9792,1.9792,1.9792,1.9792,1.98,1.9808,1.98,1.98,1.9792,1.9792,1.98,1.9808,1.98,1.9735,1.9703,1.9695,1.9662,1.9516,1.9338,1.9314,1.933,1.9346,1.933,1.9313,1.941,1.9435,1.9484,1.9589,1.9687,1.9695,1.9719,1.9857,2.0022,1.9987,2.006,2.0158,2.0231,2.0247,2.0231,2.0288,2.0268,2.0271,2.0214,2.0206,2.019,2.0279,2.0268,2.0268,2.0304,2.0255,2.0206,2.0141,2.0109,2.0085,2.0109,2.0133,2.0141,2.0141,2.0085,2.0003,1.4327,1.4644,1.4856,1.5137,1.5434,1.5931,1.6071,1.6096,1.6364,1.6503,1.6521,1.6207,1.609,1.6058,1.5746,1.5669,1.5705,1.5711,1.6171,1.6788,1.6751,1.6826,1.7096,1.7311,1.785,1.8711,1.9194,1.9708,2.0308,2.0362,2.0362,2.0362,2.0362,2.043,2.0535,2.0431,2.0404,2.0535,2.0483,2.0385,2.0336,2.0268,2.0268,2.0268,2.0268,2.0268,2.032,2.0279,2.0231,2.0158,2.0044,1.9987,1.9987,1.9995,1.9987,1.9987,1.9987,1.9995,1.9987,2.0003,1.9987,1.9987,1.9987,1.9987,1.9987,1.9987,1.9987,1.9987,1.993,1.989,1.989,1.9817,1.9687,1.9542,1.9475,1.9501,1.9509,1.9509,1.955,1.9597,1.9613,1.9678,1.9752,1.9916,1.9882,1.9965,2.0095,2.015,2.0174,2.0247,2.0296,2.032,2.0304,2.0296,2.0312,2.0268,2.0268,2.0304,2.0296,2.0288,2.0312,2.0268,2.0268,2.0268,2.0288,2.0279,2.0231,2.0255,2.0247,2.0268,2.0268,2.0288,2.0231,2.0214,2.0158,1.432,1.4375,1.4925,1.5057,1.5133,1.5638,1.5784,1.5772,1.5729,1.5734,1.5698,1.565,1.5608,1.556,1.5434,1.5488,1.5772,1.5681,1.568,1.5808,1.5754,1.5916,1.6681,1.723,1.7825,1.8345,1.8445,1.8827,1.9604,1.9612,1.9394,1.9557,1.9604,1.9652,1.9931,1.9977,2.0166,2.0481,2.0523,2.0418,2.0317,2.0353,2.0336,2.0328,2.0268,2.0268,2.0336,2.0426,2.0466,2.0369,2.0336,2.0304,2.032,2.0328,2.0279,2.0271,2.0304,2.0288,2.0252,2.0263,2.0271,2.0263,2.0211,2.0268,2.0271,2.0247,2.0247,2.0255,2.015,2.0128,2.0104,1.9963,1.9849,1.9825,1.976,1.9735,1.9776,1.976,1.976,1.9784,1.98,1.9817,1.9857,2.0038,2.0104,2.0152,2.0206,2.0263,2.0288,2.0304,2.032,2.0268,2.0268,2.0268,2.0268,2.0268,2.0268,2.0268,2.0268,2.0268,2.0268,2.0268,2.0268,2.0268,2.0268,2.0268,2.0268,2.0268,2.0268,2.0268,2.0268,2.0268,2.0304,2.0279,2.0271,1.432,1.432,1.4486,1.4487,1.4464,1.5023,1.5184,1.5151,1.5446,1.5603,1.5712,1.5348,1.5182,1.5258,1.4823,1.4686,1.4752,1.4763,1.4719,1.4753,1.4708,1.5551,1.6762,1.747,1.8067,1.8505,1.8539,1.8918,1.951,1.9441,1.9448,1.9565,1.9441,1.9543,1.9655,1.9589,1.9846,2.0216,2.0198,2.033,2.0503,2.0523,2.045,2.0328,2.0328,2.0328,2.032,2.0361,2.0515,2.0694,2.0588,2.0523,2.0499,2.0409,2.0353,2.0353,2.0284,2.0328,2.0328,2.0268,2.0268,2.0268,2.0268,2.0268,2.0268,2.0268,2.0268,2.0312,2.0271,2.0247,2.0239,2.0198,2.0174,2.015,1.9963,1.9825,1.9817,1.9792,1.9833,1.9963,1.9987,2.0036,2.0125,2.019,2.0231,2.0247,2.0279,2.0268,2.0268,2.0268,2.0268,2.0268,2.0268,2.0268,2.0268,2.0268,2.0268,2.0268,2.0268,2.0268,2.0268,2.0268,2.0268,2.0268,2.0268,2.0268,2.0268,2.0268,2.0268,2.0268,2.0268,2.0268,2.0268,2.0304,2.0312,1.432,1.432,1.432,1.4282,1.4216,1.4547,1.4673,1.4666,1.4934,1.5133,1.5142,1.4878,1.4752,1.4753,1.4481,1.432,1.432,1.432,1.432,1.4431,1.4864,1.5696,1.6643,1.7418,1.8088,1.8309,1.8364,1.8522,1.8798,1.8861,1.8853,1.8853,1.8861,1.9026,1.9177,1.9166,1.9337,1.9814,1.9985,2.0191,2.0354,2.0596,2.0604,2.0474,2.0434,2.0434,2.0434,2.0442,2.0515,2.0604,2.0596,2.0596,2.0596,2.0572,2.0539,2.0539,2.0483,2.0442,2.0418,2.0369,2.0268,2.0268,2.0268,2.0268,2.0268,2.0268,2.0268,2.032,2.0268,2.0268,2.0268,2.0268,2.0268,2.0279,2.0133,2.0011,2.0011,2.0028,2.006,2.0141,2.0174,2.019,2.0312,2.032,2.0268,2.0268,2.0312,2.0268,2.0268,2.0268,2.0268,2.0268,2.0268,2.0268,2.0268,2.0268,2.0268,2.0268,2.0268,2.0268,2.0268,2.0268,2.0268,2.0268,2.0268,2.0268,2.0268,2.0268,2.0268,2.0268,2.0268,2.0268,2.0268,2.0361,2.0369,1.432,1.432,1.432,1.432,1.4314,1.432,1.4359,1.4314,1.4409,1.4359,1.4364,1.4314,1.4364,1.432,1.432,1.432,1.432,1.432,1.4375,1.4708,1.5375,1.6151,1.6483,1.7418,1.7915,1.7977,1.7915,1.797,1.8081,1.8033,1.797,1.8088,1.8033,1.8198,1.853,1.8633,1.8892,1.9344,1.9696,1.9977,2.0169,2.0505,2.0631,2.0653,2.0621,2.0621,2.0621,2.0612,2.0564,2.0369,2.0507,2.0588,2.0612,2.0796,2.0828,2.0812,2.0637,2.058,2.0588,2.0466,2.0361,2.0369,2.0344,2.0268,2.0268,2.0268,2.0268,2.0268,2.0268,2.0268,2.0268,2.0268,2.0268,2.0312,2.0296,2.0312,2.0268,2.0268,2.0268,2.0268,2.032,2.032,2.0268,2.0268,2.0268,2.0268,2.0268,2.0268,2.0268,2.0268,2.0268,2.0268,2.0268,2.0268,2.0268,2.0268,2.0268,2.0268,2.0268,2.0268,2.0268,2.0268,2.0268,2.0268,2.0268,2.0268,2.0268,2.0268,2.0268,2.0268,2.0268,2.0268,2.0276,2.0401,2.0434,1.432,1.432,1.432,1.432,1.432,1.432,1.432,1.432,1.432,1.432,1.432,1.432,1.432,1.432,1.432,1.432,1.432,1.432,1.4542,1.5091,1.5702,1.6373,1.6822,1.761,1.7874,1.7922,1.7915,1.7922,1.7929,1.7942,1.7922,1.7936,1.7963,1.7977,1.8108,1.8184,1.8357,1.8763,1.9038,1.9513,2.0054,2.0287,2.0587,2.0794,2.0869,2.0853,2.0853,2.0853,2.071,2.0596,2.058,2.0612,2.0596,2.0531,2.0564,2.0653,2.0645,2.0653,2.0726,2.0621,2.0531,2.0507,2.0426,2.0268,2.0268,2.0328,2.0328,2.0268,2.0268,2.0268,2.0268,2.0268,2.0268,2.0268,2.0268,2.0268,2.0268,2.0268,2.0268,2.0268,2.0268,2.0268,2.0268,2.0268,2.0268,2.0268,2.0268,2.0268,2.0268,2.0268,2.0268,2.0268,2.0268,2.0268,2.0268,2.0268,2.0268,2.0268,2.0268,2.0268,2.0268,2.0268,2.0268,2.0268,2.0268,2.0268,2.0268,2.0268,2.0268,2.0268,2.0268,2.0268,2.0344,2.0426,2.0491,1.432,1.432,1.432,1.432,1.432,1.432,1.432,1.432,1.432,1.432,1.432,1.432,1.432,1.432,1.432,1.432,1.432,1.4325,1.4686,1.5277,1.5914,1.6559,1.7182,1.7721,1.8023,1.7963,1.7941,1.7968,1.7982,1.8036,1.8091,1.8077,1.807,1.8097,1.8077,1.807,1.8258,1.8538,1.8803,1.9255,1.9689,2.0338,2.0812,2.1129,2.1203,2.1129,2.0994,2.0986,2.0889,2.0767,2.0718,2.0677,2.0629,2.058,2.0629,2.0686,2.0629,2.0637,2.0677,2.0653,2.0588,2.0596,2.0564,2.0523,2.0474,2.045,2.0393,2.0292,2.0268,2.0268,2.0268,2.0268,2.0268,2.0268,2.0268,2.0268,2.0268,2.0268,2.0268,2.0268,2.0268,2.0268,2.0268,2.0268,2.0268,2.0268,2.0268,2.0268,2.0268,2.0268,2.0268,2.0268,2.0268,2.0268,2.0268,2.0268,2.0268,2.0268,2.0268,2.0268,2.0268,2.0268,2.0268,2.0268,2.0268,2.0268,2.0268,2.0268,2.0268,2.0268,2.0268,2.0268,2.0336,2.0385,2.0458,1.432,1.432,1.432,1.432,1.432,1.432,1.432,1.432,1.432,1.432,1.432,1.432,1.432,1.432,1.432,1.4325,1.4358,1.4619,1.5016,1.5691,1.6265,1.694,1.7575,1.8021,1.8179,1.8024,1.8063,1.8124,1.8158,1.8247,1.826,1.8301,1.8301,1.8267,1.8294,1.8314,1.828,1.838,1.8719,1.9057,1.9389,2.0226,2.0991,2.1549,2.1546,2.1416,2.1335,2.1287,2.1173,2.1007,2.0983,2.0877,2.0779,2.0804,2.0934,2.088,2.0783,2.0759,2.0751,2.0694,2.0645,2.0612,2.0661,2.0677,2.0564,2.0499,2.0434,2.0369,2.0268,2.0268,2.0268,2.0268,2.0268,2.0268,2.0268,2.0268,2.0268,2.0268,2.0268,2.0268,2.0268,2.0268,2.0268,2.0268,2.0268,2.0268,2.0268,2.0268,2.0268,2.0268,2.0268,2.0268,2.0268,2.0268,2.0268,2.0268,2.0268,2.0268,2.0268,2.0268,2.0268,2.0268,2.0268,2.0268,2.0268,2.0268,2.0268,2.0268,2.0268,2.0268,2.0268,2.0268,2.0328,2.0344,2.0418,1.432,1.432,1.432,1.432,1.432,1.432,1.432,1.432,1.432,1.432,1.432,1.432,1.4325,1.433,1.4325,1.4374,1.4584,1.4994,1.5627,1.6286,1.6859,1.7521,1.8071,1.8262,1.8308,1.8267,1.8287,1.8294,1.828,1.8314,1.8369,1.8335,1.8342,1.8348,1.8355,1.8321,1.8362,1.8375,1.8539,1.8766,1.927,1.9935,2.0889,2.1743,2.1863,2.1814,2.1734,2.1718,2.1652,2.1343,2.1295,2.117,2.0983,2.0934,2.0999,2.0994,2.0986,2.0937,2.0937,2.0872,2.0742,2.0612,2.0564,2.0466,2.0409,2.0333,2.0393,2.0353,2.0268,2.0268,2.0268,2.0268,2.0268,2.0268,2.0268,2.0268,2.0268,2.0268,2.0268,2.0268,2.0268,2.0268,2.0268,2.0268,2.0268,2.0268,2.0268,2.0268,2.0268,2.0268,2.0268,2.0268,2.0268,2.0268,2.0268,2.0268,2.0268,2.0268,2.0268,2.0268,2.0268,2.0268,2.0268,2.0268,2.0268,2.0268,2.0268,2.0268,2.0268,2.0268,2.0268,2.0268,2.0336,2.0344,2.0377,1.432,1.432,1.432,1.432,1.432,1.432,1.432,1.432,1.432,1.432,1.432,1.4325,1.4358,1.4401,1.4417,1.4483,1.4756,1.5271,1.596,1.6572,1.7231,1.7905,1.8467,1.8538,1.8552,1.8552,1.8545,1.8491,1.8393,1.8525,1.8531,1.8552,1.8545,1.8552,1.8552,1.8559,1.8538,1.8538,1.8596,1.871,1.9111,1.9848,2.0999,2.1862,2.2188,2.2164,2.2074,2.2066,2.1944,2.1709,2.1579,2.1441,2.1349,2.1219,2.1083,2.1035,2.101,2.0994,2.101,2.0954,2.0921,2.0767,2.0702,2.0629,2.0523,2.0474,2.0409,2.0344,2.0268,2.0268,2.0268,2.0268,2.0268,2.0268,2.0268,2.0268,2.0268,2.0268,2.0268,2.0268,2.0268,2.0268,2.0268,2.0268,2.0268,2.0268,2.0268,2.0268,2.0268,2.0268,2.0268,2.0268,2.0268,2.0268,2.0268,2.0268,2.0268,2.0268,2.0268,2.0268,2.0268,2.0268,2.0268,2.0268,2.0268,2.0268,2.0268,2.0268,2.0268,2.0268,2.0268,2.0276,2.0336,2.0361,2.0385,1.432,1.432,1.432,1.432,1.432,1.432,1.432,1.432,1.432,1.432,1.4325,1.4352,1.4412,1.4494,1.4564,1.4686,1.4939,1.5596,1.6308,1.7,1.7608,1.825,1.8612,1.882,1.8793,1.8708,1.8779,1.8701,1.862,1.8674,1.88,1.8786,1.8807,1.882,1.8793,1.8766,1.882,1.882,1.882,1.882,1.9393,2.0204,2.1302,2.2349,2.2464,2.2383,2.2261,2.2253,2.2156,2.1985,2.1855,2.1749,2.1693,2.1538,2.1311,2.1129,2.104,2.1007,2.0954,2.1027,2.1019,2.0901,2.0978,2.0856,2.0669,2.0515,2.0458,2.0353,2.0268,2.0268,2.0268,2.0268,2.0268,2.0268,2.0268,2.0268,2.0268,2.0268,2.0268,2.0268,2.0268,2.0268,2.0268,2.0268,2.0268,2.0268,2.0268,2.0268,2.0268,2.0268,2.0268,2.0268,2.0268,2.0268,2.0268,2.0268,2.0268,2.0268,2.0268,2.0268,2.0268,2.0268,2.0276,2.0344,2.0268,2.0268,2.0268,2.0276,2.0268,2.0268,2.0268,2.0276,2.0336,2.0353,2.0369,1.432,1.432,1.432,1.432,1.432,1.432,1.432,1.432,1.432,1.432,1.4341,1.4428,1.4483,1.4564,1.4795,1.5159,1.5722,1.6306,1.6932,1.7537,1.8187,1.8606,1.8762,1.882,1.882,1.882,1.882,1.8813,1.8721,1.88,1.882,1.882,1.882,1.882,1.882,1.882,1.882,1.882,1.882,1.9335,2.0254,2.1013,2.1714,2.2291,2.2464,2.2506,2.2465,2.2391,2.2326,2.218,2.2139,2.2042,2.1904,2.1725,2.1644,2.1585,2.1471,2.1254,2.1132,2.1132,2.1083,2.0991,2.0975,2.0836,2.0637,2.0483,2.0401,2.0336,2.0268,2.0268,2.0268,2.0268,2.0268,2.0268,2.0268,2.0268,2.0268,2.0268,2.0268,2.0268,2.0268,2.0268,2.0268,2.0268,2.0268,2.0268,2.0268,2.0268,2.0268,2.0268,2.0268,2.0268,2.0268,2.0268,2.0268,2.0268,2.0328,2.0328,2.0328,2.0336,2.0377,2.0393,2.0377,2.0377,2.0377,2.0393,2.0434,2.0426,2.0353,2.0336,2.0353,2.0344,2.0268,2.0344,2.0401,1.432,1.432,1.432,1.432,1.432,1.432,1.432,1.432,1.432,1.4358,1.4423,1.4477,1.457,1.4711,1.489,1.5304,1.5953,1.6639,1.7245,1.7884,1.8472,1.882,1.882,1.882,1.882,1.882,1.882,1.882,1.882,1.882,1.882,1.882,1.882,1.882,1.8878,1.882,1.9052,1.9277,1.9683,2.0262,2.0956,2.1426,2.183,2.2472,2.2464,2.2464,2.2464,2.2464,2.244,2.2326,2.2269,2.2164,2.2058,2.1912,2.1782,2.1699,2.1642,2.1449,2.1303,2.127,2.1165,2.1059,2.0986,2.0897,2.0661,2.0523,2.0418,2.0276,2.0268,2.0268,2.0268,2.0268,2.0268,2.0268,2.0268,2.0268,2.0268,2.0268,2.0268,2.0268,2.0268,2.0268,2.0268,2.0268,2.0268,2.0268,2.0268,2.0268,2.0268,2.0268,2.0268,2.0268,2.0268,2.0268,2.0268,2.0268,2.0344,2.0353,2.0344,2.0377,2.0474,2.0491,2.0499,2.0564,2.0645,2.0645,2.0596,2.0483,2.0385,2.0377,2.0393,2.0369,2.0361,2.0491,2.058,1.432,1.432,1.432,1.432,1.432,1.432,1.432,1.432,1.432,1.439,1.4499,1.4575,1.4716,1.499,1.5215,1.5662,1.6308,1.6838,1.7478,1.8059,1.8465,1.8762,1.882,1.882,1.882,1.882,1.882,1.882,1.882,1.8936,1.8994,1.882,1.882,1.8936,1.8994,1.911,1.9335,1.9914,2.0493,2.1013,2.1426,2.1657,2.206,2.2349,2.2464,2.2464,2.2464,2.2464,2.2522,2.2489,2.235,2.2277,2.2237,2.2099,2.1961,2.1847,2.1782,2.1644,2.149,2.14,2.1319,2.123,2.1124,2.1002,2.0807,2.0677,2.0564,2.0418,2.0336,2.0328,2.0268,2.0268,2.0268,2.0268,2.0268,2.0268,2.0268,2.0268,2.0268,2.0268,2.0268,2.0268,2.0268,2.0268,2.0268,2.0268,2.0268,2.0268,2.0268,2.0268,2.0276,2.0284,2.0409,2.0418,2.0434,2.0418,2.0409,2.0409,2.0409,2.0466,2.0596,2.0661,2.0686,2.0828,2.0901,2.0869,2.0771,2.0564,2.0418,2.0442,2.045,2.0401,2.0426,2.0572,2.0742,1.432,1.432,1.432,1.432,1.432,1.432,1.432,1.432,1.432,1.4396,1.4542,1.4722,1.489,1.5105,1.5598,1.6198,1.6838,1.7478,1.8059,1.8523,1.8762,1.882,1.8878,1.8936,1.8878,1.8878,1.9052,1.9052,1.8994,1.9509,1.9284,1.8878,1.9103,1.9277,1.9509,1.9741,2.003,2.0551,2.1129,2.1426,2.1714,2.2003,2.2407,2.2407,2.2464,2.2464,2.2464,2.2464,2.2464,2.2464,2.2432,2.2407,2.2367,2.2253,2.2147,2.2058,2.1969,2.1831,2.1676,2.1506,2.14,2.1327,2.1238,2.107,2.0994,2.0751,2.0621,2.058,2.0491,2.0385,2.0361,2.0276,2.0361,2.0268,2.0268,2.0268,2.0268,2.0268,2.0268,2.0268,2.0268,2.0268,2.0268,2.0268,2.0268,2.0268,2.0268,2.0268,2.0268,2.0276,2.0292,2.0377,2.0499,2.0556,2.0596,2.0612,2.0637,2.0629,2.0612,2.073,2.0836,2.0869,2.0796,2.0877,2.0901,2.0901,2.0877,2.0645,2.0523,2.0523,2.0515,2.0507,2.0621,2.0807,2.0945,1.432,1.432,1.432,1.432,1.432,1.432,1.432,1.432,1.4325,1.4434,1.4675,1.4852,1.4994,1.5201,1.5731,1.6314,1.6954,1.7536,1.8407,1.8929,1.9052,1.9052,1.9168,1.9342,1.94,1.9451,1.9683,1.9914,1.9972,2.0146,2.0088,1.9972,1.9857,2.003,2.0262,2.0544,2.089,2.1179,2.1706,2.206,2.2184,2.2291,2.2464,2.2464,2.2464,2.2464,2.2464,2.2464,2.2464,2.2464,2.2464,2.2464,2.2464,2.2375,2.2302,2.2229,2.2123,2.2009,2.1839,2.1652,2.1514,2.1392,2.1319,2.1246,2.1102,2.0978,2.0864,2.0783,2.0677,2.0588,2.0507,2.0491,2.0474,2.0369,2.0336,2.0361,2.0369,2.0393,2.0369,2.0385,2.0353,2.0268,2.0268,2.0268,2.0268,2.0268,2.0268,2.0268,2.0268,2.0328,2.0344,2.0401,2.0515,2.0629,2.0677,2.0812,2.091,2.0893,2.0869,2.0926,2.0967,2.0771,2.0677,2.082,2.0934,2.095,2.0901,2.0702,2.0629,2.0612,2.0629,2.0653,2.0815,2.1019,2.1124,1.4431,1.4542,1.4542,1.4431,1.432,1.432,1.432,1.432,1.4542,1.4842,1.5253,1.5444,1.5562,1.5731,1.6256,1.6774,1.742,1.8059,1.8871,1.9335,1.9509,1.9625,1.9857,1.9972,1.9972,2.0088,2.0312,2.0544,2.0486,2.0724,2.0782,2.0898,2.1071,2.1071,2.1006,2.1371,2.1693,2.1866,2.204,2.231,2.2302,2.235,2.2375,2.2391,2.2424,2.2464,2.2464,2.2464,2.2464,2.2464,2.2464,2.2464,2.2464,2.2448,2.2391,2.2326,2.2253,2.2188,2.2017,2.179,2.1667,2.1506,2.14,2.1319,2.1238,2.1165,2.1019,2.0954,2.0889,2.0807,2.0677,2.0669,2.0653,2.058,2.0564,2.0572,2.0564,2.0572,2.0499,2.0458,2.0426,2.0409,2.0328,2.0336,2.0353,2.0344,2.0268,2.0268,2.0268,2.0336,2.0353,2.0426,2.0531,2.0637,2.0742,2.0872,2.0994,2.1019,2.1002,2.1027,2.1048,2.0815,2.0807,2.1072,2.1138,2.1056,2.0937,2.0889,2.0791,2.0694,2.0759,2.084,2.0954,2.1132,2.123,1.4647,1.5141,1.5197,1.4869,1.4486,1.432,1.4375,1.4547,1.4998,1.5633,1.6278,1.6595,1.6657,1.6838,1.7181,1.7536,1.7878,1.8871,1.9625,1.9799,2.0088,2.0435,2.0551,2.0609,2.0609,2.0601,2.0833,2.0956,2.0775,2.1302,2.1483,2.1583,2.1798,2.1905,2.1575,2.1942,2.2147,2.218,2.1993,2.2017,2.2042,2.2164,2.2229,2.2277,2.2399,2.2522,2.2464,2.2464,2.2464,2.2464,2.2464,2.2464,2.2464,2.2464,2.2448,2.2432,2.2432,2.235,2.2188,2.1919,2.1773,2.1699,2.1538,2.1416,2.1352,2.1254,2.1157,2.1108,2.1019,2.0967,2.091,2.0901,2.0885,2.0828,2.0804,2.0796,2.0771,2.0771,2.0645,2.0604,2.058,2.0539,2.0418,2.0353,2.0377,2.0369,2.0336,2.0276,2.0284,2.0336,2.0361,2.0483,2.0588,2.0726,2.0856,2.1019,2.1132,2.1157,2.1148,2.1132,2.1165,2.1116,2.1165,2.1311,2.127,2.1181,2.1148,2.1124,2.1075,2.1043,2.101,2.1021,2.1165,2.123,2.1311,1.5036,1.5252,1.5646,1.5702,1.5486,1.5486,1.5486,1.5559,1.5803,1.6159,1.6499,1.6688,1.6823,1.7046,1.7536,1.7878,1.811,1.9103,1.9799,2.032,2.0601,2.084,2.1071,2.1194,2.1187,2.1368,2.1541,2.1772,2.1887,2.2003,2.2126,2.2283,2.2178,2.2171,2.2041,2.2139,2.2156,2.1985,2.1912,2.1944,2.1953,2.2082,2.2188,2.2188,2.2359,2.2522,2.2464,2.2464,2.2464,2.2464,2.2464,2.2464,2.2464,2.2464,2.2464,2.2464,2.2464,2.2448,2.2334,2.2147,2.1969,2.1839,2.1684,2.1579,2.1602,2.14,2.1327,2.1287,2.1213,2.1124,2.1067,2.1043,2.0994,2.091,2.0869,2.0869,2.0869,2.0869,2.0844,2.0828,2.0812,2.0828,2.071,2.0677,2.0669,2.0604,2.0588,2.0434,2.0393,2.0369,2.0377,2.0547,2.0677,2.0824,2.097,2.1157,2.1278,2.1319,2.123,2.1132,2.1181,2.1335,2.1303,2.1335,2.1352,2.136,2.1368,2.1384,2.1433,2.1433,2.1327,2.1232,2.136,2.136,2.1352,1.5313,1.5591,1.6145,1.6533,1.6643,1.6256,1.6206,1.6398,1.6572,1.6765,1.7124,1.7263,1.7467,1.7678,1.7943,1.8349,1.8517,1.9502,2.032,2.0898,2.1187,2.1533,2.1772,2.1838,2.183,2.2003,2.2176,2.2464,2.2349,2.2464,2.2424,2.2285,2.2253,2.2123,2.2058,2.1969,2.1936,2.1831,2.1766,2.1701,2.1782,2.192,2.2091,2.2164,2.2302,2.2464,2.2464,2.2464,2.2464,2.2464,2.2464,2.2464,2.2464,2.2464,2.2464,2.2464,2.2464,2.2464,2.2415,2.2375,2.2212,2.2139,2.1904,2.1741,2.1724,2.1538,2.1441,2.14,2.14,2.1327,2.1238,2.1213,2.1148,2.1064,2.1064,2.1072,2.1097,2.1105,2.1129,2.1105,2.1113,2.1113,2.1072,2.1097,2.1035,2.0945,2.0856,2.0677,2.0523,2.0523,2.0539,2.0686,2.0832,2.097,2.114,2.1327,2.1425,2.1528,2.1408,2.1272,2.1386,2.1564,2.149,2.1408,2.1546,2.1644,2.1628,2.1652,2.1676,2.1628,2.1522,2.1514,2.1555,2.1522,2.1465,1.5591,1.6206,1.676,1.7314,1.7639,1.6705,1.6539,1.6995,1.7179,1.7596,1.8215,1.8286,1.8369,1.8619,1.8762,1.9052,1.9509,2.0197,2.0782,2.1426,2.1887,2.2234,2.2349,2.2349,2.2291,2.2407,2.2464,2.2464,2.2464,2.2407,2.2326,2.2229,2.2131,2.1969,2.1862,2.1765,2.1693,2.1628,2.1555,2.1506,2.1555,2.179,2.1944,2.2074,2.2269,2.2432,2.2464,2.2464,2.2464,2.2464,2.2464,2.2464,2.2464,2.2464,2.2464,2.2464,2.2464,2.2464,2.2464,2.2432,2.2432,2.2334,2.2139,2.1904,2.1766,2.1709,2.1628,2.153,2.149,2.1449,2.1447,2.1368,2.1335,2.1303,2.1311,2.1327,2.1398,2.1423,2.1455,2.1463,2.1496,2.1471,2.1295,2.1287,2.1262,2.1205,2.1116,2.1051,2.0913,2.0872,2.0889,2.0913,2.1043,2.114,2.1311,2.1506,2.1603,2.166,2.1758,2.1669,2.1775,2.1799,2.175,2.179,2.1879,2.192,2.1879,2.1871,2.1879,2.1806,2.1693,2.1652,2.166,2.1652,2.162,1.6206,1.676,1.7369,1.7749,1.786,1.7535,1.7473,1.7652,1.7699,1.7952,1.8328,1.8362,1.8531,1.8749,1.882,1.9226,1.9741,2.0312,2.0898,2.1541,2.2242,2.2407,2.2464,2.2464,2.2464,2.2464,2.2464,2.2456,2.2415,2.2359,2.2261,2.2188,2.1961,2.183,2.1708,2.1594,2.1498,2.1465,2.1408,2.1392,2.1465,2.1733,2.1863,2.2026,2.2261,2.2415,2.2522,2.2464,2.2464,2.2464,2.2464,2.2464,2.2464,2.2464,2.2464,2.2464,2.2464,2.2464,2.2464,2.2464,2.2464,2.2464,2.2342,2.2245,2.2074,2.1928,2.1831,2.1717,2.1628,2.1595,2.1594,2.1498,2.1457,2.1433,2.1416,2.1392,2.1408,2.1449,2.149,2.1555,2.1595,2.1587,2.1481,2.1441,2.1416,2.14,2.1368,2.1335,2.1317,2.1252,2.1203,2.1157,2.127,2.1376,2.1514,2.1701,2.1782,2.1863,2.1912,2.1944,2.192,2.1953,2.2066,2.2082,2.2026,2.2058,2.2107,2.2066,2.1944,2.188,2.1783,2.1798,2.1766,2.1741,2.1676,1.665,1.7037,1.7646,1.7915,1.7915,1.7915,1.7915,1.7915,1.7915,1.8036,1.8301,1.8321,1.8484,1.8793,1.9052,1.9509,2.0146,2.0724,2.1368,2.1945,2.2299,2.2407,2.2464,2.2464,2.2464,2.2464,2.2448,2.2424,2.2334,2.2188,2.2066,2.2001,2.1725,2.1636,2.1594,2.1449,2.1408,2.1392,2.1384,2.1384,2.1506,2.1676,2.1814,2.1929,2.2237,2.2359,2.2522,2.2464,2.2464,2.2464,2.2464,2.2464,2.2464,2.2464,2.2464,2.2464,2.2464,2.2464,2.2464,2.2464,2.2464,2.2464,2.2464,2.2399,2.2285,2.2139,2.2017,2.1896,2.1823,2.1758,2.1693,2.1675,2.1563,2.1498,2.1441,2.1384,2.1416,2.1465,2.153,2.1603,2.1636,2.1652,2.162,2.1587,2.1611,2.1652,2.1668,2.1652,2.153,2.14,2.1327,2.1295,2.1504,2.1659,2.1741,2.1814,2.1863,2.1904,2.192,2.1944,2.1961,2.1977,2.2017,2.2042,2.2058,2.2066,2.205,2.2017,2.1936,2.1856,2.1791,2.1766,2.1733,2.1782,2.1693,1.7037,1.7154,1.7701,1.7915,1.7915,1.7915,1.7915,1.7915,1.7915,1.8036,1.828,1.8321,1.8541,1.9011,1.94,2.003,2.0609,2.1194,2.1714,2.2472,2.2464,2.2464,2.2464,2.2464,2.2464,2.2464,2.2415,2.2318,2.2164,2.2001,2.1839,2.1716,2.1683,2.161,2.1441,2.1408,2.1384,2.1384,2.1384,2.1384,2.1433,2.1571,2.1749,2.1928,2.2115,2.2277,2.2415,2.2464,2.2464,2.2464,2.2464,2.2464,2.2464,2.2464,2.2464,2.2464,2.2464,2.2464,2.2464,2.2464,2.2464,2.2464,2.2464,2.2448,2.2367,2.2302,2.218,2.2099,2.2026,2.1961,2.1896,2.1782,2.1693,2.1603,2.153,2.1449,2.1408,2.1449,2.1506,2.1571,2.1595,2.1611,2.1611,2.1563,2.153,2.1733,2.1774,2.1749,2.1684,2.1514,2.1498,2.1433,2.1603,2.1741,2.1774,2.1847,2.1904,2.1936,2.192,2.1936,2.1944,2.1944,2.1936,2.1961,2.1969,2.1928,2.1896,2.1831,2.1782,2.1766,2.1709,2.1708,2.1668,2.1709,2.166,1.7258,1.7701,1.786,1.7915,1.7915,1.7915,1.7915,1.7915,1.7915,1.8036,1.828,1.8342,1.877,1.9423,1.9741,2.032,2.1137,2.1483,2.1887,2.2299,2.2464,2.2464,2.2464,2.2464,2.2456,2.2415,2.2326,2.2156,2.1993,2.1823,2.1709,2.1699,2.1618,2.1433,2.1392,2.1384,2.1384,2.1384,2.1384,2.1384,2.1408,2.1563,2.1749,2.192,2.2091,2.2261,2.2391,2.2464,2.2464,2.2464,2.2464,2.2464,2.2464,2.2464,2.2464,2.2464,2.2464,2.2464,2.2464,2.2464,2.2464,2.2464,2.2464,2.2464,2.2448,2.2473,2.2367,2.2294,2.2237,2.2172,2.2091,2.1953,2.1831,2.1733,2.1628,2.1522,2.1416,2.1441,2.149,2.1514,2.1538,2.1546,2.1555,2.1546,2.1514,2.1506,2.1498,2.149,2.1514,2.1433,2.1579,2.1587,2.1749,2.1855,2.1831,2.179,2.1798,2.1839,2.1839,2.1871,2.1912,2.1863,2.1806,2.1847,2.1855,2.1782,2.1684,2.1579,2.1538,2.1579,2.1571,2.153,2.1498,2.1522,2.149,1.7475,1.7915,1.7915,1.7915,1.7915,1.7915,1.7915,1.7915,1.7915,1.8036,1.8351,1.8618,1.9106,1.9828,2.0204,2.0674,2.1541,2.183,2.2118,2.2407,2.2464,2.2464,2.2464,2.2456,2.2383,2.2326,2.2074,2.1879,2.179,2.1644,2.153,2.1585,2.1416,2.1384,2.1384,2.1384,2.1384,2.1384,2.1384,2.1384,2.1384,2.1506,2.1636,2.1806,2.1985,2.2164,2.2318,2.2407,2.2464,2.2464,2.2464,2.2464,2.2464,2.2464,2.2464,2.2464,2.2464,2.2464,2.2464,2.2464,2.2464,2.2464,2.2464,2.2464,2.2464,2.244,2.244,2.2375,2.2375,2.2318,2.2269,2.2156,2.2066,2.1969,2.1839,2.1717,2.1563,2.1473,2.1465,2.1433,2.1449,2.1449,2.1457,2.1457,2.1441,2.1441,2.1392,2.1392,2.1384,2.1384,2.153,2.1636,2.1733,2.1717,2.1611,2.1587,2.1611,2.1668,2.1733,2.1676,2.1644,2.166,2.1668,2.1676,2.1652,2.1579,2.1473,2.1425,2.1408,2.1457,2.1441,2.14,2.1384,2.1384,2.1392,1.7738,1.7908,1.7915,1.7915,1.7915,1.7915,1.7915,1.7915,1.7922,1.8127,1.8486,1.9093,1.9519,2.0116,2.0905,2.1368,2.1772,2.2118,2.2415,2.2464,2.2464,2.2464,2.2456,2.2489,2.2277,2.2139,2.1903,2.1773,2.162,2.149,2.1416,2.1384,2.1384,2.1384,2.1384,2.1384,2.1384,2.1384,2.1384,2.1384,2.1384,2.1384,2.1514,2.1668,2.1823,2.1993,2.218,2.231,2.2415,2.2464,2.2464,2.2464,2.2464,2.2464,2.2464,2.2464,2.2464,2.2464,2.2464,2.2464,2.2464,2.2464,2.2464,2.2464,2.2464,2.2464,2.2464,2.2522,2.2514,2.2497,2.2391,2.235,2.2261,2.2147,2.2009,2.1888,2.1709,2.1555,2.1514,2.1465,2.1441,2.1449,2.1425,2.1425,2.1392,2.1392,2.1384,2.1384,2.1384,2.1384,2.1449,2.1481,2.1522,2.1473,2.1425,2.1449,2.1498,2.149,2.153,2.1441,2.14,2.1481,2.1506,2.1457,2.1416,2.1433,2.1425,2.14,2.1384,2.1384,2.1384,2.1384,2.1384,2.1384,2.1384,1.7731,1.7915,1.7915,1.7915,1.7915,1.7915,1.7915,1.7915,1.7922,1.8246,1.8923,1.9643,2.0189,2.0428,2.1137,2.1657,2.2176,2.2472,2.2464,2.2464,2.2464,2.2464,2.2391,2.2253,2.2042,2.1903,2.174,2.1642,2.1514,2.1425,2.1384,2.1384,2.1384,2.1384,2.1384,2.1384,2.1384,2.1384,2.1384,2.1384,2.1384,2.1416,2.1498,2.1603,2.1693,2.192,2.2107,2.2212,2.2326,2.2415,2.2456,2.2448,2.2464,2.2464,2.2464,2.2464,2.2464,2.2464,2.2464,2.2464,2.2464,2.2464,2.2464,2.2464,2.2464,2.2464,2.2464,2.2464,2.2522,2.2522,2.2432,2.2432,2.2367,2.2212,2.2066,2.1985,2.1863,2.1814,2.1782,2.1725,2.1668,2.1644,2.1603,2.1555,2.1441,2.1441,2.148,2.1416,2.1384,2.1384,2.1384,2.1384,2.1384,2.1384,2.1392,2.14,2.1416,2.1392,2.1384,2.1384,2.1384,2.1384,2.1384,2.1384,2.1384,2.14,2.1384,2.1384,2.1384,2.1384,2.1384,2.1384,2.1392,2.1425,2.1465]},{"header":{"parameterUnit":"m.s-1","parameterCategory":1,"la1":31.0,"la2":29.5877,"lo1":-88.7671,"lo2":-86.6584,"dy":0.0162,"dx":0.0185,"nx":115,"ny":88,"refTime":"2023-09-29T06:00:00:Z","depth":0,"parameterNumber":3,"parameterNumberName":"V-component_of_WINDS"},"data":[0.0,0.0,0.0,0.0,0.0,0.0,0.0,0.0,0.0,0.0,0.0,0.0,0.0,0.0,0.0,0.0,0.0,0.0,0.0,0.0,0.0,0.0,0.0,0.0,0.0,0.0,0.0,0.0,0.0,0.0,0.0,0.0,0.0,0.0,0.0,0.0,0.0,0.0,0.0,0.0,0.0,0.0,0.0,0.0,0.0,0.0,0.0,0.0,0.0,0.0,0.0,0.0,0.0,0.0,0.0,0.0,0.0,0.0,0.0,0.0,0.0,0.0,0.0,0.0,0.0,0.0,0.0,0.0,0.0,0.0,0.0,0.0,0.0,0.0,0.0,0.0,0.0,0.0,0.0,0.0,0.0,0.0,0.0,0.0,0.0,0.0,0.0,0.0,0.0,0.0,0.0,0.0,0.0,0.0,0.0,0.0,0.0,0.0,0.0,0.0,0.0,0.0,0.0,0.0,0.0,0.0,0.0,0.0,0.0,0.0,0.0,0.0,0.0,0.0,0.0,0.0,0.0,0.0,0.0,0.0,0.0,0.0,0.0,0.0,0.0,0.0,0.0,0.0,0.0,0.0,0.0,0.0,0.0,0.0,0.0,0.0,0.0,0.0,0.0,0.0,0.0,0.0,0.0,0.0,0.0,0.0,0.0,0.0,0.0,0.0,0.0,0.0,0.0,0.0,0.0,0.0,0.0,0.0,0.0,0.0,0.0,0.0,0.0,0.0,0.0,0.0,0.0,0.0,0.0,0.0,0.0,0.0,0.0,0.0,0.0,0.0,0.0,0.0,0.0,0.0,0.0,0.0,0.0,0.0,0.0,0.0,0.0,0.0,0.0,0.0,0.0,0.0,0.0,0.0,0.0,0.0,0.0,0.0,0.0,0.0,0.0,0.0,0.0,0.0,0.0,0.0,0.0,0.0,0.0,0.0,0.0,0.0,0.0,0.0,0.0,0.0,0.0,0.0,0.0,0.0,0.0,0.0,0.0,0.0,0.0,0.0,0.0,0.0,0.0,0.0,0.0,0.0,0.0,0.0,0.0,0.0,0.0,0.0,0.0,0.0,0.0,0.0,0.0,0.0,0.0,0.0,0.0,0.0,0.0,0.0,0.0,0.0,0.0,0.0,0.0,0.0,0.0,0.0,0.0,0.0,0.0,0.0,0.0,0.0,0.0,0.0,0.0,0.0,0.0,0.0,0.0,0.0,0.0,0.0,0.0,0.0,0.0,0.0,0.0,0.0,0.0,0.0,0.0,0.0,0.0,0.0,0.0,0.0,0.0,0.0,0.0,0.0,0.0,0.0,0.0,0.0,0.0,0.0,0.0,0.0,0.0,0.0,0.0,0.0,0.0,0.0,0.0,0.0,0.0,0.0,0.0,0.0,0.0,0.0,0.0,0.0,0.0,0.0,0.0,0.0,0.0,0.0,0.0,0.0,0.0,0.0,0.0,0.0,0.0,0.0,0.0,0.0,0.0,0.0,0.0,0.0,0.0,0.0,0.0,0.0,0.0,0.0,0.0,0.0,0.0,0.0,0.0,0.0,0.0,0.0,0.0,0.0,0.0,0.0,0.0,0.0,0.0,0.0,0.0,0.0,0.0,0.0,0.0,0.0,0.0,0.0,0.0,0.0,0.0,0.0,0.0,0.0,0.0,0.0,0.0,0.0,0.0,0.0,0.0,0.0,0.0,0.0,0.0,0.0,0.0,0.0,0.0,0.0,0.0,0.0,0.0,0.0,0.0,0.0,0.0,0.0,0.0,0.0,0.0,0.0,0.0,0.0,0.0,0.0,0.0,0.0,0.0,0.0,0.0,0.0,0.0,0.0,0.0,0.0,0.0,0.0,0.0,0.0,0.0,0.0,0.0,0.0,0.0,0.0,0.0,0.0,0.0,0.0,0.0,0.0,0.0,0.0,0.0,0.0,0.0,0.0,0.0,0.0,0.0,0.0,0.0,0.0,0.0,0.0,0.0,0.0,0.0,0.0,0.0,0.0,0.0,0.0,0.0,0.0,0.0,0.0,0.0,0.0,0.0,0.0,0.0,0.0,0.0,0.0,0.0,0.0,0.0,0.0,0.0,0.0,0.0,0.0,0.0,0.0,0.0,0.0,0.0,0.0,0.0,0.0,0.0,0.0,0.0,0.0,0.0,0.0,0.0,0.0,0.0,0.0,0.0,0.0,0.0,0.0,0.0,0.0,0.0,0.0,0.0,0.0,0.0,0.0,0.0,0.0,0.0,0.0,0.0,0.0,0.0,0.0,0.0,0.0,0.0,0.0,0.0,0.0,0.0,0.0,0.0,0.0,0.0,0.0,0.0,0.0,0.0,0.0,0.0,0.0,0.0,0.0,0.0,0.0,0.0,0.0,0.0,0.0,0.0,0.0,0.0,0.0,0.0,0.0,0.0,0.0,0.0,0.0,0.0,0.0,0.0,0.0,0.0,0.0,0.0,0.0,0.0,0.0,0.0,0.0,0.0,0.0,0.0,0.0,0.0,0.0,0.0,0.0,0.0,0.0,0.0,0.0,0.0,0.0,0.0,0.0,0.0,0.0,0.0,0.0,0.0,0.0,0.0,0.0,0.0,0.0,0.0,0.0,0.0,0.0,0.0,0.0,0.0,0.0,0.0,0.0,0.0,0.0,0.0,0.0,0.0,0.0,0.0,0.0,0.0,0.0,0.0,0.0,0.0,0.0,0.0,0.0,0.0,0.0,0.0,0.0,0.0,0.0,0.0,0.0,0.0,0.0,0.0,0.0,0.0,0.0,0.0,0.0,0.0,0.0,0.0,0.0,0.0,0.0,0.0,0.0,0.0,0.0,0.0,0.0,0.0,0.0,0.0,0.0,0.0,0.0,0.0,0.0,0.0,0.0,0.0,0.0,0.0,0.0,0.0,0.0,0.0,0.0,0.0,0.0,0.0,0.0,0.0,0.0,0.0,0.0,0.0,0.0,0.0,0.0,0.0,0.0,0.0,0.0,0.0,0.0,0.0,0.0,0.0,0.0,0.0,0.0,0.0,0.0,0.0,0.0,0.0,0.0,0.0,0.0,0.0,0.0,0.0,0.0,0.0,0.0,0.0,0.0,0.0,0.0,0.0,0.0,0.0,0.0,0.0,0.0,0.0,0.0,0.0,0.0,0.0,0.0,0.0,0.0,0.0,0.0,0.0,0.0,0.0,0.0,0.0,0.0,0.0,0.0,0.0,0.0,0.0,0.0,0.0,0.0,0.0,0.0,0.0,0.0,0.0,0.0,0.0,0.0,0.0,0.0,0.0,0.0,0.0,0.0,0.0,0.0,0.0,0.0,0.0,0.0,0.0,0.0,0.0,0.0,0.0,0.0,0.0,0.0,0.0,0.0,0.0,0.0,0.0,0.0,0.0,0.0,0.0,0.0,0.0,0.0,0.0,0.0,0.0,0.0,0.0,0.0,0.0,0.0,0.0,0.0,0.0,0.0,0.0,0.0,0.0,0.0,0.0,0.0,0.0,0.0,0.0,0.0,0.0,0.0,0.0,0.0,0.0,0.0,0.0,0.0,0.0,0.0,0.0,0.0,0.0,0.0,0.0,0.0,0.0,0.0,0.0,0.0,0.0,0.0,0.0,0.0,0.0,0.0,0.0,0.0,0.0,0.0,0.0,0.0,0.0,0.0,0.0,0.0,0.0,0.0,0.0,0.0,0.0,0.0,0.0,0.0,0.0,0.0,0.0,0.0,0.0,0.0,0.0,0.0,0.0,0.0,0.0,0.0,0.0,0.0,0.0,0.0,0.0,0.0,0.0,0.0,0.0,0.0,0.0,0.0,0.0,0.0,0.0,0.0,0.0,0.0,0.0,0.0,0.0,0.0,0.0,0.0,0.0,0.0,0.0,0.0,0.0,0.0,0.0,0.0,0.0,0.0,0.0,0.0,0.0,0.0,0.0,0.0,0.0,0.0,0.0,0.0,0.0,0.0,0.0,0.0,0.0,0.0,0.0,0.0,0.0,0.0,0.0,0.0,0.0,0.0,0.0,0.0,0.0,0.0,0.0,0.0,0.0,0.0,0.0,0.0,0.0,0.0,0.0,0.0,0.0,0.0,0.0,0.0,0.0,0.0,0.0,0.0,0.0,0.0,0.0,0.0,0.0,0.0,0.0,0.0,0.0,0.0,0.0,0.0,0.0,0.0,0.0,0.0,0.0,0.0,0.0,0.0,0.0,0.0,0.0,0.0,0.0,0.0,0.0,0.0,0.0,0.0,0.0,0.0,0.0,0.0,0.0,0.0,0.0,0.0,0.0,0.0,1.9801,0.0,0.0,0.0,0.0,0.0,0.0,0.0,0.0,0.0,0.0,0.0,0.0,0.0,0.0,0.0,0.0,0.0,0.0,0.0,0.0,0.0,0.0,0.0,0.0,0.0,0.0,0.0,0.0,0.0,0.0,0.0,0.0,0.0,0.0,0.0,0.0,0.0,0.0,0.0,0.0,0.0,0.0,0.0,0.0,0.0,0.0,0.0,0.0,0.0,0.0,0.0,0.0,0.0,0.0,0.0,0.0,0.0,0.0,0.0,0.0,0.0,0.0,0.0,0.0,0.0,0.0,0.0,0.0,0.0,0.0,0.0,0.0,0.0,0.0,0.0,0.0,0.0,0.0,0.0,0.0,0.0,0.0,0.0,0.0,0.0,0.0,0.0,0.0,0.0,0.0,0.0,0.0,0.0,0.0,0.0,0.0,0.0,0.0,0.0,0.0,0.0,0.0,0.0,0.0,0.0,0.0,0.0,0.0,0.0,0.0,1.982,1.982,1.982,1.982,1.982,0.0,0.0,0.0,0.0,0.0,0.0,0.0,0.0,0.0,0.0,0.0,0.0,0.0,0.0,0.0,0.0,0.0,0.0,0.0,0.0,0.0,0.0,0.0,0.0,0.0,0.0,0.0,0.0,0.0,0.0,0.0,0.0,0.0,0.0,0.0,0.0,0.0,0.0,0.0,0.0,0.0,0.0,0.0,0.0,0.0,0.0,0.0,0.0,0.0,0.0,0.0,0.0,0.0,0.0,0.0,0.0,0.0,0.0,0.0,0.0,0.0,0.0,0.0,0.0,0.0,0.0,0.0,0.0,0.0,0.0,0.0,0.0,0.0,0.0,0.0,0.0,0.0,0.0,0.0,0.0,0.0,0.0,0.0,0.0,0.0,0.0,0.0,0.0,0.0,0.0,0.0,0.0,0.0,0.0,0.0,0.0,0.0,0.0,0.0,0.0,0.0,0.0,0.0,0.0,0.0,0.0,0.0,0.0,0.0,0.0,0.0,0.0,2.027,2.0348,2.0383,0.0,0.0,0.0,0.0,0.0,0.0,0.0,0.0,0.0,0.0,0.0,0.0,0.0,0.0,0.0,0.0,0.0,0.0,0.0,0.0,0.0,0.0,0.0,0.0,0.0,0.0,0.0,0.0,0.0,0.0,0.0,0.0,0.0,0.0,0.0,0.0,0.0,0.0,0.0,0.0,0.0,0.0,0.0,0.0,0.0,0.0,0.0,0.0,0.0,0.0,0.0,0.0,0.0,0.0,0.0,0.0,0.0,0.0,0.0,0.0,0.0,0.0,0.0,0.0,0.0,0.0,0.0,0.0,0.0,0.0,0.0,0.0,0.0,0.0,0.0,0.0,0.0,0.0,0.0,0.0,0.0,0.0,0.0,0.0,0.0,0.0,0.0,0.0,0.0,0.0,0.0,0.0,0.0,0.0,0.0,0.0,0.0,0.0,0.0,0.0,0.0,0.0,0.0,0.0,0.0,0.0,0.0,0.0,0.0,0.0,2.0884,2.0921,2.1669,0.0,2.2038,0.0,0.0,0.0,0.0,0.0,0.0,0.0,0.0,0.0,0.0,0.0,0.0,0.0,0.0,0.0,0.0,0.0,0.0,0.0,0.0,0.0,0.0,0.0,0.0,0.0,0.0,0.0,0.0,0.0,0.0,0.0,0.0,0.0,0.0,0.0,0.0,0.0,0.0,0.0,0.0,0.0,0.0,0.0,0.0,0.0,0.0,0.0,0.0,0.0,0.0,0.0,0.0,0.0,0.0,0.0,0.0,0.0,0.0,0.0,0.0,0.0,0.0,0.0,0.0,0.0,0.0,0.0,0.0,0.0,0.0,0.0,0.0,0.0,0.0,0.0,0.0,0.0,0.0,0.0,0.0,0.0,0.0,0.0,0.0,0.0,0.0,0.0,0.0,0.0,0.0,0.0,0.0,0.0,0.0,0.0,0.0,0.0,0.0,0.0,0.0,0.0,0.0,0.0,0.0,0.0,0.0,0.0,0.0,0.0,0.0,2.1782,2.1782,2.2116,2.2301,0.0,0.0,0.0,0.0,0.0,0.0,0.0,0.0,0.0,0.0,0.0,0.0,0.0,0.0,0.0,0.0,0.0,0.0,0.0,0.0,0.0,0.0,0.0,0.0,0.0,0.0,0.0,0.0,0.0,0.0,0.0,0.0,0.0,0.0,0.0,0.0,0.0,0.0,0.0,0.0,0.0,0.0,0.0,0.0,0.0,0.0,0.0,0.0,0.0,0.0,0.0,0.0,0.0,0.0,0.0,0.0,0.0,0.0,0.0,0.0,0.0,0.0,0.0,0.0,0.0,0.0,0.0,0.0,0.0,0.0,0.0,0.0,0.0,0.0,0.0,0.0,0.0,0.0,0.0,0.0,0.0,0.0,0.0,0.0,0.0,0.0,0.0,0.0,0.0,0.0,0.0,0.0,0.0,0.0,0.0,0.0,0.0,0.0,0.0,0.0,0.0,0.0,0.0,0.0,0.0,0.0,0.0,0.0,0.0,0.0,2.2192,2.2717,2.2939,2.2977,2.2977,2.2939,0.0,0.0,0.0,0.0,0.0,0.0,0.0,0.0,0.0,0.0,0.0,0.0,0.0,0.0,0.0,0.0,0.0,0.0,0.0,0.0,0.0,0.0,0.0,0.0,0.0,0.0,0.0,0.0,0.0,0.0,0.0,0.0,0.0,0.0,0.0,0.0,0.0,0.0,0.0,0.0,0.0,0.0,0.0,0.0,0.0,0.0,0.0,0.0,0.0,0.0,0.0,0.0,0.0,0.0,0.0,0.0,0.0,0.0,0.0,0.0,0.0,0.0,0.0,0.0,0.0,0.0,0.0,0.0,0.0,0.0,0.0,0.0,0.0,0.0,0.0,0.0,0.0,0.0,0.0,0.0,0.0,0.0,0.0,0.0,0.0,0.0,0.0,0.0,0.0,0.0,0.0,0.0,0.0,0.0,0.0,0.0,0.0,0.0,0.0,0.0,0.0,0.0,0.0,0.0,0.0,0.0,0.0,0.0,2.2229,2.3062,2.3814,2.4516,2.4595,2.4591,0.0,0.0,0.0,0.0,0.0,0.0,0.0,0.0,0.0,0.0,0.0,0.0,0.0,0.0,0.0,0.0,0.0,0.0,0.0,0.0,0.0,0.0,0.0,0.0,0.0,0.0,0.0,0.0,0.0,0.0,0.0,0.0,0.0,0.0,0.0,0.0,0.0,0.0,0.0,0.0,0.0,0.0,0.0,0.0,0.0,0.0,0.0,0.0,0.0,0.0,0.0,0.0,0.0,0.0,0.0,0.0,0.0,0.0,0.0,0.0,0.0,0.0,0.0,0.0,0.0,0.0,0.0,0.0,0.0,0.0,0.0,0.0,0.0,0.0,0.0,0.0,0.0,0.0,0.0,0.0,0.0,0.0,0.0,0.0,0.0,0.0,0.0,0.0,0.0,0.0,0.0,0.0,0.0,0.0,0.0,0.0,0.0,0.0,0.0,0.0,0.0,0.0,0.0,0.0,0.0,0.0,0.0,0.0,0.0,2.3096,2.4415,2.4978,2.4741,2.5237,2.5271,0.0,0.0,0.0,0.0,0.0,0.0,0.0,0.0,0.0,0.0,0.0,0.0,0.0,0.0,0.0,0.0,0.0,0.0,0.0,0.0,0.0,0.0,0.0,0.0,0.0,0.0,0.0,0.0,0.0,0.0,0.0,0.0,0.0,0.0,0.0,0.0,0.0,0.0,0.0,0.0,0.0,0.0,0.0,0.0,0.0,0.0,0.0,0.0,0.0,0.0,0.0,0.0,0.0,0.0,0.0,0.0,0.0,0.0,0.0,0.0,0.0,0.0,0.0,0.0,0.0,0.0,0.0,0.0,0.0,0.0,0.0,0.0,0.0,0.0,0.0,0.0,0.0,0.0,0.0,0.0,0.0,0.0,0.0,0.0,0.0,0.0,0.0,0.0,0.0,0.0,0.0,0.0,0.0,0.0,0.0,0.0,0.0,0.0,0.0,0.0,0.0,0.0,0.0,0.0,0.0,0.0,0.0,0.0,0.0,2.4343,0.0,2.6105,2.5567,2.6067,2.5992,0.0,0.0,0.0,0.0,0.0,0.0,0.0,0.0,0.0,0.0,0.0,0.0,0.0,0.0,0.0,0.0,0.0,0.0,0.0,0.0,0.0,0.0,0.0,0.0,0.0,0.0,0.0,0.0,0.0,0.0,0.0,0.0,0.0,0.0,0.0,0.0,0.0,0.0,0.0,0.0,0.0,0.0,0.0,0.0,0.0,0.0,0.0,0.0,0.0,0.0,0.0,0.0,0.0,0.0,0.0,0.0,0.0,0.0,0.0,0.0,0.0,0.0,0.0,0.0,0.0,0.0,0.0,0.0,0.0,0.0,0.0,0.0,0.0,0.0,0.0,0.0,0.0,0.0,0.0,0.0,0.0,0.0,0.0,0.0,0.0,0.0,0.0,0.0,0.0,0.0,0.0,0.0,0.0,0.0,0.0,0.0,0.0,0.0,0.0,0.0,0.0,0.0,0.0,0.0,0.0,0.0,0.0,0.0,2.4452,2.5959,2.6852,2.7303,2.7223,2.7261,2.6852,0.0,0.0,0.0,0.0,0.0,0.0,0.0,0.0,0.0,0.0,0.0,0.0,0.0,0.0,0.0,0.0,0.0,0.0,0.0,0.0,0.0,0.0,0.0,0.0,0.0,0.0,0.0,0.0,0.0,0.0,0.0,0.0,0.0,0.0,0.0,0.0,0.0,0.0,0.0,0.0,0.0,0.0,0.0,0.0,0.0,0.0,0.0,0.0,0.0,0.0,0.0,0.0,0.0,0.0,0.0,0.0,0.0,0.0,0.0,0.0,0.0,0.0,0.0,0.0,0.0,0.0,0.0,0.0,0.0,0.0,0.0,0.0,0.0,0.0,0.0,0.0,0.0,0.0,0.0,0.0,0.0,0.0,0.0,0.0,0.0,0.0,0.0,0.0,0.0,0.0,0.0,0.0,0.0,0.0,0.0,0.0,0.0,0.0,0.0,0.0,0.0,0.0,0.0,0.0,0.0,0.0,0.0,0.0,0.0,2.7707,2.9016,2.9476,2.895,2.8917,2.8533,0.0,0.0,0.0,0.0,0.0,0.0,0.0,0.0,0.0,0.0,0.0,0.0,0.0,0.0,0.0,0.0,0.0,0.0,0.0,0.0,0.0,0.0,0.0,0.0,0.0,0.0,0.0,0.0,0.0,0.0,0.0,0.0,0.0,0.0,0.0,0.0,0.0,0.0,0.0,0.0,0.0,0.0,0.0,0.0,0.0,0.0,0.0,0.0,0.0,0.0,0.0,0.0,0.0,0.0,0.0,0.0,0.0,0.0,0.0,0.0,0.0,0.0,0.0,0.0,0.0,0.0,0.0,0.0,0.0,0.0,0.0,0.0,0.0,0.0,0.0,0.0,0.0,0.0,0.0,0.0,0.0,0.0,0.0,0.0,0.0,0.0,0.0,0.0,0.0,0.0,0.0,0.0,0.0,0.0,0.0,0.0,0.0,0.0,0.0,0.0,0.0,0.0,0.0,0.0,0.0,0.0,0.0,0.0,0.0,3.1114,3.1836,3.1953,3.1471,3.1177,3.046,2.9284,0.0,0.0,0.0,0.0,0.0,0.0,0.0,0.0,0.0,0.0,0.0,0.0,0.0,0.0,0.0,0.0,0.0,0.0,0.0,0.0,0.0,0.0,0.0,0.0,0.0,0.0,0.0,0.0,0.0,0.0,0.0,0.0,0.0,0.0,0.0,0.0,0.0,0.0,0.0,0.0,0.0,0.0,0.0,0.0,0.0,0.0,0.0,0.0,0.0,0.0,0.0,0.0,0.0,0.0,0.0,0.0,0.0,0.0,0.0,0.0,0.0,0.0,0.0,0.0,0.0,0.0,0.0,0.0,0.0,0.0,0.0,0.0,0.0,0.0,0.0,0.0,0.0,0.0,0.0,0.0,0.0,0.0,0.0,0.0,0.0,0.0,0.0,0.0,0.0,0.0,0.0,0.0,0.0,0.0,0.0,0.0,0.0,0.0,0.0,0.0,0.0,0.0,0.0,0.0,0.0,0.0,0.0,0.0,3.5745,3.5154,3.4706,3.4499,3.3715,3.259,0.0,0.0,0.0,0.0,0.0,0.0,0.0,0.0,0.0,0.0,0.0,0.0,0.0,0.0,0.0,0.0,0.0,0.0,0.0,0.0,0.0,0.0,0.0,0.0,0.0,0.0,0.0,0.0,0.0,0.0,0.0,0.0,0.0,0.0,0.0,0.0,0.0,0.0,0.0,0.0,0.0,0.0,0.0,0.0,0.0,0.0,0.0,0.0,0.0,0.0,0.0,0.0,0.0,0.0,0.0,0.0,0.0,0.0,0.0,0.0,0.0,0.0,0.0,0.0,0.0,0.0,0.0,0.0,0.0,0.0,0.0,0.0,0.0,0.0,0.0,0.0,0.0,0.0,0.0,0.0,0.0,0.0,0.0,0.0,0.0,0.0,0.0,0.0,0.0,0.0,0.0,0.0,0.0,0.0,0.0,0.0,0.0,0.0,0.0,0.0,0.0,0.0,0.0,0.0,0.0,0.0,0.0,0.0,0.0,3.8192,3.9188,3.862,3.6329,3.5427,3.4488,0.0,0.0,0.0,0.0,0.0,0.0,0.0,0.0,0.0,0.0,0.0,0.0,0.0,0.0,0.0,0.0,0.0,0.0,0.0,0.0,0.0,0.0,0.0,0.0,0.0,0.0,0.0,0.0,0.0,0.0,0.0,0.0,0.0,0.0,0.0,0.0,0.0,0.0,0.0,0.0,0.0,0.0,0.0,0.0,0.0,0.0,0.0,0.0,0.0,0.0,0.0,0.0,0.0,0.0,0.0,0.0,0.0,0.0,0.0,0.0,0.0,0.0,0.0,0.0,0.0,0.0,0.0,0.0,0.0,0.0,0.0,0.0,0.0,0.0,0.0,0.0,0.0,0.0,0.0,0.0,0.0,0.0,0.0,0.0,0.0,0.0,0.0,0.0,0.0,0.0,0.0,0.0,0.0,0.0,0.0,0.0,0.0,0.0,0.0,0.0,0.0,0.0,0.0,0.0,0.0,0.0,0.0,0.0,3.8238,4.0186,4.1118,4.0723,3.89,3.7739,3.654,0.0,0.0,0.0,0.0,0.0,0.0,0.0,0.0,0.0,0.0,0.0,0.0,0.0,0.0,0.0,0.0,0.0,0.0,0.0,0.0,0.0,0.0,0.0,0.0,0.0,0.0,0.0,0.0,0.0,0.0,0.0,0.0,0.0,0.0,0.0,0.0,0.0,0.0,0.0,0.0,0.0,0.0,0.0,0.0,0.0,0.0,0.0,0.0,0.0,0.0,0.0,0.0,0.0,0.0,0.0,0.0,0.0,0.0,0.0,0.0,0.0,0.0,0.0,0.0,0.0,0.0,0.0,0.0,0.0,0.0,0.0,0.0,0.0,0.0,0.0,0.0,0.0,0.0,0.0,0.0,0.0,0.0,0.0,0.0,0.0,0.0,0.0,0.0,0.0,0.0,0.0,0.0,0.0,0.0,0.0,0.0,0.0,0.0,0.0,0.0,0.0,0.0,0.0,0.0,0.0,0.0,0.0,0.0,3.9535,4.1802,4.2017,4.2054,4.1943,4.0271,3.8606,0.0,0.0,0.0,0.0,0.0,0.0,0.0,0.0,0.0,0.0,0.0,0.0,0.0,0.0,0.0,0.0,0.0,0.0,0.0,0.0,0.0,0.0,0.0,0.0,0.0,0.0,0.0,0.0,0.0,0.0,0.0,0.0,0.0,0.0,0.0,0.0,0.0,0.0,0.0,0.0,0.0,0.0,0.0,0.0,0.0,0.0,0.0,0.0,0.0,0.0,0.0,0.0,0.0,0.0,0.0,0.0,0.0,0.0,0.0,0.0,0.0,0.0,0.0,0.0,0.0,0.0,0.0,0.0,0.0,0.0,0.0,0.0,0.0,0.0,0.0,0.0,0.0,0.0,0.0,0.0,0.0,0.0,0.0,0.0,0.0,0.0,0.0,0.0,0.0,0.0,0.0,0.0,0.0,0.0,0.0,0.0,0.0,0.0,0.0,0.0,0.0,0.0,0.0,0.0,0.0,0.0,0.0,0.0,4.2314,4.3466,4.4774,4.5138,4.4514,4.2285,4.0278,0.0,0.0,0.0,0.0,0.0,0.0,0.0,0.0,0.0,0.0,0.0,0.0,0.0,0.0,0.0,0.0,0.0,0.0,0.0,0.0,0.0,0.0,0.0,0.0,0.0,0.0,0.0,0.0,0.0,0.0,0.0,0.0,0.0,0.0,0.0,0.0,0.0,0.0,0.0,0.0,0.0,0.0,0.0,0.0,0.0,0.0,0.0,0.0,3.5618,0.0,0.0,0.0,0.0,0.0,0.0,0.0,0.0,0.0,0.0,0.0,0.0,0.0,0.0,0.0,0.0,0.0,0.0,0.0,0.0,0.0,0.0,0.0,0.0,0.0,0.0,0.0,0.0,0.0,0.0,0.0,0.0,0.0,0.0,0.0,0.0,0.0,0.0,0.0,0.0,0.0,0.0,0.0,0.0,0.0,0.0,0.0,0.0,0.0,0.0,0.0,0.0,0.0,0.0,0.0,0.0,0.0,0.0,0.0,4.3949,4.5138,4.603,4.629,4.5844,4.4217,4.2203,0.0,0.0,0.0,0.0,0.0,0.0,0.0,0.0,0.0,0.0,0.0,0.0,0.0,0.0,0.0,0.0,0.0,0.0,0.0,0.0,0.0,0.0,0.0,0.0,0.0,0.0,0.0,0.0,0.0,0.0,0.0,0.0,0.0,0.0,0.0,0.0,0.0,0.0,0.0,0.0,0.0,0.0,0.0,0.0,0.0,0.0,0.0,0.0,0.0,0.0,0.0,0.0,0.0,0.0,0.0,0.0,0.0,0.0,0.0,0.0,0.0,0.0,0.0,0.0,0.0,0.0,0.0,0.0,0.0,0.0,0.0,0.0,0.0,0.0,0.0,0.0,0.0,0.0,0.0,0.0,0.0,0.0,0.0,0.0,0.0,0.0,0.0,0.0,0.0,0.0,0.0,0.0,0.0,0.0,0.0,0.0,0.0,0.0,0.0,0.0,0.0,0.0,0.0,0.0,0.0,0.0,0.0,4.3214,4.5324,4.6773,4.6847,4.6847,4.6855,4.6112,4.4143,4.0873,0.0,0.0,0.0,0.0,0.0,0.0,0.0,0.0,0.0,0.0,0.0,0.0,0.0,0.0,0.0,0.0,0.0,0.0,0.0,0.0,0.0,0.0,0.0,0.0,0.0,0.0,0.0,0.0,0.0,0.0,0.0,0.0,0.0,0.0,0.0,0.0,0.0,0.0,3.178,3.4387,0.0,0.0,0.0,0.0,0.0,0.0,0.0,0.0,3.9849,0.0,0.0,0.0,0.0,0.0,0.0,0.0,0.0,0.0,0.0,0.0,0.0,0.0,0.0,0.0,0.0,0.0,0.0,0.0,0.0,0.0,0.0,0.0,0.0,0.0,0.0,0.0,0.0,0.0,0.0,0.0,0.0,0.0,0.0,0.0,0.0,0.0,0.0,0.0,0.0,0.0,0.0,0.0,0.0,0.0,0.0,0.0,0.0,0.0,0.0,0.0,0.0,0.0,0.0,0.0,0.0,4.1393,4.5138,4.7553,4.8481,4.8519,4.8519,4.8481,4.7738,4.5769,4.25,0.0,0.0,0.0,0.0,0.0,0.0,0.0,0.0,0.0,0.0,0.0,0.0,0.0,0.0,0.0,0.0,0.0,0.0,0.0,0.0,0.0,0.0,0.0,0.0,0.0,0.0,0.0,0.0,0.0,0.0,0.0,0.0,0.0,0.0,0.0,0.0,0.0,0.0,0.0,3.8124,3.9814,0.0,0.0,0.0,0.0,0.0,0.0,0.0,0.0,4.3244,0.0,0.0,0.0,0.0,0.0,0.0,0.0,0.0,0.0,0.0,0.0,0.0,0.0,0.0,0.0,0.0,0.0,0.0,0.0,0.0,0.0,0.0,0.0,0.0,0.0,0.0,0.0,0.0,0.0,0.0,0.0,0.0,0.0,0.0,0.0,0.0,0.0,0.0,0.0,0.0,0.0,0.0,0.0,0.0,0.0,0.0,0.0,0.0,0.0,0.0,0.0,0.0,0.0,0.0,0.0,4.3511,4.6698,4.8742,4.9559,5.0005,4.9968,4.9513,4.8742,4.6773,0.0,0.0,0.0,0.0,0.0,0.0,0.0,0.0,0.0,0.0,0.0,0.0,0.0,0.0,0.0,0.0,0.0,0.0,0.0,0.0,0.0,0.0,0.0,0.0,0.0,0.0,0.0,0.0,0.0,0.0,0.0,0.0,0.0,0.0,0.0,0.0,0.0,0.0,0.0,0.0,4.0675,4.2521,4.4243,0.0,0.0,0.0,0.0,0.0,0.0,4.6892,4.6059,0.0,0.0,0.0,0.0,0.0,0.0,0.0,0.0,0.0,0.0,0.0,0.0,0.0,0.0,0.0,0.0,0.0,0.0,0.0,0.0,0.0,0.0,0.0,0.0,0.0,0.0,0.0,0.0,0.0,0.0,0.0,0.0,0.0,0.0,0.0,0.0,0.0,0.0,0.0,0.0,0.0,0.0,0.0,0.0,0.0,0.0,0.0,0.0,0.0,0.0,0.0,0.0,0.0,0.0,0.0,4.5443,4.7924,4.9624,5.0636,5.1156,5.1156,5.059,4.9661,4.7701,0.0,0.0,0.0,0.0,0.0,0.0,0.0,0.0,0.0,0.0,0.0,0.0,0.0,0.0,0.0,0.0,0.0,0.0,0.0,0.0,0.0,0.0,0.0,0.0,0.0,0.0,0.0,0.0,0.0,0.0,0.0,0.0,0.0,0.0,0.0,0.0,0.0,0.0,0.0,0.0,0.0,4.4909,4.6885,4.7775,0.0,0.0,0.0,0.0,4.8775,4.9209,0.0,0.0,0.0,0.0,0.0,0.0,0.0,0.0,0.0,0.0,0.0,0.0,0.0,0.0,0.0,0.0,0.0,0.0,0.0,0.0,0.0,0.0,0.0,0.0,0.0,0.0,0.0,0.0,0.0,0.0,0.0,0.0,0.0,0.0,0.0,0.0,0.0,0.0,0.0,0.0,0.0,0.0,0.0,0.0,0.0,0.0,0.0,0.0,0.0,0.0,0.0,0.0,0.0,0.0,0.0,0.0,4.629,4.8733,5.0739,5.2197,5.1704,5.1667,5.2271,5.0785,4.877,0.0,0.0,0.0,0.0,0.0,0.0,0.0,0.0,0.0,0.0,0.0,0.0,0.0,0.0,0.0,0.0,0.0,0.0,0.0,0.0,0.0,0.0,0.0,0.0,0.0,0.0,0.0,0.0,0.0,0.0,0.0,0.0,0.0,0.0,0.0,0.0,0.0,0.0,0.0,0.0,0.0,4.7029,5.0116,5.0644,5.1232,0.0,0.0,5.2878,5.2082,5.2009,0.0,0.0,0.0,0.0,0.0,0.0,0.0,0.0,0.0,0.0,0.0,0.0,0.0,0.0,0.0,0.0,0.0,0.0,0.0,0.0,0.0,0.0,0.0,0.0,0.0,0.0,0.0,0.0,0.0,0.0,0.0,0.0,0.0,0.0,0.0,0.0,0.0,0.0,0.0,0.0,0.0,0.0,0.0,0.0,0.0,0.0,0.0,0.0,0.0,0.0,0.0,0.0,0.0,0.0,0.0,4.4581,4.785,5.0702,5.2568,5.3274,5.3868,5.3905,5.3274,5.2568,5.0413,0.0,0.0,0.0,0.0,0.0,0.0,0.0,0.0,0.0,0.0,0.0,0.0,0.0,0.0,0.0,0.0,0.0,0.0,0.0,0.0,0.0,0.0,0.0,0.0,0.0,0.0,0.0,0.0,0.0,0.0,0.0,0.0,0.0,0.0,0.0,0.0,0.0,0.0,0.0,0.0,0.0,0.0,5.1342,5.2231,0.0,0.0,0.0,5.4243,5.3929,0.0,0.0,0.0,0.0,0.0,0.0,0.0,0.0,0.0,0.0,0.0,0.0,0.0,0.0,0.0,0.0,0.0,0.0,0.0,0.0,0.0,0.0,0.0,0.0,0.0,0.0,0.0,0.0,0.0,0.0,0.0,0.0,0.0,0.0,0.0,0.0,0.0,0.0,0.0,0.0,0.0,0.0,0.0,0.0,0.0,0.0,0.0,0.0,0.0,0.0,0.0,0.0,0.0,0.0,0.0,0.0,0.0,4.9485,5.2345,5.4128,5.476,5.5949,5.6023,5.4797,5.4351,0.0,0.0,0.0,0.0,0.0,0.0,0.0,0.0,0.0,0.0,0.0,0.0,0.0,0.0,0.0,0.0,0.0,0.0,0.0,0.0,0.0,0.0,0.0,0.0,0.0,0.0,0.0,3.1963,0.0,0.0,0.0,0.0,0.0,0.0,0.0,0.0,0.0,0.0,0.0,0.0,0.0,0.0,4.9481,5.2567,5.3929,5.4919,0.0,0.0,5.5703,5.5522,5.4798,5.3675,0.0,0.0,0.0,0.0,0.0,0.0,0.0,0.0,0.0,0.0,0.0,0.0,0.0,0.0,0.0,0.0,0.0,0.0,0.0,0.0,0.0,0.0,0.0,0.0,0.0,0.0,0.0,0.0,0.0,0.0,0.0,0.0,0.0,0.0,0.0,0.0,0.0,0.0,0.0,0.0,0.0,0.0,0.0,0.0,0.0,0.0,0.0,0.0,0.0,0.0,0.0,0.0,0.0,0.0,4.6401,5.1082,5.294,5.4936,5.7127,5.735,5.735,5.7239,5.5753,5.371,0.0,0.0,0.0,0.0,0.0,0.0,0.0,0.0,0.0,0.0,0.0,0.0,0.0,0.0,0.0,0.0,0.0,0.0,0.0,0.0,0.0,0.0,0.0,0.0,0.0,0.0,0.0,0.0,0.0,0.0,0.0,0.0,0.0,0.0,0.0,0.0,0.0,0.0,0.0,0.0,0.0,5.1366,5.4396,5.6128,5.7412,0.0,5.8243,5.7913,5.7152,5.6368,5.5064,5.2818,0.0,0.0,0.0,0.0,0.0,0.0,0.0,0.0,0.0,0.0,0.0,0.0,0.0,0.0,0.0,0.0,0.0,0.0,0.0,0.0,0.0,0.0,0.0,0.0,0.0,0.0,0.0,0.0,0.0,0.0,0.0,0.0,0.0,0.0,0.0,0.0,0.0,0.0,0.0,0.0,0.0,0.0,0.0,0.0,0.0,0.0,0.0,0.0,0.0,0.0,0.0,0.0,0.0,4.8956,5.2819,5.5456,5.7276,5.8242,5.9255,5.9505,5.8985,5.787,5.6125,0.0,0.0,0.0,0.0,0.0,0.0,0.0,0.0,0.0,0.0,0.0,0.0,0.0,0.0,0.0,0.0,0.0,0.0,0.0,0.0,0.0,0.0,0.0,0.0,0.0,0.0,0.0,0.0,4.2455,4.4177,4.4569,0.0,0.0,0.0,0.0,0.0,0.0,0.0,0.0,0.0,0.0,5.2579,5.6102,5.7146,0.0,0.0,5.9403,5.9267,5.8863,5.7713,5.6527,5.5534,5.3252,0.0,0.0,0.0,0.0,0.0,0.0,0.0,0.0,0.0,0.0,0.0,0.0,0.0,0.0,0.0,0.0,0.0,0.0,0.0,0.0,0.0,0.0,0.0,0.0,0.0,0.0,0.0,0.0,0.0,0.0,0.0,0.0,0.0,0.0,0.0,0.0,0.0,0.0,0.0,0.0,0.0,0.0,0.0,0.0,0.0,0.0,0.0,0.0,0.0,0.0,0.0,0.0,5.1156,5.4871,5.7425,5.9059,5.9802,6.0953,6.125,6.0656,5.9616,5.8019,0.0,0.0,0.0,0.0,0.0,0.0,0.0,0.0,0.0,0.0,0.0,0.0,0.0,0.0,0.0,0.0,0.0,0.0,0.0,0.0,0.0,0.0,0.0,0.0,0.0,0.0,0.0,0.0,4.5314,4.67,4.6846,0.0,0.0,0.0,0.0,0.0,0.0,0.0,0.0,0.0,0.0,5.4371,5.7253,5.8263,5.914,6.0235,6.0392,6.0329,6.024,5.9099,5.8067,5.7675,0.0,0.0,0.0,0.0,0.0,0.0,0.0,0.0,0.0,0.0,0.0,0.0,0.0,0.0,0.0,0.0,0.0,0.0,0.0,0.0,0.0,0.0,0.0,0.0,0.0,0.0,0.0,3.5374,0.0,0.0,3.3199,0.0,0.0,0.0,0.0,0.0,0.0,0.0,0.0,0.0,0.0,0.0,0.0,0.0,0.0,0.0,0.0,0.0,0.0,0.0,0.0,0.0,0.0,5.2615,5.736,5.8364,5.9924,6.2227,6.2376,6.2402,6.2339,6.0768,5.9133,5.7462,0.0,0.0,0.0,0.0,0.0,0.0,0.0,0.0,0.0,0.0,0.0,0.0,0.0,0.0,0.0,0.0,0.0,0.0,0.0,0.0,0.0,0.0,0.0,0.0,0.0,0.0,4.7865,4.8309,4.8486,0.0,0.0,0.0,0.0,0.0,0.0,0.0,0.0,0.0,5.2756,5.5141,5.6949,5.7797,5.9847,6.1359,6.142,6.1319,6.123,6.1242,6.0549,5.966,0.0,0.0,0.0,0.0,0.0,0.0,0.0,0.0,0.0,0.0,0.0,0.0,0.0,0.0,0.0,0.0,0.0,0.0,0.0,0.0,0.0,0.0,0.0,0.0,0.0,0.0,0.0,4.1198,4.0367,0.0,0.0,0.0,0.0,0.0,0.0,0.0,0.0,0.0,0.0,0.0,5.0455,5.0717,0.0,0.0,0.0,0.0,0.0,0.0,0.0,0.0,0.0,0.0,0.0,0.0,5.606,5.9258,6.1245,6.2625,6.3435,6.4428,6.4942,6.4904,6.3264,6.1065,5.839,0.0,0.0,0.0,0.0,0.0,0.0,0.0,0.0,0.0,0.0,0.0,0.0,0.0,0.0,0.0,0.0,0.0,0.0,0.0,0.0,0.0,0.0,0.0,0.0,0.0,4.9113,0.0,0.0,0.0,0.0,0.0,0.0,0.0,0.0,0.0,0.0,0.0,5.4633,5.5633,5.746,5.934,6.1148,6.2584,6.3653,0.0,0.0,0.0,0.0,0.0,0.0,0.0,0.0,0.0,0.0,0.0,0.0,0.0,0.0,5.1508,4.8974,4.8941,4.9304,4.9293,0.0,0.0,0.0,0.0,0.0,0.0,0.0,0.0,0.0,0.0,0.0,0.0,0.0,0.0,4.6467,0.0,4.5761,0.0,0.0,0.0,0.0,0.0,0.0,0.0,0.0,5.4074,5.5116,5.5679,5.5679,5.6092,0.0,5.6335,5.4167,0.0,0.0,0.0,0.0,0.0,0.0,0.0,0.0,5.9116,6.1535,6.344,6.4561,6.486,6.5781,6.6258,6.6258,6.4581,6.2372,5.9664,5.7462,5.5307,0.0,0.0,0.0,0.0,0.0,0.0,0.0,0.0,0.0,0.0,0.0,0.0,0.0,0.0,0.0,0.0,0.0,0.0,0.0,0.0,0.0,0.0,0.0,5.2644,0.0,0.0,0.0,0.0,0.0,0.0,0.0,0.0,0.0,5.3541,5.6061,5.8389,5.9239,6.074,6.2364,6.3918,0.0,0.0,0.0,0.0,0.0,0.0,0.0,6.4659,6.4521,6.318,6.1905,6.1188,5.9774,5.8908,5.942,0.0,0.0,5.3497,5.3149,5.3512,5.3512,5.459,5.5607,5.5849,5.6588,5.7569,0.0,0.0,0.0,0.0,0.0,0.0,0.0,0.0,5.122,5.1893,0.0,5.1128,0.0,0.0,0.0,0.0,5.3655,5.4599,0.0,0.0,5.8564,5.947,6.0972,6.1009,6.1462,6.2264,6.2255,6.2227,6.1944,5.7141,0.0,0.0,0.0,0.0,0.0,0.0,6.1725,6.4081,6.5015,6.5779,6.6515,6.659,6.6579,6.6456,6.4852,6.314,6.1357,5.9701,5.8066,5.6395,5.3274,0.0,0.0,0.0,0.0,0.0,0.0,0.0,0.0,0.0,0.0,0.0,0.0,0.0,0.0,0.0,0.0,0.0,0.0,0.0,0.0,5.5188,0.0,0.0,0.0,0.0,0.0,0.0,0.0,0.0,0.0,0.0,5.8,6.0219,6.2452,6.3302,0.0,0.0,0.0,0.0,6.6263,6.6349,6.6312,6.6374,6.63,6.6194,6.6074,6.5878,0.0,0.0,6.3247,6.3076,6.3039,6.3063,6.3039,6.1985,5.8701,5.791,5.7813,5.7838,5.8482,5.9322,6.0124,6.0951,6.2021,5.664,0.0,0.0,0.0,0.0,5.4642,5.5042,5.4746,5.6412,5.6776,5.6277,5.6208,0.0,0.0,0.0,0.0,0.0,0.0,6.1507,6.2218,6.2778,6.3641,6.4664,6.4664,6.5383,6.6709,6.6747,6.705,6.758,6.6134,6.3633,6.0254,0.0,0.0,0.0,0.0,6.577,6.705,6.847,6.9256,6.9386,6.991,6.9525,6.8223,6.7094,6.5467,6.3281,6.2077,6.046,5.8236,5.6072,0.0,0.0,0.0,0.0,0.0,0.0,0.0,0.0,0.0,0.0,0.0,0.0,0.0,0.0,0.0,0.0,0.0,0.0,0.0,5.8807,5.9092,5.9333,0.0,0.0,0.0,0.0,0.0,0.0,0.0,0.0,0.0,6.4886,6.503,6.5467,0.0,0.0,6.8493,6.9717,7.0865,7.16,7.1696,7.211,0.0,7.0892,7.0609,7.0326,6.9632,6.8766,6.7839,6.6914,6.6766,6.6753,6.6753,6.6666,6.627,6.5273,6.2976,6.1407,6.122,6.2217,6.3384,6.4274,6.5464,6.6742,6.3573,6.0407,5.9197,5.8437,5.8137,5.9403,5.9722,5.9532,6.0857,6.1167,6.0741,6.0911,6.0963,6.0963,6.0859,0.0,0.0,0.0,6.5926,6.6306,6.6792,6.7429,6.8265,6.8606,6.9442,7.0658,7.1038,7.1494,7.1987,7.1987,7.0412,6.7343,0.0,0.0,6.6721,6.8035,6.8923,6.9413,7.0687,7.1295,7.1207,7.1643,7.1275,7.0027,6.8844,6.749,6.5992,6.4459,6.2785,6.0994,5.9292,5.724,0.0,0.0,0.0,0.0,0.0,0.0,0.0,0.0,0.0,0.0,0.0,4.6283,4.8567,0.0,0.0,0.0,5.7623,6.0458,6.3158,6.3044,0.0,0.0,0.0,0.0,0.0,0.0,0.0,6.5906,6.7593,6.907,6.9949,7.0132,7.0038,6.9825,7.0784,7.1929,7.2984,0.0,7.3749,7.4131,7.4249,7.409,7.3501,7.3258,7.2901,7.1969,7.1052,7.0285,6.9691,6.978,7.0004,7.0066,7.045,7.082,7.0769,6.9183,6.7167,6.5217,6.5739,6.6863,6.7683,6.8894,7.0215,6.9562,6.8504,6.4586,6.2815,6.2598,6.3361,6.3823,6.3973,6.47,6.5095,6.5243,6.5314,6.5402,6.5564,6.6493,0.0,6.9306,6.9391,6.9848,7.061,7.061,7.1067,7.1828,7.2628,7.3419,7.4257,7.5018,7.5437,7.5399,7.5399,7.5437,7.5437,7.2282,7.0517,7.0384,7.1124,7.1493,7.1443,7.2228,7.2611,7.2524,7.2352,7.217,7.1914,7.0298,6.9325,6.9001,6.6836,6.5191,6.4209,6.2714,6.0808,5.8406,0.0,0.0,0.0,0.0,0.0,0.0,0.0,0.0,0.0,0.0,0.0,0.0,0.0,0.0,6.0594,6.2969,0.0,6.678,6.6876,0.0,0.0,0.0,6.7339,6.7598,6.8278,6.8759,6.891,0.0,0.0,7.3619,7.5027,7.5425,7.3695,7.4745,7.5732,7.5818,7.4804,7.4153,7.5172,7.453,7.4342,7.5279,7.5137,7.4708,7.3891,7.2699,7.2405,7.2344,7.2663,7.304,7.3115,7.4187,7.4985,7.4909,7.5132,7.4582,6.9641,6.9451,7.0164,7.0964,7.18,7.3028,7.3609,7.3344,7.2405,7.0109,6.7033,6.7817,6.8253,6.8449,6.8639,6.8807,6.8897,6.8953,6.9283,6.991,7.0882,7.184,7.2879,7.3627,7.4035,7.4226,7.4226,7.4646,7.5439,7.5668,7.6202,7.7004,7.7224,7.7348,7.7338,7.7348,7.7691,7.8273,7.7473,7.6007,7.4068,7.4733,7.5142,7.5123,7.5949,7.6316,7.6093,7.4798,7.4002,7.3824,7.2267,7.1024,7.0234,6.9605,6.8243,6.6122,6.5512,6.4422,6.2591,6.0359,0.0,0.0,0.0,0.0,0.0,0.0,0.0,0.0,0.0,5.5314,5.8536,0.0,6.3099,0.0,6.6387,6.7881,6.9471,6.9206,0.0,0.0,7.0027,7.0559,7.1897,7.2238,7.2854,7.4103,7.4926,7.5683,7.6337,7.7407,7.8159,7.8257,7.7359,7.6897,7.7617,7.8516,7.9056,7.9248,7.9517,7.9776,7.9259,7.8708,7.8119,7.7971,7.7684,7.7597,7.7548,7.7116,7.6782,7.6771,7.6413,7.6229,7.6169,7.6219,7.6007,7.4685,7.4747,7.5125,7.5296,7.5865,7.6357,7.6549,7.6245,7.6684,7.5237,7.2643,7.231,7.2196,7.229,7.2299,7.2383,7.2474,7.2518,7.2993,7.3756,7.4305,7.501,7.5859,7.6791,7.7191,7.7229,7.7573,7.7946,7.8404,7.8787,7.9207,7.9704,8.0047,8.0238,8.0238,8.0238,8.0477,8.0936,8.0936,8.0201,7.8723,7.8361,7.8228,7.818,7.8598,7.8595,7.8093,7.7131,7.6366,7.5835,7.422,7.3051,7.2444,7.1568,7.0283,6.8479,6.8296,6.7487,6.5966,6.4599,6.297,0.0,0.0,0.0,0.0,0.0,0.0,0.0,0.0,0.0,0.0,0.0,6.6954,6.9284,7.0072,7.1308,7.3361,7.3225,7.3243,7.3851,7.3909,7.429,7.5329,7.5415,7.5794,7.6706,7.7465,7.8121,7.8615,7.9768,8.0684,8.114,8.0233,7.9719,8.0179,8.0791,8.1186,8.162,8.1739,8.1748,8.154,8.0802,8.0212,8.0163,7.9853,7.9592,7.9592,7.9764,7.9845,7.987,8.0275,8.0616,8.058,8.0894,8.1094,8.1081,8.1174,8.0522,7.8688,7.8787,7.9288,7.9237,7.8627,7.9256,7.9162,7.8398,7.6903,7.5979,7.5561,7.5684,7.5798,7.5957,7.6085,7.6618,7.7335,7.7373,7.7831,7.8672,7.9407,7.9789,7.9827,8.0515,8.0812,8.0859,8.1614,8.1958,8.1996,8.2655,8.2999,8.2999,8.3114,8.3228,8.3305,8.3458,8.3534,8.3572,8.2187,8.1309,8.0917,8.0686,8.0207,7.954,7.9388,7.8881,7.784,7.6258,7.5322,7.5029,7.3393,7.2057,7.1207,7.1008,7.0245,6.8796,6.8618,6.7575,0.0,6.5283,0.0,0.0,0.0,0.0,0.0,0.0,0.0,0.0,6.8703,7.0571,7.3458,7.377,7.481,7.7073,7.7273,7.7348,7.7486,7.7506,7.766,7.794,7.8035,7.8111,7.8302,7.9634,8.051,8.0576,8.1824,8.271,8.2787,8.2759,8.2749,8.2949,8.2385,8.2164,8.2804,8.2385,8.2481,8.2939,8.2434,8.1962,8.1913,8.163,8.0745,8.1033,8.185,8.2574,8.2725,8.3998,8.5246,8.5574,8.5914,8.6229,8.5814,8.5586,8.4465,8.1599,8.1041,8.19,8.3286,8.3104,8.2661,8.24,8.2226,8.1902,8.0119,7.751,7.8206,7.8903,7.9532,7.9551,8.0009,8.0812,8.085,8.127,8.2044,8.2235,8.2311,8.2311,8.2464,8.2541,8.2541,8.2693,8.277,8.2808,8.2923,8.2999,8.3037,8.3725,8.4365,8.5015,8.5741,8.6428,8.7088,0.0,0.0,0.0,8.2836,8.2368,8.2136,8.1488,8.0666,7.9718,7.8747,0.0,7.6999,7.6,7.5018,7.4141,7.3401,0.0,0.0,0.0,0.0,0.0,0.0,0.0,0.0,0.0,0.0,0.0,7.2272,7.2471,7.1326,7.3897,7.5925,7.6614,7.6792,7.7052,7.7566,7.7604,7.7614,7.7654,7.7692,7.8206,7.951,7.9748,8.0205,8.1624,8.2043,8.2233,8.2243,8.2609,8.3117,8.3738,8.3912,8.4268,8.4869,8.4078,8.3593,8.3735,8.4136,8.4762,8.5627,8.548,8.541,8.623,8.6371,8.6045,8.592,8.5605,8.5594,8.5545,8.5364,8.5212,8.5119,8.4571,8.4488,8.3989,8.4028,8.379,8.3501,8.3369,8.3035,8.5512,8.5138,8.5193,8.4952,0.0,8.4568,8.3556,8.1848,8.1474,8.1512,8.1886,8.187,8.2071,8.2492,8.2407,8.2617,8.2999,8.3458,8.3868,8.425,8.4671,8.5091,8.5511,8.5521,8.5511,8.5511,8.5521,8.5521,8.5559,8.597,8.639,8.681,8.7231,8.7689,8.8071,8.811,8.747,8.6199,8.575,8.5071,8.422,8.3761,8.2892,8.1622,8.0343,0.0,0.0,0.0,0.0,0.0,0.0,0.0,0.0,7.4432,0.0,7.3165,7.2766,7.2394,7.2106,7.2875,7.3675,7.4505,7.6475,7.6844,7.5011,7.6534,7.7896,7.8745,7.8909,7.9292,8.0053,8.0167,8.0187,8.0237,8.0285,8.0648,8.1383,8.1574,8.1927,8.269,8.3224,8.3491,8.3491,8.3912,8.4324,8.4706,8.487,8.5206,8.5883,8.5335,8.4892,8.5339,8.6011,8.6676,8.7057,8.7128,8.7209,8.7628,8.7704,8.7704,8.7704,8.7362,8.7095,8.7095,8.7002,8.6935,8.6917,8.6784,8.6738,8.6679,8.6656,8.6533,8.6527,8.56,8.4566,8.7194,8.6666,8.7174,8.6991,8.6386,8.6377,8.6386,8.6262,0.0,0.0,0.0,8.4133,8.4134,8.4125,8.3984,8.3907,8.3974,8.4642,8.532,8.6008,8.6686,8.7422,8.8071,8.811,8.811,8.811,8.811,8.811,8.811,8.8234,8.8301,8.8339,8.8453,8.853,8.853,8.853,8.853,8.853,8.8273,8.7422,8.6008,8.5807,8.5015,8.3496,8.1919,8.1041,8.084,7.9207,7.8242,7.8242,7.8,7.7827,7.7784,7.7946,7.7672,7.6951,7.7103,7.6931,7.6198,7.6826,7.7331,7.7332,7.9417,7.9979,7.8302,7.8436,7.9169,8.0568,8.0702,8.1256,8.2589,8.2752,8.282,8.2901,8.291,8.295,8.3171,8.3228,8.3257,8.3496,8.4088,8.4594,8.4775,8.5272,8.5817,8.5922,8.6036,8.6151,8.6762,8.6456,8.6255,8.6856,8.7368,8.7898,8.8117,8.8063,8.8036,8.8314,8.8314,8.8227,8.8216,8.8216,8.8216,8.8314,8.8814,8.9086,8.9238,8.933,8.9988,8.9977,8.9863,8.9535,8.8699,8.7265,8.6039,8.9329,8.9213,8.8679,8.8406,8.8291,8.8299,8.8299,8.8205,8.7048,8.6975,8.7675,8.7656,8.7647,8.7647,8.7543,8.7494,8.7485,8.7549,8.7613,8.7738,8.7842,8.7995,8.811,8.811,8.811,8.811,8.811,8.811,8.8186,8.8835,8.9141,8.9256,8.9867,9.0239,9.0239,9.0239,9.0239,9.0201,8.8835,8.7995,8.7738,8.6991,8.6151,8.5206,8.4241,8.339,8.2636,8.1681,8.1213,8.1175,8.0478,7.9715,7.8952,7.959,7.96,7.8857,7.9438,7.982,7.9743,7.9914,8.0287,8.1003,8.2034,8.1814,8.0111,8.1286,8.2289,8.2527,8.252,8.2684,8.2961,8.3027,8.3104,8.3085,8.3008,8.3286,8.4098,8.4222,8.448,8.5091,8.5234,8.5654,8.6265,8.6533,8.6877,8.7498,8.7536,8.7766,8.7842,8.7842,8.7766,8.788,8.7985,8.8356,8.8909,8.91,8.9297,9.0082,9.0071,8.9984,8.9946,8.9859,8.9859,9.0071,8.9996,9.0067,9.0095,8.9598,8.9451,8.9363,8.8945,8.8324,8.8177,8.7718,8.7365,9.1263,9.1234,9.0893,9.0748,9.0719,9.0248,9.0056,9.0009,8.9545,8.901,8.8549,8.8495,8.8429,8.8429,8.8337,8.8261,8.8193,8.8154,8.8361,8.8721,8.8759,8.8988,8.9447,8.9447,8.9447,8.9485,8.9905,9.0096,9.0173,9.0937,9.1357,9.1395,9.1778,9.1958,9.1958,9.1958,9.1958,9.193,9.0326,8.9218,8.8759,8.8377,8.7766,8.6925,8.6084,8.5244,8.4365,8.3601,8.2913,8.2455,8.2073,8.1643,8.1251,8.1585,8.1624,8.1251,8.1585,8.1843,8.1843,8.1853,8.2044,8.2416,8.3219,8.3572,8.3119,8.2978,8.316,8.3619,8.3696,8.3907,8.4327,8.4785,8.5053,8.5053,8.5473,8.5942,8.6275,8.6352,8.6505,8.6849,8.6925,8.7078,8.746,8.7498,8.7613,8.8071,8.8415,8.8759,8.8797,8.9141,8.9256,8.8874,8.9141,8.9561,8.9933,9.0009,9.0201,9.0544,9.0583,9.0621,9.0544,9.0277,8.9944,8.9895,8.9853,8.9832,8.9832,8.9904,8.9833,8.9833,8.9642,8.9277,8.9185,8.9119,8.8714,9.2749,9.2749,9.2749,9.2749,9.271,9.2056,9.1748,9.1787,9.1748,9.1056,8.9855,8.9323,8.9105,8.9096,8.9005,8.8921,8.8845,8.8816,8.9207,8.987,8.9898,9.0385,9.109,9.1156,9.1156,9.1232,9.1816,9.2083,9.2198,9.2771,9.3115,9.3115,9.3115,9.3115,9.3115,9.3115,9.3115,9.3038,9.1805,9.0746,8.9905,8.9523,8.8988,8.8377,8.7536,8.6762,8.6084,8.5473,8.4824,8.4184,8.3945,8.3754,8.3572,8.3763,8.3754,8.3649,8.3954,8.4146,8.4146,8.4146,8.4146,8.4146,8.4757,8.5435,8.5893,8.49,8.4413,8.5015,8.5206,8.5473,8.6046,8.6658,8.7106,8.7144,8.7689,8.7918,8.8071,8.811,8.811,8.811,8.811,8.812,8.8301,8.8377,8.8492,8.8797,8.9218,8.9561,8.9676,9.0201,9.0239,8.9971,9.0162,9.0506,9.0621,9.0583,9.0583,9.0621,9.0621,9.0621,9.0506,9.002,8.9676,8.9704,8.9676,8.9742,8.9704,9.0086,9.0457,9.0485,9.0409,9.0436,9.0285,9.022,8.9892,9.3595,9.3595,9.3595,9.3595,9.3557,9.3441,9.3403,9.3403,9.3441,9.3403,9.2903,9.1624,9.0962,9.0953,9.0825,9.0731,9.0751,9.0666,9.1039,9.1666,9.1743,9.215,9.2744,9.2847,9.2886,9.2847,9.2924,9.3,9.3,9.3115,9.3153,9.3115,9.3115,9.3191,9.3153,9.3153,9.3153,9.3115,9.2962,9.2465,9.1548,9.0096,8.9256,8.9179,8.8415,8.7967,8.7804,8.7804,8.7689,8.7575,8.6772,8.6074,8.5473,8.5998,8.6074,8.5397,8.6696,8.7623,8.7585,8.7651,8.7508,8.7623,8.7536,8.7661,8.7804,8.7651,8.7613,8.7689,8.7689,8.7613,8.7842,8.7918,8.7995,8.7995,8.8148,8.811,8.8224,8.811,8.811,8.811,8.8301,8.8387,8.9065,8.9179,8.9485,9.002,9.0211,9.0326,9.0364,9.043,9.0583,9.0468,9.0583,9.0583,9.0621,9.0621,9.0621,9.0621,9.0621,9.0621,9.0544,9.0506,9.0468,9.0239,9.0353,9.0353,9.0392,9.0583,9.0583,9.0621,9.0621,9.0621,9.0572,9.054,9.0285,9.4489,9.445,9.4489,9.4181,9.371,9.3672,9.3672,9.3672,9.3672,9.3672,9.3633,9.2979,9.2672,9.2672,9.2627,9.2581,9.2526,9.2488,9.2603,9.2821,9.2811,9.2942,9.3221,9.3211,9.3179,9.3153,9.3612,9.3879,9.3917,9.4299,9.4567,9.4567,9.4567,9.4567,9.4567,9.4567,9.4567,9.4567,9.4108,9.3688,9.3153,9.1625,9.0784,9.0708,8.9982,8.9294,8.8874,8.8797,8.8606,8.8148,8.7766,8.7422,8.704,8.7384,8.7422,8.7078,8.7689,8.811,8.811,8.811,8.811,8.811,8.811,8.8301,8.8759,8.8797,8.8988,8.937,8.8683,8.811,8.8158,8.8492,8.8835,8.8874,8.9256,8.9561,8.96,8.9561,8.9561,8.96,8.96,8.9676,8.9982,9.0048,9.0201,9.0544,9.0621,9.0621,9.0621,9.0621,9.0621,9.0621,9.0621,9.0621,9.0621,9.0621,9.0621,9.0621,9.0621,9.0621,9.0659,9.0621,9.0583,9.0659,9.0659,9.0659,9.0544,9.0621,9.0621,9.0621,9.0621,9.0621,9.0621,9.0621,9.054,9.5372,9.5372,9.5383,9.4989,9.4403,9.4403,9.4403,9.4403,9.4403,9.4403,9.4403,9.4403,9.4403,9.4364,9.3941,9.3674,9.3619,9.3648,9.3707,9.3774,9.3764,9.3858,9.3987,9.3983,9.3931,9.3933,9.4425,9.4681,9.4709,9.5255,9.5609,9.5609,9.5609,9.5609,9.5609,9.5609,9.5609,9.5522,9.4987,9.4709,9.4479,9.3268,9.2389,9.2121,9.1357,9.0631,9.002,8.9791,8.9409,8.8797,8.8568,8.8415,8.8453,8.8415,8.853,8.8759,8.8797,8.8797,8.8797,8.8797,8.8797,8.8797,8.8759,8.9027,8.9523,8.9676,8.9933,9.0353,8.9485,8.8835,8.8835,8.9332,8.9638,8.9704,9.0277,9.0583,9.0544,9.0621,9.0544,9.0621,9.044,9.0621,9.0583,9.0583,9.0583,9.0583,9.0621,9.0621,9.0621,9.0621,9.0659,9.0888,9.0937,9.0812,9.0659,9.0621,9.0659,9.0926,9.1003,9.1079,9.1194,9.1308,9.1319,9.1778,9.127,9.0926,9.1013,9.0975,9.0697,9.0621,9.0659,9.0697,9.0621,9.0621,9.0621,9.6317,9.6299,9.6248,9.6134,9.6163,9.6095,9.6134,9.6019,9.6095,9.6134,9.6057,9.6095,9.6134,9.598,9.4518,9.3749,9.374,9.3817,9.4185,9.4715,9.4744,9.5118,9.5747,9.571,9.5619,9.5434,9.5435,9.5457,9.5495,9.556,9.5609,9.5609,9.5609,9.5609,9.5609,9.5609,9.5609,9.5598,9.5495,9.5522,9.5407,9.4681,9.3841,9.3115,9.2198,9.1701,9.1586,9.0937,9.0506,9.0468,8.9676,8.9256,8.9256,8.9256,8.96,9.0277,9.043,9.043,9.0392,9.0353,9.0353,9.0392,9.0277,9.043,9.0392,9.043,9.0468,9.0583,9.043,9.0326,9.0326,9.0277,9.043,9.043,9.0544,9.0621,9.0621,9.0621,9.0621,9.0621,9.0621,9.0621,9.0621,9.0621,9.0621,9.0621,9.0621,9.0659,9.0735,9.0697,9.109,9.1548,9.1701,9.1472,9.0861,9.1003,9.1243,9.151,9.1854,9.193,9.258,9.3,9.2924,9.2733,9.216,9.1778,9.1625,9.1357,9.1041,9.0926,9.1003,9.1003,9.1243,9.0774,9.0735,9.6947,9.6394,9.6358,9.6343,9.6288,9.6288,9.6288,9.6288,9.6288,9.6288,9.6288,9.6288,9.6288,9.6288,9.5672,9.5365,9.5365,9.5365,9.55,9.577,9.577,9.5867,9.601,9.5999,9.5898,9.5821,9.5768,9.5675,9.5609,9.5609,9.5609,9.5609,9.5609,9.5609,9.5609,9.5609,9.5609,9.5609,9.5609,9.5609,9.5609,9.5293,9.4987,9.4643,9.3344,9.2618,9.2618,9.1816,9.1357,9.1357,9.0544,9.0124,9.0124,9.0124,9.0239,9.0544,9.0621,9.0621,9.0621,9.0621,9.0621,9.0621,9.0621,9.0659,9.0621,9.0621,9.0621,9.0621,9.0621,9.0621,9.0621,9.0621,9.0621,9.0621,9.0621,9.0621,9.0621,9.0621,9.0621,9.0621,9.0621,9.0621,9.0621,9.0621,9.0621,9.0659,9.1041,9.1319,9.1472,9.1816,9.2236,9.2504,9.2618,9.2542,9.2312,9.2236,9.2351,9.2504,9.2695,9.2733,9.3115,9.3306,9.3229,9.3306,9.2847,9.258,9.2427,9.2312,9.1881,9.1958,9.1969,9.1854,9.2198,9.1701,9.1434,9.7873,9.7333,9.7221,9.7176,9.7103,9.6797,9.6673,9.6673,9.6403,9.6288,9.6288,9.6288,9.6288,9.6288,9.6288,9.648,9.6634,9.6442,9.6288,9.6288,9.6288,9.6251,9.6155,9.6117,9.6019,9.5887,9.5804,9.5861,9.603,9.6019,9.6019,9.6019,9.6019,9.5866,9.5675,9.5609,9.5609,9.5609,9.5609,9.5609,9.5609,9.5609,9.5609,9.5446,9.449,9.3764,9.3535,9.2695,9.2198,9.2121,9.1701,9.1385,9.1395,9.1423,9.1385,9.1395,9.1434,9.1385,9.1395,9.1434,9.1423,9.1434,9.1423,9.1385,9.1423,9.1395,9.1385,9.1347,9.109,9.0975,9.0937,9.0774,9.0621,9.0621,9.0621,9.0621,9.0621,9.0621,9.0621,9.0621,9.0621,9.0621,9.0659,9.0861,9.0975,9.0975,9.1701,9.2198,9.2312,9.2695,9.3268,9.3459,9.3535,9.3688,9.3803,9.3879,9.3535,9.3573,9.3535,9.3573,9.3688,9.3764,9.3764,9.3803,9.365,9.3421,9.3268,9.3153,9.3153,9.3191,9.2886,9.2618,9.2695,9.258,9.2351,9.9131,9.897,9.8952,9.8685,9.8465,9.7729,9.7451,9.722,9.6596,9.6326,9.6442,9.6365,9.6499,9.6451,9.6623,9.6883,9.7354,9.6902,9.6614,9.6557,9.6519,9.6509,9.65,9.6463,9.6366,9.6307,9.5982,9.6243,9.6871,9.6898,9.6898,9.6898,9.6898,9.6554,9.5713,9.5789,9.5675,9.5713,9.5675,9.5609,9.5609,9.5609,9.5609,9.5609,9.5446,9.5064,9.4403,9.3573,9.3115,9.3115,9.3,9.3077,9.2886,9.2886,9.3,9.2886,9.3,9.3,9.3,9.2886,9.2847,9.2847,9.3,9.2847,9.2771,9.2847,9.2847,9.2695,9.2236,9.1816,9.1701,9.1281,9.0774,9.0621,9.0621,9.0621,9.0621,9.0621,9.0621,9.0659,9.0735,9.0659,9.0812,9.1357,9.1778,9.1969,9.2542,9.3115,9.3153,9.3344,9.3612,9.4146,9.4414,9.4529,9.5064,9.5522,9.5025,9.4643,9.449,9.4452,9.4796,9.4911,9.4834,9.4834,9.4529,9.4299,9.3994,9.3879,9.3764,9.3726,9.3459,9.3497,9.3535,9.3535,9.3229,9.98,9.9178,9.9106,9.8708,9.8138,9.7781,9.7321,9.6764,9.6392,9.6596,9.7067,9.7208,9.7582,9.8032,9.8193,9.8344,9.8575,9.8305,9.8157,9.8047,9.799,9.7951,9.798,9.7952,9.7865,9.7754,9.7608,9.7582,9.7684,9.7738,9.7727,9.7738,9.7738,9.7574,9.7241,9.6821,9.6477,9.6439,9.5904,9.5609,9.5609,9.5609,9.5609,9.5609,9.5609,9.5446,9.5216,9.4452,9.4021,9.3994,9.3421,9.3115,9.3115,9.3115,9.3115,9.3115,9.3115,9.3115,9.3115,9.3153,9.3191,9.3153,9.3153,9.3115,9.3115,9.3153,9.3191,9.3153,9.2847,9.2695,9.2656,9.2504,9.1816,9.0735,9.0621,9.0697,9.0774,9.0697,9.0861,9.1319,9.1434,9.1663,9.216,9.2618,9.2656,9.2771,9.3421,9.3945,9.4032,9.4376,9.4834,9.5178,9.5255,9.5178,9.5446,9.5609,9.5369,9.5102,9.5064,9.4987,9.5407,9.5609,9.5609,9.5522,9.5293,9.5064,9.4758,9.4605,9.449,9.4605,9.472,9.4758,9.4758,9.449,9.4108,10.0744,10.0225,10.0154,9.9796,9.9197,9.8841,9.8344,9.7825,9.7464,9.7638,9.8071,9.8163,9.8459,9.894,9.9069,9.9279,9.951,9.9549,9.9634,9.965,9.9102,9.8891,9.8845,9.8807,9.8711,9.8552,9.8459,9.8517,9.8714,9.8703,9.8703,9.8703,9.8703,9.8489,9.8188,9.7691,9.7297,9.6871,9.6363,9.5904,9.5675,9.5609,9.5609,9.5609,9.5609,9.5609,9.5598,9.5407,9.5178,9.4834,9.4299,9.4032,9.4032,9.407,9.4032,9.4032,9.4032,9.407,9.4032,9.4108,9.4032,9.4032,9.4032,9.4032,9.4032,9.4032,9.4032,9.4032,9.3764,9.3573,9.3573,9.3229,9.2618,9.169,9.1625,9.1499,9.1538,9.1538,9.1729,9.2198,9.2274,9.258,9.2924,9.3448,9.3535,9.3677,9.4288,9.4796,9.4911,9.5255,9.5484,9.5598,9.5522,9.5484,9.556,9.5609,9.5609,9.5522,9.5484,9.5446,9.556,9.5609,9.5609,9.5609,9.5446,9.5407,9.5178,9.5293,9.5255,9.5609,9.5609,9.5446,9.5178,9.5102,9.4834,10.1889,10.1881,10.1763,10.1506,10.1258,10.0509,10.0012,9.9935,9.9309,9.8992,9.9116,9.9163,9.9249,9.9296,9.9553,9.99,10.0291,10.0423,10.0779,10.0878,10.0175,9.9437,9.9351,9.9297,9.9192,9.8978,9.892,9.9166,9.9692,9.973,9.9773,9.9741,9.9692,9.9364,9.8791,9.8462,9.8025,9.7401,9.7073,9.6576,9.5839,9.5751,9.5675,9.5637,9.5609,9.5609,9.5675,9.6095,9.6286,9.5828,9.5675,9.5522,9.5598,9.5637,9.5407,9.5369,9.5522,9.5446,9.5533,9.5331,9.5369,9.5331,9.5342,9.5609,9.5369,9.5255,9.5255,9.5293,9.4796,9.4441,9.4327,9.3917,9.3382,9.3268,9.2962,9.2847,9.3038,9.2962,9.2962,9.3077,9.3153,9.3229,9.3421,9.4021,9.4327,9.4556,9.5064,9.5331,9.5446,9.5522,9.5598,9.5609,9.5609,9.5609,9.5609,9.5609,9.5609,9.5609,9.5609,9.5609,9.5609,9.5609,9.5609,9.5609,9.5609,9.5609,9.5609,9.5609,9.5609,9.5609,9.5609,9.5609,9.5522,9.5407,9.5369,10.1889,10.1889,10.1865,10.1471,10.0922,10.0524,10.0105,9.9517,9.9274,9.9566,9.9905,10.008,10.0461,10.0963,10.1067,10.1284,10.1354,10.1431,10.1516,10.1748,10.1439,10.1037,10.0843,10.0683,10.0538,10.0458,10.0333,10.054,10.0666,10.0599,10.0638,10.0655,10.0599,10.054,10.0239,9.9615,9.9206,9.8812,9.8178,9.7473,9.6718,9.6554,9.621,9.5637,9.5637,9.5637,9.5598,9.5789,9.6515,9.7356,9.6859,9.6554,9.6439,9.6019,9.5751,9.5751,9.5686,9.5637,9.5637,9.5609,9.5609,9.5609,9.5609,9.5609,9.5609,9.5609,9.5609,9.556,9.5369,9.5255,9.5216,9.5025,9.4911,9.4796,9.3917,9.3268,9.3229,9.3115,9.3306,9.3917,9.4032,9.4261,9.4681,9.4987,9.5178,9.5255,9.5407,9.5609,9.5609,9.5609,9.5609,9.5609,9.5609,9.5609,9.5609,9.5609,9.5609,9.5609,9.5609,9.5609,9.5609,9.5609,9.5609,9.5609,9.5609,9.5609,9.5609,9.5609,9.5609,9.5609,9.5609,9.5609,9.5609,9.5522,9.556,10.1889,10.1889,10.1889,10.1618,10.1154,10.1107,10.0813,10.0379,10.03,10.0508,10.0941,10.1059,10.1354,10.1748,10.1827,10.1889,10.1889,10.1889,10.1889,10.1873,10.1732,10.1607,10.1496,10.1366,10.1288,10.1248,10.1238,10.117,10.1119,10.1147,10.1109,10.1109,10.1147,10.1116,10.1008,10.0652,10.0063,9.9611,9.9059,9.8419,9.7587,9.7417,9.6936,9.6324,9.6133,9.6133,9.6133,9.6172,9.6515,9.6936,9.6898,9.6898,9.6898,9.6783,9.663,9.663,9.6363,9.6172,9.6057,9.5828,9.5609,9.5609,9.5609,9.5609,9.5609,9.5609,9.5609,9.5598,9.5609,9.5609,9.5609,9.5609,9.5609,9.5407,9.472,9.4146,9.4146,9.4223,9.4376,9.4758,9.4911,9.4987,9.556,9.5598,9.5609,9.5609,9.556,9.5609,9.5609,9.5609,9.5609,9.5609,9.5609,9.5609,9.5609,9.5609,9.5609,9.5609,9.5609,9.5609,9.5609,9.5609,9.5609,9.5609,9.5609,9.5609,9.5609,9.5609,9.5609,9.5609,9.5609,9.5609,9.5609,9.5789,9.5828,10.1889,10.1889,10.1889,10.1889,10.185,10.1889,10.1765,10.185,10.1719,10.1765,10.1804,10.185,10.1804,10.1889,10.1889,10.1889,10.1889,10.1889,10.1881,10.1834,10.1735,10.1615,10.1561,10.1366,10.1279,10.1308,10.1279,10.1269,10.125,10.1298,10.1269,10.1288,10.1298,10.1268,10.1208,10.1149,10.0704,10.0101,9.9873,9.9299,9.8583,9.8314,9.7848,9.7165,9.7012,9.7012,9.7012,9.6974,9.6745,9.5828,9.6477,9.6859,9.6974,9.7574,9.7727,9.765,9.7089,9.6821,9.6859,9.6286,9.5789,9.5828,9.5713,9.5609,9.5609,9.5609,9.5609,9.5609,9.5609,9.5609,9.5609,9.5609,9.5609,9.556,9.5484,9.556,9.5609,9.5609,9.5609,9.5609,9.5598,9.5598,9.5609,9.5609,9.5609,9.5609,9.5609,9.5609,9.5609,9.5609,9.5609,9.5609,9.5609,9.5609,9.5609,9.5609,9.5609,9.5609,9.5609,9.5609,9.5609,9.5609,9.5609,9.5609,9.5609,9.5609,9.5609,9.5609,9.5609,9.5609,9.5609,9.5609,9.5648,9.5981,9.6133,10.1889,10.1889,10.1889,10.1889,10.1889,10.1889,10.1889,10.1889,10.1889,10.1889,10.1889,10.1889,10.1889,10.1889,10.1889,10.1889,10.1889,10.1889,10.1858,10.1738,10.1646,10.1579,10.1545,10.1491,10.1366,10.1317,10.1279,10.1317,10.1356,10.1433,10.1317,10.1394,10.1548,10.1308,10.1403,10.1509,10.12,10.0927,10.0875,10.0386,9.9682,9.9436,9.8975,9.8093,9.7918,9.7841,9.7841,9.7841,9.7432,9.6898,9.6821,9.6974,9.6898,9.6592,9.6745,9.7165,9.7127,9.7165,9.7509,9.7012,9.6592,9.6477,9.6095,9.5609,9.5609,9.5637,9.5637,9.5609,9.5609,9.5609,9.5609,9.5609,9.5609,9.5609,9.5609,9.5609,9.5609,9.5609,9.5609,9.5609,9.5609,9.5609,9.5609,9.5609,9.5609,9.5609,9.5609,9.5609,9.5609,9.5609,9.5609,9.5609,9.5609,9.5609,9.5609,9.5609,9.5609,9.5609,9.5609,9.5609,9.5609,9.5609,9.5609,9.5609,9.5609,9.5609,9.5609,9.5609,9.5609,9.5609,9.5609,9.5609,9.5713,9.6095,9.6401,10.1889,10.1889,10.1889,10.1889,10.1889,10.1889,10.1889,10.1889,10.1889,10.1889,10.1889,10.1889,10.1889,10.1889,10.1889,10.1889,10.1889,10.1928,10.2074,10.2224,10.2285,10.238,10.2674,10.2463,10.2212,10.1548,10.175,10.1904,10.1981,10.2289,10.2597,10.252,10.2481,10.2635,10.252,10.2481,10.2567,10.2517,10.2389,10.2027,10.1586,10.1378,10.0883,9.9939,9.9484,9.914,9.877,9.8732,9.8273,9.77,9.7471,9.728,9.705,9.6821,9.705,9.7318,9.705,9.7089,9.728,9.7165,9.6859,9.6898,9.6745,9.6554,9.6324,9.621,9.5942,9.5724,9.5609,9.5609,9.5609,9.5609,9.5609,9.5609,9.5609,9.5609,9.5609,9.5609,9.5609,9.5609,9.5609,9.5609,9.5609,9.5609,9.5609,9.5609,9.5609,9.5609,9.5609,9.5609,9.5609,9.5609,9.5609,9.5609,9.5609,9.5609,9.5609,9.5609,9.5609,9.5609,9.5609,9.5609,9.5609,9.5609,9.5609,9.5609,9.5609,9.5609,9.5609,9.5609,9.5609,9.5609,9.5675,9.5904,9.6248,10.1889,10.1889,10.1889,10.1889,10.1889,10.1889,10.1889,10.1889,10.1889,10.1889,10.1889,10.1889,10.1889,10.1889,10.1889,10.1928,10.216,10.2399,10.2776,10.307,10.306,10.3308,10.3637,10.3521,10.3097,10.1894,10.2443,10.2789,10.2981,10.3482,10.3558,10.3789,10.3789,10.3597,10.3751,10.3866,10.3674,10.3577,10.3516,10.3454,10.3353,10.3153,10.2601,10.1926,10.1368,10.0757,10.0375,10.0145,9.961,9.8567,9.8453,9.7956,9.7498,9.7612,9.8223,9.8235,9.7776,9.7662,9.7623,9.7356,9.7127,9.6974,9.7203,9.728,9.6745,9.6439,9.6133,9.5828,9.5609,9.5609,9.5609,9.5609,9.5609,9.5609,9.5609,9.5609,9.5609,9.5609,9.5609,9.5609,9.5609,9.5609,9.5609,9.5609,9.5609,9.5609,9.5609,9.5609,9.5609,9.5609,9.5609,9.5609,9.5609,9.5609,9.5609,9.5609,9.5609,9.5609,9.5609,9.5609,9.5609,9.5609,9.5609,9.5609,9.5609,9.5609,9.5609,9.5609,9.5609,9.5609,9.5609,9.5609,9.5637,9.5713,9.6057,10.1889,10.1889,10.1889,10.1889,10.1889,10.1889,10.1889,10.1889,10.1889,10.1889,10.1889,10.1889,10.1928,10.1966,10.1928,10.2276,10.2956,10.3411,10.3791,10.3927,10.3875,10.4003,10.4147,10.4232,10.3828,10.3597,10.3712,10.3751,10.3674,10.3866,10.4174,10.3982,10.402,10.4059,10.4097,10.3905,10.4135,10.4212,10.4144,10.4103,10.3971,10.3766,10.3539,10.3123,10.2858,10.2629,10.2526,10.245,10.1865,10.0413,10.0183,9.9331,9.8453,9.8223,9.8529,9.877,9.8732,9.8502,9.8502,9.8197,9.7585,9.6974,9.6745,9.6286,9.6019,9.5915,9.5942,9.5751,9.5609,9.5609,9.5609,9.5609,9.5609,9.5609,9.5609,9.5609,9.5609,9.5609,9.5609,9.5609,9.5609,9.5609,9.5609,9.5609,9.5609,9.5609,9.5609,9.5609,9.5609,9.5609,9.5609,9.5609,9.5609,9.5609,9.5609,9.5609,9.5609,9.5609,9.5609,9.5609,9.5609,9.5609,9.5609,9.5609,9.5609,9.5609,9.5609,9.5609,9.5609,9.5609,9.5609,9.5609,9.5675,9.5713,9.5866,10.1889,10.1889,10.1889,10.1889,10.1889,10.1889,10.1889,10.1889,10.1889,10.1889,10.1889,10.1928,10.216,10.2469,10.2585,10.305,10.376,10.412,10.4452,10.4633,10.4724,10.4889,10.5069,10.5136,10.5213,10.5213,10.5174,10.4866,10.4646,10.5059,10.5097,10.5213,10.5174,10.5213,10.5213,10.5251,10.5136,10.5136,10.5126,10.5105,10.5033,10.4856,10.4672,10.4535,10.4386,10.4272,10.3852,10.3813,10.324,10.2132,10.1521,10.0871,10.0172,9.9561,9.919,9.8961,9.8846,9.877,9.8846,9.8579,9.8426,9.77,9.7394,9.705,9.6554,9.6324,9.6019,9.5713,9.5609,9.5609,9.5609,9.5609,9.5609,9.5609,9.5609,9.5609,9.5609,9.5609,9.5609,9.5609,9.5609,9.5609,9.5609,9.5609,9.5609,9.5609,9.5609,9.5609,9.5609,9.5609,9.5609,9.5609,9.5609,9.5609,9.5609,9.5609,9.5609,9.5609,9.5609,9.5609,9.5609,9.5609,9.5609,9.5609,9.5609,9.5609,9.5609,9.5609,9.5609,9.5609,9.5609,9.5648,9.5675,9.5789,9.5904,10.1889,10.1889,10.1889,10.1889,10.1889,10.1889,10.1889,10.1889,10.1889,10.1889,10.1928,10.2121,10.2547,10.3127,10.363,10.4086,10.4642,10.4744,10.5188,10.5474,10.5573,10.586,10.6233,10.6395,10.6241,10.6097,10.6164,10.6059,10.5597,10.5905,10.628,10.6203,10.6318,10.6395,10.6241,10.6087,10.6395,10.6395,10.6395,10.6395,10.6252,10.6101,10.5886,10.571,10.5686,10.5303,10.473,10.4692,10.4234,10.3431,10.282,10.2323,10.2056,10.133,10.026,9.914,9.872,9.8567,9.8579,9.8923,9.8884,9.8071,9.8693,9.812,9.7241,9.6515,9.6248,9.5751,9.5609,9.5609,9.5609,9.5609,9.5609,9.5609,9.5609,9.5609,9.5609,9.5609,9.5609,9.5609,9.5609,9.5609,9.5609,9.5609,9.5609,9.5609,9.5609,9.5609,9.5609,9.5609,9.5609,9.5609,9.5609,9.5609,9.5609,9.5609,9.5609,9.5609,9.5609,9.5609,9.5609,9.5609,9.5648,9.5713,9.5609,9.5609,9.5609,9.5648,9.5609,9.5609,9.5609,9.5648,9.5675,9.5751,9.5828,10.1889,10.1889,10.1889,10.1889,10.1889,10.1889,10.1889,10.1889,10.1889,10.1889,10.2044,10.2663,10.305,10.363,10.486,10.536,10.5594,10.594,10.6158,10.6218,10.6188,10.6195,10.6405,10.6395,10.6395,10.6395,10.6395,10.6356,10.6174,10.628,10.6395,10.6395,10.6395,10.6395,10.6395,10.6395,10.6395,10.6395,10.6395,10.6263,10.6052,10.5944,10.5842,10.5722,10.5686,10.5597,10.5406,10.5342,10.5036,10.4348,10.4157,10.3699,10.3049,10.2209,10.1826,10.128,10.0745,9.9992,9.9419,9.9419,9.919,9.8491,9.8414,9.7765,9.7089,9.6363,9.5981,9.5675,9.5609,9.5609,9.5609,9.5609,9.5609,9.5609,9.5609,9.5609,9.5609,9.5609,9.5609,9.5609,9.5609,9.5609,9.5609,9.5609,9.5609,9.5609,9.5609,9.5609,9.5609,9.5609,9.5609,9.5609,9.5609,9.5609,9.5609,9.5609,9.5637,9.5637,9.5637,9.5675,9.5866,9.5942,9.5866,9.5866,9.5866,9.5942,9.6133,9.6095,9.5751,9.5675,9.5751,9.5713,9.5609,9.5713,9.5981,10.1889,10.1889,10.1889,10.1889,10.1889,10.1889,10.1889,10.1889,10.1889,10.216,10.2624,10.3011,10.3668,10.4674,10.5951,10.6365,10.6349,10.656,10.6622,10.6517,10.6456,10.6395,10.6395,10.6395,10.6395,10.6395,10.6395,10.6395,10.6395,10.6395,10.6395,10.6395,10.6395,10.6395,10.6385,10.6395,10.6354,10.6273,10.6199,10.609,10.5955,10.5901,10.5818,10.5724,10.5686,10.5686,10.5686,10.5686,10.5571,10.5036,10.4769,10.4272,10.3775,10.3087,10.2476,10.1815,10.1547,10.0909,10.0222,10.0069,9.9572,9.9075,9.8732,9.8311,9.7203,9.6554,9.6057,9.5648,9.5609,9.5609,9.5609,9.5609,9.5609,9.5609,9.5609,9.5609,9.5609,9.5609,9.5609,9.5609,9.5609,9.5609,9.5609,9.5609,9.5609,9.5609,9.5609,9.5609,9.5609,9.5609,9.5609,9.5609,9.5609,9.5609,9.5609,9.5609,9.5713,9.5751,9.5713,9.5866,9.6324,9.6401,9.6439,9.6745,9.7127,9.7127,9.6898,9.6363,9.5904,9.5866,9.5942,9.5828,9.5789,9.6401,9.6821,10.1889,10.1889,10.1889,10.1889,10.1889,10.1889,10.1889,10.1889,10.1889,10.2392,10.3166,10.3707,10.4713,10.5818,10.6575,10.6787,10.673,10.6687,10.6584,10.6487,10.6417,10.6405,10.6395,10.6395,10.6395,10.6395,10.6395,10.6395,10.6395,10.6374,10.6364,10.6395,10.6395,10.6374,10.6364,10.6343,10.6263,10.6156,10.6046,10.5944,10.5901,10.5854,10.5771,10.571,10.5686,10.5686,10.5686,10.5686,10.5673,10.552,10.5151,10.4807,10.4616,10.3966,10.3317,10.2782,10.2476,10.1826,10.11,10.068,10.0298,9.9878,9.9381,9.8808,9.7891,9.728,9.6745,9.6057,9.5675,9.5637,9.5609,9.5609,9.5609,9.5609,9.5609,9.5609,9.5609,9.5609,9.5609,9.5609,9.5609,9.5609,9.5609,9.5609,9.5609,9.5609,9.5609,9.5609,9.5609,9.5609,9.5648,9.5686,9.6019,9.6057,9.6133,9.6057,9.6019,9.6019,9.6019,9.6286,9.6898,9.7203,9.7318,9.7727,9.8071,9.7918,9.7459,9.6745,9.6057,9.6172,9.621,9.5981,9.6095,9.6783,9.7585,10.1889,10.1889,10.1889,10.1889,10.1889,10.1889,10.1889,10.1889,10.1889,10.2431,10.3475,10.4752,10.5951,10.6631,10.6757,10.6786,10.6687,10.6584,10.6487,10.6407,10.6405,10.6395,10.6385,10.6374,10.6385,10.6385,10.6354,10.6354,10.6364,10.6231,10.6312,10.6385,10.6305,10.6273,10.6231,10.6188,10.6134,10.6034,10.5921,10.5901,10.5842,10.5783,10.5698,10.5698,10.5686,10.5686,10.5686,10.5686,10.5686,10.5686,10.5533,10.5418,10.5227,10.4692,10.4195,10.3775,10.3355,10.2705,10.1979,10.1177,10.068,10.0336,9.9916,9.9393,9.877,9.7623,9.7012,9.6821,9.6401,9.5904,9.5789,9.5648,9.5789,9.5609,9.5609,9.5609,9.5609,9.5609,9.5609,9.5609,9.5609,9.5609,9.5609,9.5609,9.5609,9.5609,9.5609,9.5609,9.5609,9.5648,9.5724,9.5866,9.6439,9.6706,9.6898,9.6974,9.7089,9.705,9.6974,9.7268,9.7765,9.7918,9.7574,9.7956,9.8071,9.8071,9.7956,9.7127,9.6554,9.6554,9.6515,9.6477,9.7012,9.7891,9.8541,10.1889,10.1889,10.1889,10.1889,10.1889,10.1889,10.1889,10.1889,10.1928,10.2701,10.4009,10.568,10.6686,10.6893,10.6856,10.6768,10.6669,10.6575,10.6427,10.6336,10.6354,10.6354,10.6333,10.6301,10.6291,10.6242,10.6199,10.6156,10.6145,10.6112,10.6123,10.6145,10.6167,10.6134,10.609,10.5996,10.5928,10.5871,10.5804,10.5771,10.5785,10.5722,10.5686,10.5686,10.5686,10.5686,10.5686,10.5686,10.5686,10.5686,10.5686,10.5686,10.5686,10.5265,10.4921,10.4577,10.4081,10.3546,10.2743,10.1865,10.1215,10.0642,10.0298,9.9954,9.9545,9.8693,9.8158,9.7776,9.728,9.6859,9.6477,9.6401,9.6324,9.5828,9.5675,9.5789,9.5828,9.5942,9.5828,9.5904,9.5751,9.5609,9.5609,9.5609,9.5609,9.5609,9.5609,9.5609,9.5609,9.5637,9.5713,9.5981,9.6515,9.705,9.728,9.765,9.8109,9.8032,9.7918,9.8185,9.8376,9.7459,9.728,9.7689,9.8223,9.83,9.8071,9.7394,9.705,9.6974,9.705,9.7165,9.7929,9.8884,9.9381,10.1873,10.1858,10.1858,10.1873,10.1889,10.1889,10.1889,10.1889,10.1858,10.2762,10.4399,10.6108,10.692,10.6856,10.6777,10.6658,10.6594,10.6487,10.6346,10.6263,10.6231,10.621,10.6167,10.6145,10.6145,10.6123,10.6041,10.5996,10.6007,10.6001,10.5989,10.5967,10.5932,10.5932,10.5905,10.5633,10.5448,10.5412,10.5096,10.496,10.4921,10.5151,10.5265,10.5342,10.5495,10.5686,10.5686,10.5686,10.5686,10.5686,10.5686,10.5686,10.5686,10.5609,10.5342,10.5036,10.4692,10.4386,10.3584,10.2514,10.1662,10.1177,10.068,10.0298,9.9916,9.9572,9.8884,9.8579,9.8273,9.7891,9.728,9.7241,9.7165,9.6821,9.6745,9.6783,9.6745,9.6783,9.6439,9.6248,9.6095,9.6019,9.5637,9.5675,9.5751,9.5713,9.5609,9.5609,9.5609,9.5675,9.5751,9.6095,9.6592,9.7089,9.7585,9.8197,9.877,9.8884,9.8808,9.8923,9.8758,9.7929,9.7891,9.8873,9.9179,9.8796,9.8502,9.8273,9.7815,9.7356,9.7662,9.8044,9.8579,9.9419,9.9878,10.1803,10.1691,10.1683,10.1771,10.1865,10.1889,10.1881,10.1896,10.187,10.2684,10.4244,10.5895,10.6676,10.6687,10.6593,10.6575,10.6478,10.6346,10.621,10.6177,10.6123,10.6057,10.6034,10.6023,10.6023,10.5985,10.594,10.5955,10.5951,10.5886,10.5889,10.5789,10.5665,10.5603,10.5751,10.4917,10.4475,10.4348,10.3749,10.3584,10.3699,10.4272,10.4577,10.4807,10.538,10.5673,10.5686,10.5686,10.5686,10.5686,10.5686,10.5686,10.5686,10.5686,10.5609,10.5533,10.5533,10.5151,10.4386,10.2846,10.2158,10.1815,10.133,10.0757,10.0451,9.9992,9.9534,9.9305,9.8884,9.8376,9.8109,9.8071,9.7994,9.7727,9.7612,9.7574,9.7459,9.7459,9.7127,9.6936,9.6821,9.663,9.6057,9.5751,9.5866,9.5828,9.5675,9.5648,9.5686,9.5675,9.5789,9.6363,9.6859,9.7509,9.812,9.8884,9.9419,9.9534,9.9496,9.9419,9.9572,9.9343,9.9572,10.026,10.0069,9.9649,9.9496,9.9381,9.9152,9.8999,9.8846,9.9163,9.9572,9.9878,10.026,10.1746,10.1675,10.1654,10.1646,10.1718,10.1718,10.1718,10.1826,10.2302,10.3116,10.417,10.5366,10.6215,10.6496,10.6575,10.6478,10.6439,10.6305,10.6177,10.6079,10.5985,10.5978,10.5932,10.5947,10.5909,10.5913,10.5878,10.583,10.5807,10.5783,10.5797,10.5684,10.5187,10.4869,10.4817,10.4437,10.4234,10.3711,10.3367,10.324,10.3278,10.389,10.4386,10.4386,10.5189,10.5673,10.5686,10.5686,10.5686,10.5686,10.5686,10.5686,10.5686,10.5686,10.5686,10.5686,10.5686,10.5609,10.5074,10.4195,10.3355,10.2743,10.2018,10.1521,10.1356,10.068,10.0336,10.0145,9.9801,9.9381,9.9114,9.8999,9.877,9.8109,9.7918,9.7918,9.7918,9.7918,9.7803,9.7727,9.765,9.7727,9.7432,9.728,9.7241,9.6936,9.6859,9.6133,9.5942,9.5828,9.5866,9.6668,9.728,9.7967,9.8655,9.9534,10.0107,10.0298,9.9878,9.9419,9.9649,10.0375,10.0222,10.0375,10.0451,10.0489,10.0527,10.0604,10.0833,10.0833,10.0336,10.0157,10.0489,10.0489,10.0451,10.1705,10.1663,10.1576,10.1514,10.1496,10.1559,10.1606,10.1734,10.2457,10.3297,10.4069,10.4917,10.5794,10.6353,10.6507,10.6438,10.6369,10.6193,10.6079,10.5967,10.5909,10.5839,10.583,10.5857,10.5818,10.5783,10.5746,10.5686,10.571,10.5686,10.5495,10.5125,10.4692,10.4081,10.3775,10.3355,10.3202,10.2705,10.24,10.2094,10.2476,10.3126,10.3928,10.4272,10.4921,10.5686,10.5686,10.5686,10.5686,10.5686,10.5686,10.5686,10.5686,10.5686,10.5686,10.5686,10.5686,10.5686,10.5456,10.5265,10.4501,10.4157,10.3049,10.2285,10.1929,10.133,10.0871,10.068,10.068,10.0336,9.9916,9.9801,9.9496,9.8835,9.8835,9.8873,9.8988,9.9026,9.914,9.9026,9.9064,9.9064,9.8873,9.8988,9.8961,9.8541,9.812,9.728,9.6554,9.6554,9.663,9.7318,9.8006,9.8655,9.9458,10.0336,10.0795,10.1012,10.0718,10.0348,10.0883,10.1724,10.11,10.0718,10.1368,10.1826,10.175,10.1865,10.1979,10.175,10.1253,10.1215,10.1406,10.1253,10.0986,10.1663,10.1606,10.1516,10.1423,10.1328,10.1525,10.1552,10.1556,10.2318,10.3079,10.3963,10.4704,10.5522,10.6272,10.6405,10.6354,10.6231,10.6063,10.5989,10.5901,10.5807,10.5734,10.571,10.571,10.5722,10.5698,10.5686,10.5686,10.5686,10.5418,10.5036,10.4577,10.4119,10.3355,10.2579,10.212,10.2056,10.175,10.1406,10.1177,10.1406,10.2514,10.324,10.3852,10.4769,10.5533,10.5686,10.5686,10.5686,10.5686,10.5686,10.5686,10.5686,10.5686,10.5686,10.5686,10.5686,10.5686,10.5686,10.5533,10.5533,10.5074,10.4157,10.3049,10.24,10.2132,10.175,10.1292,10.11,10.0909,10.063,10.0527,10.0375,10.0222,10.026,10.0336,10.0401,10.0516,10.0669,10.0707,10.086,10.0745,10.0183,10.0145,10.0031,9.9763,9.9343,9.9037,9.8388,9.8197,9.8273,9.8388,9.8999,9.9458,10.026,10.1177,10.1635,10.1903,10.2361,10.222,10.2717,10.2832,10.2603,10.2514,10.2935,10.3126,10.2935,10.2896,10.2935,10.2591,10.2056,10.1865,10.1903,10.1865,10.1712,10.1606,10.1516,10.1414,10.1308,10.1289,10.1385,10.1356,10.1404,10.1674,10.2462,10.3943,10.4135,10.5097,10.6328,10.6395,10.6322,10.6188,10.6041,10.5967,10.5878,10.5773,10.5698,10.5686,10.5686,10.5686,10.5686,10.5686,10.5647,10.5456,10.5189,10.473,10.4386,10.3317,10.2426,10.1853,10.1318,10.1139,10.0986,10.0718,10.0642,10.0986,10.2247,10.2858,10.3622,10.473,10.5456,10.5673,10.5686,10.5686,10.5686,10.5686,10.5686,10.5686,10.5686,10.5686,10.5686,10.5686,10.5686,10.5686,10.5686,10.5686,10.5686,10.5112,10.4654,10.3852,10.3164,10.2705,10.217,10.175,10.1597,10.1318,10.1139,10.0948,10.0833,10.0757,10.0642,10.0718,10.0909,10.11,10.1406,10.1597,10.1559,10.1062,10.0871,10.0757,10.068,10.0527,10.0375,10.0019,9.9713,9.9484,9.9534,10.0069,10.0566,10.1215,10.2094,10.2476,10.2858,10.3087,10.324,10.3126,10.3278,10.3813,10.389,10.3622,10.3775,10.4004,10.3813,10.324,10.3214,10.2755,10.2552,10.24,10.2285,10.1979,10.1534,10.147,10.1366,10.1279,10.1279,10.1279,10.1279,10.1279,10.1279,10.2289,10.3789,10.3905,10.4828,10.6241,10.6354,10.6231,10.6112,10.6001,10.5913,10.5795,10.576,10.5698,10.5686,10.5686,10.5686,10.5686,10.5609,10.5495,10.5074,10.4386,10.3813,10.3228,10.2209,10.1788,10.1318,10.0909,10.0718,10.0642,10.0604,10.0604,10.1177,10.1979,10.2629,10.3443,10.4616,10.5189,10.5673,10.5686,10.5686,10.5686,10.5686,10.5686,10.5686,10.5686,10.5686,10.5686,10.5686,10.5686,10.5686,10.5686,10.5686,10.5686,10.5686,10.538,10.4845,10.4157,10.3584,10.3011,10.2667,10.2361,10.2056,10.17,10.1444,10.1139,10.0871,10.0604,10.0757,10.0986,10.1292,10.1635,10.1788,10.1865,10.1712,10.1559,10.1674,10.1865,10.1941,10.1865,10.1292,10.068,10.0336,10.0183,10.0898,10.1624,10.2285,10.2629,10.2858,10.3049,10.3126,10.324,10.3317,10.3393,10.3584,10.3699,10.3775,10.3813,10.3737,10.3584,10.3202,10.3099,10.2794,10.24,10.2247,10.2476,10.2056,10.147,10.149,10.1356,10.1279,10.1279,10.1279,10.1279,10.1279,10.1279,10.2289,10.3674,10.3905,10.4818,10.6123,10.6291,10.6134,10.6023,10.5947,10.5842,10.5724,10.5686,10.5686,10.5686,10.5686,10.5686,10.5686,10.5456,10.4998,10.4272,10.3508,10.2743,10.1891,10.1738,10.1394,10.0871,10.0718,10.0604,10.0604,10.0604,10.0604,10.0833,10.1483,10.2323,10.3164,10.4043,10.4807,10.5456,10.5686,10.5686,10.5686,10.5686,10.5686,10.5686,10.5686,10.5686,10.5686,10.5686,10.5686,10.5686,10.5686,10.5686,10.5686,10.5686,10.5609,10.5227,10.4921,10.4348,10.3966,10.3622,10.3317,10.3011,10.2476,10.2056,10.1635,10.1292,10.0909,10.0718,10.0909,10.1177,10.1483,10.1597,10.1674,10.1674,10.1444,10.1292,10.2247,10.2438,10.2323,10.2018,10.1215,10.1139,10.0833,10.1635,10.2285,10.2438,10.2782,10.3049,10.3202,10.3126,10.3202,10.324,10.324,10.3202,10.3317,10.3355,10.3164,10.3011,10.2705,10.2476,10.24,10.2132,10.1853,10.1941,10.2132,10.1903,10.1433,10.1356,10.1289,10.1279,10.1279,10.1279,10.1279,10.1279,10.1279,10.2289,10.3674,10.402,10.4777,10.6088,10.6188,10.6079,10.5959,10.5889,10.5807,10.576,10.5686,10.5686,10.5686,10.5686,10.5647,10.5456,10.5036,10.4234,10.3469,10.2667,10.2132,10.1815,10.1433,10.0833,10.0642,10.0604,10.0604,10.0604,10.0604,10.0604,10.0718,10.1444,10.2323,10.3126,10.3928,10.473,10.5342,10.5686,10.5686,10.5686,10.5686,10.5686,10.5686,10.5686,10.5686,10.5686,10.5686,10.5686,10.5686,10.5686,10.5686,10.5686,10.5686,10.5686,10.5609,10.5444,10.5227,10.4883,10.4616,10.431,10.3928,10.3278,10.2705,10.2247,10.175,10.1253,10.0757,10.0871,10.11,10.1215,10.133,10.1368,10.1406,10.1368,10.1215,10.1177,10.1139,10.11,10.1215,10.0833,10.1521,10.1559,10.2323,10.282,10.2705,10.2514,10.2552,10.2743,10.2743,10.2896,10.3087,10.2858,10.2591,10.2782,10.282,10.2476,10.2018,10.1521,10.133,10.1521,10.1483,10.1292,10.1139,10.1253,10.11,10.1039,10.1279,10.1279,10.1279,10.1279,10.1279,10.1279,10.1279,10.1279,10.2289,10.3741,10.3931,10.4677,10.6013,10.6101,10.605,10.5878,10.5818,10.5758,10.5698,10.5686,10.5686,10.5686,10.5647,10.5303,10.5036,10.3852,10.2935,10.2514,10.1826,10.1292,10.128,10.0757,10.0604,10.0604,10.0604,10.0604,10.0604,10.0604,10.0604,10.0604,10.1177,10.1788,10.2591,10.3431,10.4272,10.4998,10.5418,10.5686,10.5686,10.5686,10.5686,10.5686,10.5686,10.5686,10.5686,10.5686,10.5686,10.5686,10.5686,10.5686,10.5686,10.5686,10.5686,10.5686,10.5571,10.5571,10.5265,10.5265,10.4998,10.4769,10.4234,10.3813,10.3355,10.2743,10.217,10.1444,10.1024,10.0986,10.0833,10.0909,10.0909,10.0948,10.0948,10.0871,10.0871,10.0642,10.0642,10.0604,10.0604,10.1292,10.1788,10.2247,10.217,10.1674,10.1559,10.1674,10.1941,10.2247,10.1979,10.1826,10.1903,10.1941,10.1979,10.1865,10.1521,10.1024,10.0795,10.0718,10.0948,10.0871,10.068,10.0604,10.0604,10.0642,10.0596,10.1241,10.1279,10.1279,10.1279,10.1279,10.1279,10.1279,10.1317,10.2154,10.3518,10.3647,10.468,10.5641,10.6005,10.5913,10.583,10.5758,10.5736,10.5686,10.5686,10.5686,10.5647,10.552,10.4807,10.3878,10.277,10.2158,10.1712,10.11,10.0757,10.0604,10.0604,10.0604,10.0604,10.0604,10.0604,10.0604,10.0604,10.0604,10.0604,10.0604,10.1215,10.1941,10.2667,10.3469,10.4348,10.496,10.5456,10.5686,10.5686,10.5686,10.5686,10.5686,10.5686,10.5686,10.5686,10.5686,10.5686,10.5686,10.5686,10.5686,10.5686,10.5686,10.5686,10.5686,10.5686,10.5673,10.5635,10.5559,10.5342,10.5151,10.473,10.4195,10.3546,10.2973,10.2132,10.1406,10.1215,10.0986,10.0871,10.0909,10.0795,10.0795,10.0642,10.0642,10.0604,10.0604,10.0604,10.0604,10.0909,10.1062,10.1253,10.1024,10.0795,10.0909,10.1139,10.11,10.1292,10.0871,10.068,10.1062,10.1177,10.0948,10.0757,10.0833,10.0795,10.068,10.0604,10.0604,10.0604,10.0604,10.0604,10.0604,10.0604,10.0558,10.1279,10.1279,10.1279,10.1279,10.1279,10.1279,10.1279,10.1317,10.1855,10.2725,10.3464,10.4473,10.6018,10.5959,10.5854,10.5746,10.5724,10.5686,10.5686,10.5686,10.5686,10.5342,10.4692,10.3699,10.277,10.2006,10.1547,10.1215,10.0795,10.0604,10.0604,10.0604,10.0604,10.0604,10.0604,10.0604,10.0604,10.0604,10.0604,10.0604,10.0757,10.1139,10.1635,10.2056,10.3126,10.4004,10.4501,10.5036,10.5456,10.5647,10.5609,10.5686,10.5686,10.5686,10.5686,10.5686,10.5686,10.5686,10.5686,10.5686,10.5686,10.5686,10.5686,10.5686,10.5686,10.5686,10.5686,10.5673,10.5673,10.5533,10.5533,10.5227,10.4501,10.3813,10.3431,10.2858,10.2629,10.2476,10.2209,10.1941,10.1826,10.1635,10.1406,10.0871,10.0871,10.0783,10.0757,10.0604,10.0604,10.0604,10.0604,10.0604,10.0604,10.0642,10.068,10.0757,10.0642,10.0604,10.0604,10.0604,10.0604,10.0604,10.0604,10.0604,10.068,10.0604,10.0604,10.0604,10.0604,10.0604,10.0604,10.0642,10.0795,10.0986]}]]